<?xml version="1.0" encoding="UTF-8" standalone="no" ?>
<gpx xmlns="http://www.topografix.com/GPX/1/1" xmlns:xsi="http://www.w3.org/2001/XMLSchema-instance" xsi:schemaLocation="http://www.topografix.com/GPX/1/1 http://www.topografix.com/GPX/1/1/gpx.xsd" version="1.1" creator="VisuGPX - https://www.visugpx.com">
  <metadata>
    <name>Boucle à partir de Ste Jalle - col d\'ogon - le coucou</name>
    <desc><![CDATA[Une boucle d\'une petite trentaine de kilomètres : chemins de montagne , singles caillouteux , 5-6 kilomètres de route vers Arpavon , le tout dans un paysage magifique ponctué de points de vue sur la drome ... et biensur du dénivelé positif pour se faire mal ...]]></desc>
  </metadata>
  <trk>
    <name><![CDATA[STE JALLE OLGON COUCOU]]></name>
    <trkseg>
      <trkpt lat="44.34795" lon="5.28534">
        <ele>440.9</ele>
        <time>2011-08-19T06:19:08Z</time>
      </trkpt>
      <trkpt lat="44.34767" lon="5.28519">
        <ele>437.06</ele>
        <time>2011-08-19T06:19:11Z</time>
      </trkpt>
      <trkpt lat="44.34739" lon="5.2851">
        <ele>433.69</ele>
        <time>2011-08-19T06:19:14Z</time>
      </trkpt>
      <trkpt lat="44.34731" lon="5.28507">
        <ele>432.73</ele>
        <time>2011-08-19T06:19:15Z</time>
      </trkpt>
      <trkpt lat="44.34724" lon="5.28503">
        <ele>431.77</ele>
        <time>2011-08-19T06:19:16Z</time>
      </trkpt>
      <trkpt lat="44.34719" lon="5.28498">
        <ele>431.77</ele>
        <time>2011-08-19T06:19:17Z</time>
      </trkpt>
      <trkpt lat="44.34716" lon="5.28493">
        <ele>431.29</ele>
        <time>2011-08-19T06:19:18Z</time>
      </trkpt>
      <trkpt lat="44.34713" lon="5.28486">
        <ele>430.81</ele>
        <time>2011-08-19T06:19:19Z</time>
      </trkpt>
      <trkpt lat="44.34711" lon="5.28479">
        <ele>429.85</ele>
        <time>2011-08-19T06:19:20Z</time>
      </trkpt>
      <trkpt lat="44.34709" lon="5.28472">
        <ele>429.37</ele>
        <time>2011-08-19T06:19:21Z</time>
      </trkpt>
      <trkpt lat="44.34707" lon="5.28467">
        <ele>428.89</ele>
        <time>2011-08-19T06:19:22Z</time>
      </trkpt>
      <trkpt lat="44.34703" lon="5.28464">
        <ele>427.92</ele>
        <time>2011-08-19T06:19:23Z</time>
      </trkpt>
      <trkpt lat="44.34699" lon="5.28465">
        <ele>427.44</ele>
        <time>2011-08-19T06:19:24Z</time>
      </trkpt>
      <trkpt lat="44.34697" lon="5.28469">
        <ele>427.44</ele>
        <time>2011-08-19T06:19:25Z</time>
      </trkpt>
      <trkpt lat="44.34696" lon="5.28475">
        <ele>426.96</ele>
        <time>2011-08-19T06:19:26Z</time>
      </trkpt>
      <trkpt lat="44.34696" lon="5.28482">
        <ele>426.48</ele>
        <time>2011-08-19T06:19:27Z</time>
      </trkpt>
      <trkpt lat="44.34696" lon="5.2849">
        <ele>426.48</ele>
        <time>2011-08-19T06:19:28Z</time>
      </trkpt>
      <trkpt lat="44.34694" lon="5.28499">
        <ele>424.56</ele>
        <time>2011-08-19T06:19:29Z</time>
      </trkpt>
      <trkpt lat="44.34691" lon="5.28508">
        <ele>423.6</ele>
        <time>2011-08-19T06:19:30Z</time>
      </trkpt>
      <trkpt lat="44.34687" lon="5.28516">
        <ele>422.64</ele>
        <time>2011-08-19T06:19:31Z</time>
      </trkpt>
      <trkpt lat="44.34682" lon="5.28522">
        <ele>422.16</ele>
        <time>2011-08-19T06:19:32Z</time>
      </trkpt>
      <trkpt lat="44.34676" lon="5.28526">
        <ele>422.16</ele>
        <time>2011-08-19T06:19:33Z</time>
      </trkpt>
      <trkpt lat="44.3467" lon="5.28526">
        <ele>421.68</ele>
        <time>2011-08-19T06:19:34Z</time>
      </trkpt>
      <trkpt lat="44.34664" lon="5.28524">
        <ele>422.16</ele>
        <time>2011-08-19T06:19:35Z</time>
      </trkpt>
      <trkpt lat="44.34659" lon="5.2852">
        <ele>422.64</ele>
        <time>2011-08-19T06:19:36Z</time>
      </trkpt>
      <trkpt lat="44.34654" lon="5.28516">
        <ele>423.12</ele>
        <time>2011-08-19T06:19:37Z</time>
      </trkpt>
      <trkpt lat="44.34651" lon="5.2851">
        <ele>422.64</ele>
        <time>2011-08-19T06:19:38Z</time>
      </trkpt>
      <trkpt lat="44.34649" lon="5.28504">
        <ele>422.64</ele>
        <time>2011-08-19T06:19:39Z</time>
      </trkpt>
      <trkpt lat="44.34646" lon="5.28498">
        <ele>422.64</ele>
        <time>2011-08-19T06:19:40Z</time>
      </trkpt>
      <trkpt lat="44.34644" lon="5.28491">
        <ele>421.68</ele>
        <time>2011-08-19T06:19:41Z</time>
      </trkpt>
      <trkpt lat="44.34635" lon="5.28468">
        <ele>420.71</ele>
        <time>2011-08-19T06:19:44Z</time>
      </trkpt>
      <trkpt lat="44.34631" lon="5.28462">
        <ele>419.75</ele>
        <time>2011-08-19T06:19:45Z</time>
      </trkpt>
      <trkpt lat="44.34626" lon="5.28457">
        <ele>419.75</ele>
        <time>2011-08-19T06:19:46Z</time>
      </trkpt>
      <trkpt lat="44.34621" lon="5.28453">
        <ele>418.79</ele>
        <time>2011-08-19T06:19:47Z</time>
      </trkpt>
      <trkpt lat="44.34616" lon="5.2845">
        <ele>418.31</ele>
        <time>2011-08-19T06:19:48Z</time>
      </trkpt>
      <trkpt lat="44.3461" lon="5.28449">
        <ele>417.83</ele>
        <time>2011-08-19T06:19:49Z</time>
      </trkpt>
      <trkpt lat="44.3458" lon="5.28441">
        <ele>414.95</ele>
        <time>2011-08-19T06:19:54Z</time>
      </trkpt>
      <trkpt lat="44.34556" lon="5.28435">
        <ele>412.54</ele>
        <time>2011-08-19T06:19:58Z</time>
      </trkpt>
      <trkpt lat="44.34551" lon="5.28435">
        <ele>412.54</ele>
        <time>2011-08-19T06:19:59Z</time>
      </trkpt>
      <trkpt lat="44.3453" lon="5.28419">
        <ele>409.66</ele>
        <time>2011-08-19T06:20:07Z</time>
      </trkpt>
      <trkpt lat="44.34525" lon="5.28416">
        <ele>409.18</ele>
        <time>2011-08-19T06:20:17Z</time>
      </trkpt>
      <trkpt lat="44.34522" lon="5.28415">
        <ele>409.18</ele>
        <time>2011-08-19T06:20:21Z</time>
      </trkpt>
      <trkpt lat="44.34521" lon="5.28414">
        <ele>409.18</ele>
        <time>2011-08-19T06:20:22Z</time>
      </trkpt>
      <trkpt lat="44.34518" lon="5.28416">
        <ele>408.22</ele>
        <time>2011-08-19T06:20:28Z</time>
      </trkpt>
      <trkpt lat="44.34516" lon="5.28415">
        <ele>408.22</ele>
        <time>2011-08-19T06:20:29Z</time>
      </trkpt>
      <trkpt lat="44.34514" lon="5.28414">
        <ele>408.22</ele>
        <time>2011-08-19T06:20:30Z</time>
      </trkpt>
      <trkpt lat="44.3451" lon="5.28413">
        <ele>407.74</ele>
        <time>2011-08-19T06:20:31Z</time>
      </trkpt>
      <trkpt lat="44.34507" lon="5.28411">
        <ele>407.26</ele>
        <time>2011-08-19T06:20:32Z</time>
      </trkpt>
      <trkpt lat="44.34503" lon="5.2841">
        <ele>407.26</ele>
        <time>2011-08-19T06:20:33Z</time>
      </trkpt>
      <trkpt lat="44.34498" lon="5.28408">
        <ele>406.77</ele>
        <time>2011-08-19T06:20:34Z</time>
      </trkpt>
      <trkpt lat="44.34475" lon="5.28392">
        <ele>404.37</ele>
        <time>2011-08-19T06:20:40Z</time>
      </trkpt>
      <trkpt lat="44.34464" lon="5.28386">
        <ele>403.41</ele>
        <time>2011-08-19T06:20:43Z</time>
      </trkpt>
      <trkpt lat="44.34459" lon="5.28386">
        <ele>402.45</ele>
        <time>2011-08-19T06:20:45Z</time>
      </trkpt>
      <trkpt lat="44.34457" lon="5.28386">
        <ele>402.45</ele>
        <time>2011-08-19T06:20:46Z</time>
      </trkpt>
      <trkpt lat="44.34455" lon="5.28384">
        <ele>401.97</ele>
        <time>2011-08-19T06:20:47Z</time>
      </trkpt>
      <trkpt lat="44.34454" lon="5.2838">
        <ele>401.97</ele>
        <time>2011-08-19T06:20:48Z</time>
      </trkpt>
      <trkpt lat="44.34454" lon="5.28375">
        <ele>401.97</ele>
        <time>2011-08-19T06:20:49Z</time>
      </trkpt>
      <trkpt lat="44.34455" lon="5.2837">
        <ele>401.97</ele>
        <time>2011-08-19T06:20:50Z</time>
      </trkpt>
      <trkpt lat="44.34477" lon="5.2832">
        <ele>401.97</ele>
        <time>2011-08-19T06:21:01Z</time>
      </trkpt>
      <trkpt lat="44.34477" lon="5.28315">
        <ele>401.97</ele>
        <time>2011-08-19T06:21:02Z</time>
      </trkpt>
      <trkpt lat="44.34475" lon="5.2831">
        <ele>401.49</ele>
        <time>2011-08-19T06:21:03Z</time>
      </trkpt>
      <trkpt lat="44.34474" lon="5.28305">
        <ele>401.49</ele>
        <time>2011-08-19T06:21:04Z</time>
      </trkpt>
      <trkpt lat="44.34472" lon="5.283">
        <ele>401.49</ele>
        <time>2011-08-19T06:21:05Z</time>
      </trkpt>
      <trkpt lat="44.34469" lon="5.28294">
        <ele>401.49</ele>
        <time>2011-08-19T06:21:06Z</time>
      </trkpt>
      <trkpt lat="44.34467" lon="5.28289">
        <ele>401.01</ele>
        <time>2011-08-19T06:21:07Z</time>
      </trkpt>
      <trkpt lat="44.34466" lon="5.28284">
        <ele>400.05</ele>
        <time>2011-08-19T06:21:08Z</time>
      </trkpt>
      <trkpt lat="44.34467" lon="5.28279">
        <ele>399.57</ele>
        <time>2011-08-19T06:21:09Z</time>
      </trkpt>
      <trkpt lat="44.3447" lon="5.28275">
        <ele>399.08</ele>
        <time>2011-08-19T06:21:10Z</time>
      </trkpt>
      <trkpt lat="44.34474" lon="5.2827">
        <ele>399.57</ele>
        <time>2011-08-19T06:21:11Z</time>
      </trkpt>
      <trkpt lat="44.34477" lon="5.28264">
        <ele>399.08</ele>
        <time>2011-08-19T06:21:12Z</time>
      </trkpt>
      <trkpt lat="44.3448" lon="5.28256">
        <ele>399.08</ele>
        <time>2011-08-19T06:21:13Z</time>
      </trkpt>
      <trkpt lat="44.34482" lon="5.28249">
        <ele>399.57</ele>
        <time>2011-08-19T06:21:14Z</time>
      </trkpt>
      <trkpt lat="44.34484" lon="5.28241">
        <ele>399.57</ele>
        <time>2011-08-19T06:21:15Z</time>
      </trkpt>
      <trkpt lat="44.34493" lon="5.28197">
        <ele>400.53</ele>
        <time>2011-08-19T06:21:21Z</time>
      </trkpt>
      <trkpt lat="44.34495" lon="5.28191">
        <ele>401.01</ele>
        <time>2011-08-19T06:21:22Z</time>
      </trkpt>
      <trkpt lat="44.34498" lon="5.28186">
        <ele>401.01</ele>
        <time>2011-08-19T06:21:23Z</time>
      </trkpt>
      <trkpt lat="44.345" lon="5.28182">
        <ele>401.01</ele>
        <time>2011-08-19T06:21:24Z</time>
      </trkpt>
      <trkpt lat="44.34501" lon="5.28176">
        <ele>401.01</ele>
        <time>2011-08-19T06:21:25Z</time>
      </trkpt>
      <trkpt lat="44.34499" lon="5.28171">
        <ele>401.01</ele>
        <time>2011-08-19T06:21:26Z</time>
      </trkpt>
      <trkpt lat="44.34497" lon="5.28165">
        <ele>400.53</ele>
        <time>2011-08-19T06:21:27Z</time>
      </trkpt>
      <trkpt lat="44.34494" lon="5.28159">
        <ele>400.53</ele>
        <time>2011-08-19T06:21:28Z</time>
      </trkpt>
      <trkpt lat="44.34475" lon="5.28104">
        <ele>401.01</ele>
        <time>2011-08-19T06:21:36Z</time>
      </trkpt>
      <trkpt lat="44.34474" lon="5.28096">
        <ele>401.49</ele>
        <time>2011-08-19T06:21:37Z</time>
      </trkpt>
      <trkpt lat="44.34473" lon="5.28089">
        <ele>401.49</ele>
        <time>2011-08-19T06:21:38Z</time>
      </trkpt>
      <trkpt lat="44.34474" lon="5.28082">
        <ele>401.49</ele>
        <time>2011-08-19T06:21:39Z</time>
      </trkpt>
      <trkpt lat="44.34475" lon="5.28074">
        <ele>401.49</ele>
        <time>2011-08-19T06:21:40Z</time>
      </trkpt>
      <trkpt lat="44.34476" lon="5.28068">
        <ele>401.49</ele>
        <time>2011-08-19T06:21:41Z</time>
      </trkpt>
      <trkpt lat="44.34477" lon="5.28061">
        <ele>401.49</ele>
        <time>2011-08-19T06:21:42Z</time>
      </trkpt>
      <trkpt lat="44.34478" lon="5.28048">
        <ele>402.45</ele>
        <time>2011-08-19T06:21:44Z</time>
      </trkpt>
      <trkpt lat="44.34478" lon="5.28042">
        <ele>402.93</ele>
        <time>2011-08-19T06:21:45Z</time>
      </trkpt>
      <trkpt lat="44.34477" lon="5.28037">
        <ele>403.41</ele>
        <time>2011-08-19T06:21:46Z</time>
      </trkpt>
      <trkpt lat="44.34477" lon="5.28032">
        <ele>403.41</ele>
        <time>2011-08-19T06:21:47Z</time>
      </trkpt>
      <trkpt lat="44.34476" lon="5.28027">
        <ele>403.89</ele>
        <time>2011-08-19T06:21:48Z</time>
      </trkpt>
      <trkpt lat="44.34475" lon="5.28019">
        <ele>404.85</ele>
        <time>2011-08-19T06:21:50Z</time>
      </trkpt>
      <trkpt lat="44.34468" lon="5.27991">
        <ele>407.74</ele>
        <time>2011-08-19T06:21:59Z</time>
      </trkpt>
      <trkpt lat="44.34463" lon="5.27978">
        <ele>409.66</ele>
        <time>2011-08-19T06:22:05Z</time>
      </trkpt>
      <trkpt lat="44.34462" lon="5.27976">
        <ele>410.14</ele>
        <time>2011-08-19T06:22:06Z</time>
      </trkpt>
      <trkpt lat="44.34461" lon="5.27975">
        <ele>410.62</ele>
        <time>2011-08-19T06:22:07Z</time>
      </trkpt>
      <trkpt lat="44.34442" lon="5.27946">
        <ele>412.54</ele>
        <time>2011-08-19T06:22:21Z</time>
      </trkpt>
      <trkpt lat="44.34424" lon="5.27919">
        <ele>413.98</ele>
        <time>2011-08-19T06:22:33Z</time>
      </trkpt>
      <trkpt lat="44.34401" lon="5.2788">
        <ele>416.39</ele>
        <time>2011-08-19T06:22:47Z</time>
      </trkpt>
      <trkpt lat="44.3439" lon="5.2784">
        <ele>415.91</ele>
        <time>2011-08-19T06:22:57Z</time>
      </trkpt>
      <trkpt lat="44.34386" lon="5.27837">
        <ele>416.87</ele>
        <time>2011-08-19T06:22:58Z</time>
      </trkpt>
      <trkpt lat="44.34381" lon="5.27836">
        <ele>416.87</ele>
        <time>2011-08-19T06:22:59Z</time>
      </trkpt>
      <trkpt lat="44.34349" lon="5.27814">
        <ele>418.79</ele>
        <time>2011-08-19T06:23:09Z</time>
      </trkpt>
      <trkpt lat="44.34328" lon="5.27764">
        <ele>421.19</ele>
        <time>2011-08-19T06:23:22Z</time>
      </trkpt>
      <trkpt lat="44.34314" lon="5.27731">
        <ele>423.6</ele>
        <time>2011-08-19T06:23:34Z</time>
      </trkpt>
      <trkpt lat="44.34307" lon="5.27713">
        <ele>424.08</ele>
        <time>2011-08-19T06:23:44Z</time>
      </trkpt>
      <trkpt lat="44.34303" lon="5.27702">
        <ele>424.56</ele>
        <time>2011-08-19T06:23:48Z</time>
      </trkpt>
      <trkpt lat="44.34303" lon="5.27699">
        <ele>425.04</ele>
        <time>2011-08-19T06:23:49Z</time>
      </trkpt>
      <trkpt lat="44.34304" lon="5.27696">
        <ele>425.04</ele>
        <time>2011-08-19T06:23:50Z</time>
      </trkpt>
      <trkpt lat="44.34305" lon="5.27693">
        <ele>425.52</ele>
        <time>2011-08-19T06:23:51Z</time>
      </trkpt>
      <trkpt lat="44.34306" lon="5.27691">
        <ele>426</ele>
        <time>2011-08-19T06:23:52Z</time>
      </trkpt>
      <trkpt lat="44.34308" lon="5.2769">
        <ele>426</ele>
        <time>2011-08-19T06:23:53Z</time>
      </trkpt>
      <trkpt lat="44.3431" lon="5.27689">
        <ele>426</ele>
        <time>2011-08-19T06:23:54Z</time>
      </trkpt>
      <trkpt lat="44.34311" lon="5.2769">
        <ele>426.48</ele>
        <time>2011-08-19T06:23:55Z</time>
      </trkpt>
      <trkpt lat="44.34313" lon="5.27691">
        <ele>426.96</ele>
        <time>2011-08-19T06:23:56Z</time>
      </trkpt>
      <trkpt lat="44.34314" lon="5.27692">
        <ele>426.48</ele>
        <time>2011-08-19T06:23:57Z</time>
      </trkpt>
      <trkpt lat="44.34316" lon="5.27693">
        <ele>426.96</ele>
        <time>2011-08-19T06:23:58Z</time>
      </trkpt>
      <trkpt lat="44.34318" lon="5.27694">
        <ele>426.96</ele>
        <time>2011-08-19T06:23:59Z</time>
      </trkpt>
      <trkpt lat="44.3432" lon="5.27694">
        <ele>427.44</ele>
        <time>2011-08-19T06:24:00Z</time>
      </trkpt>
      <trkpt lat="44.34322" lon="5.27694">
        <ele>427.44</ele>
        <time>2011-08-19T06:24:01Z</time>
      </trkpt>
      <trkpt lat="44.34324" lon="5.27694">
        <ele>427.92</ele>
        <time>2011-08-19T06:24:02Z</time>
      </trkpt>
      <trkpt lat="44.34351" lon="5.27702">
        <ele>430.81</ele>
        <time>2011-08-19T06:24:16Z</time>
      </trkpt>
      <trkpt lat="44.34368" lon="5.27709">
        <ele>432.25</ele>
        <time>2011-08-19T06:24:25Z</time>
      </trkpt>
      <trkpt lat="44.34369" lon="5.27708">
        <ele>432.25</ele>
        <time>2011-08-19T06:24:26Z</time>
      </trkpt>
      <trkpt lat="44.34371" lon="5.27709">
        <ele>432.73</ele>
        <time>2011-08-19T06:24:27Z</time>
      </trkpt>
      <trkpt lat="44.34373" lon="5.27709">
        <ele>432.73</ele>
        <time>2011-08-19T06:24:28Z</time>
      </trkpt>
      <trkpt lat="44.34374" lon="5.27709">
        <ele>432.73</ele>
        <time>2011-08-19T06:24:29Z</time>
      </trkpt>
      <trkpt lat="44.3439" lon="5.27714">
        <ele>436.1</ele>
        <time>2011-08-19T06:24:39Z</time>
      </trkpt>
      <trkpt lat="44.34411" lon="5.27722">
        <ele>438.5</ele>
        <time>2011-08-19T06:24:52Z</time>
      </trkpt>
      <trkpt lat="44.34433" lon="5.27732">
        <ele>439.94</ele>
        <time>2011-08-19T06:25:05Z</time>
      </trkpt>
      <trkpt lat="44.34462" lon="5.27739">
        <ele>441.86</ele>
        <time>2011-08-19T06:25:20Z</time>
      </trkpt>
      <trkpt lat="44.34484" lon="5.27755">
        <ele>442.82</ele>
        <time>2011-08-19T06:25:30Z</time>
      </trkpt>
      <trkpt lat="44.34504" lon="5.27786">
        <ele>445.71</ele>
        <time>2011-08-19T06:25:44Z</time>
      </trkpt>
      <trkpt lat="44.34529" lon="5.27808">
        <ele>448.59</ele>
        <time>2011-08-19T06:25:58Z</time>
      </trkpt>
      <trkpt lat="44.34549" lon="5.27827">
        <ele>451</ele>
        <time>2011-08-19T06:26:11Z</time>
      </trkpt>
      <trkpt lat="44.34572" lon="5.27845">
        <ele>453.4</ele>
        <time>2011-08-19T06:26:24Z</time>
      </trkpt>
      <trkpt lat="44.34599" lon="5.27862">
        <ele>455.8</ele>
        <time>2011-08-19T06:26:38Z</time>
      </trkpt>
      <trkpt lat="44.34631" lon="5.27871">
        <ele>457.24</ele>
        <time>2011-08-19T06:26:52Z</time>
      </trkpt>
      <trkpt lat="44.3467" lon="5.2789">
        <ele>460.13</ele>
        <time>2011-08-19T06:27:10Z</time>
      </trkpt>
      <trkpt lat="44.34709" lon="5.27907">
        <ele>463.49</ele>
        <time>2011-08-19T06:27:28Z</time>
      </trkpt>
      <trkpt lat="44.34745" lon="5.27897">
        <ele>465.9</ele>
        <time>2011-08-19T06:27:44Z</time>
      </trkpt>
      <trkpt lat="44.34767" lon="5.27866">
        <ele>468.3</ele>
        <time>2011-08-19T06:27:58Z</time>
      </trkpt>
      <trkpt lat="44.34766" lon="5.2785">
        <ele>470.7</ele>
        <time>2011-08-19T06:28:05Z</time>
      </trkpt>
      <trkpt lat="44.34749" lon="5.27845">
        <ele>471.18</ele>
        <time>2011-08-19T06:28:14Z</time>
      </trkpt>
      <trkpt lat="44.34743" lon="5.27834">
        <ele>472.63</ele>
        <time>2011-08-19T06:28:19Z</time>
      </trkpt>
      <trkpt lat="44.3472" lon="5.27801">
        <ele>475.51</ele>
        <time>2011-08-19T06:28:36Z</time>
      </trkpt>
      <trkpt lat="44.34696" lon="5.2776">
        <ele>478.39</ele>
        <time>2011-08-19T06:28:54Z</time>
      </trkpt>
      <trkpt lat="44.34678" lon="5.27722">
        <ele>480.32</ele>
        <time>2011-08-19T06:29:09Z</time>
      </trkpt>
      <trkpt lat="44.34666" lon="5.2768">
        <ele>483.2</ele>
        <time>2011-08-19T06:29:25Z</time>
      </trkpt>
      <trkpt lat="44.34665" lon="5.27635">
        <ele>484.64</ele>
        <time>2011-08-19T06:29:40Z</time>
      </trkpt>
      <trkpt lat="44.34672" lon="5.27589">
        <ele>487.05</ele>
        <time>2011-08-19T06:29:55Z</time>
      </trkpt>
      <trkpt lat="44.34672" lon="5.27586">
        <ele>487.53</ele>
        <time>2011-08-19T06:29:56Z</time>
      </trkpt>
      <trkpt lat="44.34652" lon="5.27545">
        <ele>488.97</ele>
        <time>2011-08-19T06:30:12Z</time>
      </trkpt>
      <trkpt lat="44.3463" lon="5.27515">
        <ele>490.41</ele>
        <time>2011-08-19T06:30:26Z</time>
      </trkpt>
      <trkpt lat="44.34607" lon="5.27482">
        <ele>493.29</ele>
        <time>2011-08-19T06:30:41Z</time>
      </trkpt>
      <trkpt lat="44.34599" lon="5.27452">
        <ele>496.18</ele>
        <time>2011-08-19T06:30:54Z</time>
      </trkpt>
      <trkpt lat="44.346" lon="5.2742">
        <ele>499.06</ele>
        <time>2011-08-19T06:31:07Z</time>
      </trkpt>
      <trkpt lat="44.34599" lon="5.27385">
        <ele>502.43</ele>
        <time>2011-08-19T06:31:21Z</time>
      </trkpt>
      <trkpt lat="44.34596" lon="5.27349">
        <ele>504.83</ele>
        <time>2011-08-19T06:31:37Z</time>
      </trkpt>
      <trkpt lat="44.34597" lon="5.27335">
        <ele>505.79</ele>
        <time>2011-08-19T06:31:44Z</time>
      </trkpt>
      <trkpt lat="44.34602" lon="5.27327">
        <ele>507.71</ele>
        <time>2011-08-19T06:31:55Z</time>
      </trkpt>
      <trkpt lat="44.34603" lon="5.27328">
        <ele>507.71</ele>
        <time>2011-08-19T06:32:07Z</time>
      </trkpt>
      <trkpt lat="44.34603" lon="5.27328">
        <ele>507.71</ele>
        <time>2011-08-19T06:32:27Z</time>
      </trkpt>
      <trkpt lat="44.34603" lon="5.27328">
        <ele>502.91</ele>
        <time>2011-08-19T06:32:41Z</time>
      </trkpt>
      <trkpt lat="44.34603" lon="5.27328">
        <ele>502.91</ele>
        <time>2011-08-19T06:32:42Z</time>
      </trkpt>
      <trkpt lat="44.34603" lon="5.27328">
        <ele>512.52</ele>
        <time>2011-08-19T06:32:43Z</time>
      </trkpt>
      <trkpt lat="44.34603" lon="5.27328">
        <ele>511.08</ele>
        <time>2011-08-19T06:32:44Z</time>
      </trkpt>
      <trkpt lat="44.34603" lon="5.27328">
        <ele>504.83</ele>
        <time>2011-08-19T06:32:46Z</time>
      </trkpt>
      <trkpt lat="44.34603" lon="5.27328">
        <ele>509.16</ele>
        <time>2011-08-19T06:32:47Z</time>
      </trkpt>
      <trkpt lat="44.34604" lon="5.27329">
        <ele>508.67</ele>
        <time>2011-08-19T06:33:04Z</time>
      </trkpt>
      <trkpt lat="44.34611" lon="5.27335">
        <ele>509.16</ele>
        <time>2011-08-19T06:33:10Z</time>
      </trkpt>
      <trkpt lat="44.34639" lon="5.2735">
        <ele>511.56</ele>
        <time>2011-08-19T06:33:26Z</time>
      </trkpt>
      <trkpt lat="44.34662" lon="5.27353">
        <ele>514.44</ele>
        <time>2011-08-19T06:33:40Z</time>
      </trkpt>
      <trkpt lat="44.34677" lon="5.27357">
        <ele>516.37</ele>
        <time>2011-08-19T06:33:49Z</time>
      </trkpt>
      <trkpt lat="44.34703" lon="5.27363">
        <ele>518.77</ele>
        <time>2011-08-19T06:34:05Z</time>
      </trkpt>
      <trkpt lat="44.34725" lon="5.2737">
        <ele>521.17</ele>
        <time>2011-08-19T06:34:18Z</time>
      </trkpt>
      <trkpt lat="44.34751" lon="5.27381">
        <ele>523.58</ele>
        <time>2011-08-19T06:34:33Z</time>
      </trkpt>
      <trkpt lat="44.34775" lon="5.27392">
        <ele>526.46</ele>
        <time>2011-08-19T06:34:47Z</time>
      </trkpt>
      <trkpt lat="44.34805" lon="5.27408">
        <ele>528.86</ele>
        <time>2011-08-19T06:35:05Z</time>
      </trkpt>
      <trkpt lat="44.34826" lon="5.27426">
        <ele>532.23</ele>
        <time>2011-08-19T06:35:19Z</time>
      </trkpt>
      <trkpt lat="44.34851" lon="5.2742">
        <ele>533.67</ele>
        <time>2011-08-19T06:35:33Z</time>
      </trkpt>
      <trkpt lat="44.34857" lon="5.27412">
        <ele>535.11</ele>
        <time>2011-08-19T06:35:38Z</time>
      </trkpt>
      <trkpt lat="44.34856" lon="5.27405">
        <ele>536.07</ele>
        <time>2011-08-19T06:35:42Z</time>
      </trkpt>
      <trkpt lat="44.34838" lon="5.27375">
        <ele>539.92</ele>
        <time>2011-08-19T06:35:59Z</time>
      </trkpt>
      <trkpt lat="44.34829" lon="5.27337">
        <ele>542.32</ele>
        <time>2011-08-19T06:36:16Z</time>
      </trkpt>
      <trkpt lat="44.34817" lon="5.27307">
        <ele>545.2</ele>
        <time>2011-08-19T06:36:31Z</time>
      </trkpt>
      <trkpt lat="44.34809" lon="5.2728">
        <ele>547.61</ele>
        <time>2011-08-19T06:36:44Z</time>
      </trkpt>
      <trkpt lat="44.34801" lon="5.27248">
        <ele>550.49</ele>
        <time>2011-08-19T06:36:59Z</time>
      </trkpt>
      <trkpt lat="44.34793" lon="5.27219">
        <ele>552.9</ele>
        <time>2011-08-19T06:37:13Z</time>
      </trkpt>
      <trkpt lat="44.34789" lon="5.27192">
        <ele>554.82</ele>
        <time>2011-08-19T06:37:25Z</time>
      </trkpt>
      <trkpt lat="44.34788" lon="5.27179">
        <ele>555.78</ele>
        <time>2011-08-19T06:37:31Z</time>
      </trkpt>
      <trkpt lat="44.34784" lon="5.27137">
        <ele>558.18</ele>
        <time>2011-08-19T06:37:49Z</time>
      </trkpt>
      <trkpt lat="44.34784" lon="5.27102">
        <ele>561.07</ele>
        <time>2011-08-19T06:38:05Z</time>
      </trkpt>
      <trkpt lat="44.34788" lon="5.27063">
        <ele>563.95</ele>
        <time>2011-08-19T06:38:22Z</time>
      </trkpt>
      <trkpt lat="44.34792" lon="5.27059">
        <ele>567.32</ele>
        <time>2011-08-19T06:38:32Z</time>
      </trkpt>
      <trkpt lat="44.34792" lon="5.27059">
        <ele>566.83</ele>
        <time>2011-08-19T06:38:33Z</time>
      </trkpt>
      <trkpt lat="44.34792" lon="5.27059">
        <ele>562.03</ele>
        <time>2011-08-19T06:38:35Z</time>
      </trkpt>
      <trkpt lat="44.34792" lon="5.27059">
        <ele>566.35</ele>
        <time>2011-08-19T06:38:38Z</time>
      </trkpt>
      <trkpt lat="44.34792" lon="5.27059">
        <ele>561.07</ele>
        <time>2011-08-19T06:38:42Z</time>
      </trkpt>
      <trkpt lat="44.34792" lon="5.27059">
        <ele>565.87</ele>
        <time>2011-08-19T06:38:43Z</time>
      </trkpt>
      <trkpt lat="44.34792" lon="5.27059">
        <ele>562.51</ele>
        <time>2011-08-19T06:38:49Z</time>
      </trkpt>
      <trkpt lat="44.34792" lon="5.27059">
        <ele>565.87</ele>
        <time>2011-08-19T06:38:55Z</time>
      </trkpt>
      <trkpt lat="44.34792" lon="5.27059">
        <ele>564.43</ele>
        <time>2011-08-19T06:39:00Z</time>
      </trkpt>
      <trkpt lat="44.34792" lon="5.27059">
        <ele>565.87</ele>
        <time>2011-08-19T06:39:07Z</time>
      </trkpt>
      <trkpt lat="44.34792" lon="5.27059">
        <ele>562.99</ele>
        <time>2011-08-19T06:39:08Z</time>
      </trkpt>
      <trkpt lat="44.34792" lon="5.27059">
        <ele>564.43</ele>
        <time>2011-08-19T06:39:09Z</time>
      </trkpt>
      <trkpt lat="44.34792" lon="5.27059">
        <ele>565.87</ele>
        <time>2011-08-19T06:39:12Z</time>
      </trkpt>
      <trkpt lat="44.34792" lon="5.2706">
        <ele>563.95</ele>
        <time>2011-08-19T06:39:48Z</time>
      </trkpt>
      <trkpt lat="44.34792" lon="5.2706">
        <ele>564.91</ele>
        <time>2011-08-19T06:40:01Z</time>
      </trkpt>
      <trkpt lat="44.34794" lon="5.27061">
        <ele>564.91</ele>
        <time>2011-08-19T06:40:16Z</time>
      </trkpt>
      <trkpt lat="44.34797" lon="5.27066">
        <ele>561.07</ele>
        <time>2011-08-19T06:40:29Z</time>
      </trkpt>
      <trkpt lat="44.34797" lon="5.27067">
        <ele>566.83</ele>
        <time>2011-08-19T06:40:30Z</time>
      </trkpt>
      <trkpt lat="44.34798" lon="5.27069">
        <ele>566.35</ele>
        <time>2011-08-19T06:40:43Z</time>
      </trkpt>
      <trkpt lat="44.34815" lon="5.27096">
        <ele>568.28</ele>
        <time>2011-08-19T06:40:57Z</time>
      </trkpt>
      <trkpt lat="44.34843" lon="5.27113">
        <ele>571.16</ele>
        <time>2011-08-19T06:41:13Z</time>
      </trkpt>
      <trkpt lat="44.34872" lon="5.27122">
        <ele>573.56</ele>
        <time>2011-08-19T06:41:28Z</time>
      </trkpt>
      <trkpt lat="44.34904" lon="5.27129">
        <ele>576.45</ele>
        <time>2011-08-19T06:41:44Z</time>
      </trkpt>
      <trkpt lat="44.34932" lon="5.27123">
        <ele>579.81</ele>
        <time>2011-08-19T06:41:59Z</time>
      </trkpt>
      <trkpt lat="44.34947" lon="5.27104">
        <ele>583.18</ele>
        <time>2011-08-19T06:42:12Z</time>
      </trkpt>
      <trkpt lat="44.34959" lon="5.2708">
        <ele>586.54</ele>
        <time>2011-08-19T06:42:26Z</time>
      </trkpt>
      <trkpt lat="44.34959" lon="5.2707">
        <ele>587.5</ele>
        <time>2011-08-19T06:42:30Z</time>
      </trkpt>
      <trkpt lat="44.34954" lon="5.27037">
        <ele>590.39</ele>
        <time>2011-08-19T06:42:45Z</time>
      </trkpt>
      <trkpt lat="44.34955" lon="5.27011">
        <ele>592.79</ele>
        <time>2011-08-19T06:42:57Z</time>
      </trkpt>
      <trkpt lat="44.34959" lon="5.26977">
        <ele>595.19</ele>
        <time>2011-08-19T06:43:13Z</time>
      </trkpt>
      <trkpt lat="44.34964" lon="5.26942">
        <ele>597.12</ele>
        <time>2011-08-19T06:43:28Z</time>
      </trkpt>
      <trkpt lat="44.34967" lon="5.26905">
        <ele>598.56</ele>
        <time>2011-08-19T06:43:41Z</time>
      </trkpt>
      <trkpt lat="44.34977" lon="5.26865">
        <ele>600.48</ele>
        <time>2011-08-19T06:43:57Z</time>
      </trkpt>
      <trkpt lat="44.34989" lon="5.26829">
        <ele>601.44</ele>
        <time>2011-08-19T06:44:09Z</time>
      </trkpt>
      <trkpt lat="44.35002" lon="5.2678">
        <ele>603.36</ele>
        <time>2011-08-19T06:44:24Z</time>
      </trkpt>
      <trkpt lat="44.35013" lon="5.26747">
        <ele>606.73</ele>
        <time>2011-08-19T06:44:38Z</time>
      </trkpt>
      <trkpt lat="44.35016" lon="5.26736">
        <ele>608.17</ele>
        <time>2011-08-19T06:44:49Z</time>
      </trkpt>
      <trkpt lat="44.35016" lon="5.26736">
        <ele>612.98</ele>
        <time>2011-08-19T06:44:52Z</time>
      </trkpt>
      <trkpt lat="44.35016" lon="5.26736">
        <ele>612.98</ele>
        <time>2011-08-19T06:44:53Z</time>
      </trkpt>
      <trkpt lat="44.35016" lon="5.26736">
        <ele>608.65</ele>
        <time>2011-08-19T06:44:54Z</time>
      </trkpt>
      <trkpt lat="44.35016" lon="5.26736">
        <ele>608.17</ele>
        <time>2011-08-19T06:44:56Z</time>
      </trkpt>
      <trkpt lat="44.35016" lon="5.26736">
        <ele>607.69</ele>
        <time>2011-08-19T06:45:14Z</time>
      </trkpt>
      <trkpt lat="44.35016" lon="5.26736">
        <ele>608.17</ele>
        <time>2011-08-19T06:45:38Z</time>
      </trkpt>
      <trkpt lat="44.3502" lon="5.26725">
        <ele>609.61</ele>
        <time>2011-08-19T06:46:01Z</time>
      </trkpt>
      <trkpt lat="44.35021" lon="5.26718">
        <ele>610.57</ele>
        <time>2011-08-19T06:46:05Z</time>
      </trkpt>
      <trkpt lat="44.3502" lon="5.26702">
        <ele>612.98</ele>
        <time>2011-08-19T06:46:14Z</time>
      </trkpt>
      <trkpt lat="44.35018" lon="5.26676">
        <ele>616.34</ele>
        <time>2011-08-19T06:46:30Z</time>
      </trkpt>
      <trkpt lat="44.35024" lon="5.26656">
        <ele>619.23</ele>
        <time>2011-08-19T06:46:44Z</time>
      </trkpt>
      <trkpt lat="44.35024" lon="5.26651">
        <ele>619.71</ele>
        <time>2011-08-19T06:46:47Z</time>
      </trkpt>
      <trkpt lat="44.35025" lon="5.26642">
        <ele>621.15</ele>
        <time>2011-08-19T06:46:52Z</time>
      </trkpt>
      <trkpt lat="44.35023" lon="5.2663">
        <ele>622.59</ele>
        <time>2011-08-19T06:46:59Z</time>
      </trkpt>
      <trkpt lat="44.3502" lon="5.26607">
        <ele>625.96</ele>
        <time>2011-08-19T06:47:14Z</time>
      </trkpt>
      <trkpt lat="44.35017" lon="5.26587">
        <ele>628.84</ele>
        <time>2011-08-19T06:47:28Z</time>
      </trkpt>
      <trkpt lat="44.35017" lon="5.26572">
        <ele>631.24</ele>
        <time>2011-08-19T06:47:42Z</time>
      </trkpt>
      <trkpt lat="44.35017" lon="5.26572">
        <ele>631.24</ele>
        <time>2011-08-19T06:48:05Z</time>
      </trkpt>
      <trkpt lat="44.35017" lon="5.26572">
        <ele>631.24</ele>
        <time>2011-08-19T06:48:26Z</time>
      </trkpt>
      <trkpt lat="44.35017" lon="5.26568">
        <ele>631.72</ele>
        <time>2011-08-19T06:48:32Z</time>
      </trkpt>
      <trkpt lat="44.35011" lon="5.26544">
        <ele>635.57</ele>
        <time>2011-08-19T06:48:47Z</time>
      </trkpt>
      <trkpt lat="44.35008" lon="5.26524">
        <ele>638.45</ele>
        <time>2011-08-19T06:49:01Z</time>
      </trkpt>
      <trkpt lat="44.35005" lon="5.26517">
        <ele>639.41</ele>
        <time>2011-08-19T06:49:06Z</time>
      </trkpt>
      <trkpt lat="44.35004" lon="5.26508">
        <ele>640.86</ele>
        <time>2011-08-19T06:49:12Z</time>
      </trkpt>
      <trkpt lat="44.35001" lon="5.26485">
        <ele>644.22</ele>
        <time>2011-08-19T06:49:26Z</time>
      </trkpt>
      <trkpt lat="44.34998" lon="5.2647">
        <ele>646.14</ele>
        <time>2011-08-19T06:49:36Z</time>
      </trkpt>
      <trkpt lat="44.34997" lon="5.26464">
        <ele>645.18</ele>
        <time>2011-08-19T06:49:50Z</time>
      </trkpt>
      <trkpt lat="44.34997" lon="5.26464">
        <ele>646.62</ele>
        <time>2011-08-19T06:49:53Z</time>
      </trkpt>
      <trkpt lat="44.34997" lon="5.26464">
        <ele>650.47</ele>
        <time>2011-08-19T06:49:56Z</time>
      </trkpt>
      <trkpt lat="44.34997" lon="5.26464">
        <ele>648.07</ele>
        <time>2011-08-19T06:49:57Z</time>
      </trkpt>
      <trkpt lat="44.34997" lon="5.26464">
        <ele>647.1</ele>
        <time>2011-08-19T06:50:10Z</time>
      </trkpt>
      <trkpt lat="44.34997" lon="5.26464">
        <ele>643.74</ele>
        <time>2011-08-19T06:50:18Z</time>
      </trkpt>
      <trkpt lat="44.34997" lon="5.26464">
        <ele>648.07</ele>
        <time>2011-08-19T06:50:19Z</time>
      </trkpt>
      <trkpt lat="44.34997" lon="5.26464">
        <ele>644.22</ele>
        <time>2011-08-19T06:50:21Z</time>
      </trkpt>
      <trkpt lat="44.34997" lon="5.26464">
        <ele>648.07</ele>
        <time>2011-08-19T06:50:22Z</time>
      </trkpt>
      <trkpt lat="44.34997" lon="5.26464">
        <ele>646.62</ele>
        <time>2011-08-19T06:50:41Z</time>
      </trkpt>
      <trkpt lat="44.34997" lon="5.26464">
        <ele>648.07</ele>
        <time>2011-08-19T06:51:02Z</time>
      </trkpt>
      <trkpt lat="44.34998" lon="5.26461">
        <ele>647.59</ele>
        <time>2011-08-19T06:51:08Z</time>
      </trkpt>
      <trkpt lat="44.34995" lon="5.2644">
        <ele>650.95</ele>
        <time>2011-08-19T06:51:21Z</time>
      </trkpt>
      <trkpt lat="44.34993" lon="5.26432">
        <ele>651.43</ele>
        <time>2011-08-19T06:51:34Z</time>
      </trkpt>
      <trkpt lat="44.3499" lon="5.26401">
        <ele>655.28</ele>
        <time>2011-08-19T06:51:50Z</time>
      </trkpt>
      <trkpt lat="44.34985" lon="5.26378">
        <ele>658.16</ele>
        <time>2011-08-19T06:52:03Z</time>
      </trkpt>
      <trkpt lat="44.34985" lon="5.26376">
        <ele>658.64</ele>
        <time>2011-08-19T06:52:04Z</time>
      </trkpt>
      <trkpt lat="44.34984" lon="5.2637">
        <ele>659.12</ele>
        <time>2011-08-19T06:52:08Z</time>
      </trkpt>
      <trkpt lat="44.34982" lon="5.26356">
        <ele>660.08</ele>
        <time>2011-08-19T06:52:15Z</time>
      </trkpt>
      <trkpt lat="44.34983" lon="5.26348">
        <ele>661.04</ele>
        <time>2011-08-19T06:52:19Z</time>
      </trkpt>
      <trkpt lat="44.34988" lon="5.26324">
        <ele>663.45</ele>
        <time>2011-08-19T06:52:33Z</time>
      </trkpt>
      <trkpt lat="44.34989" lon="5.26292">
        <ele>666.33</ele>
        <time>2011-08-19T06:52:49Z</time>
      </trkpt>
      <trkpt lat="44.34991" lon="5.26258">
        <ele>669.22</ele>
        <time>2011-08-19T06:53:07Z</time>
      </trkpt>
      <trkpt lat="44.34993" lon="5.26251">
        <ele>670.18</ele>
        <time>2011-08-19T06:53:11Z</time>
      </trkpt>
      <trkpt lat="44.3499" lon="5.26229">
        <ele>672.1</ele>
        <time>2011-08-19T06:53:22Z</time>
      </trkpt>
      <trkpt lat="44.34991" lon="5.26192">
        <ele>674.98</ele>
        <time>2011-08-19T06:53:40Z</time>
      </trkpt>
      <trkpt lat="44.3499" lon="5.26156">
        <ele>675.94</ele>
        <time>2011-08-19T06:53:53Z</time>
      </trkpt>
      <trkpt lat="44.34989" lon="5.2615">
        <ele>676.42</ele>
        <time>2011-08-19T06:53:55Z</time>
      </trkpt>
      <trkpt lat="44.34989" lon="5.26148">
        <ele>672.58</ele>
        <time>2011-08-19T06:54:01Z</time>
      </trkpt>
      <trkpt lat="44.34989" lon="5.26148">
        <ele>672.1</ele>
        <time>2011-08-19T06:54:02Z</time>
      </trkpt>
      <trkpt lat="44.34989" lon="5.26148">
        <ele>676.91</ele>
        <time>2011-08-19T06:54:03Z</time>
      </trkpt>
      <trkpt lat="44.34989" lon="5.26148">
        <ele>673.54</ele>
        <time>2011-08-19T06:54:04Z</time>
      </trkpt>
      <trkpt lat="44.34989" lon="5.26148">
        <ele>679.79</ele>
        <time>2011-08-19T06:54:06Z</time>
      </trkpt>
      <trkpt lat="44.34988" lon="5.26147">
        <ele>676.91</ele>
        <time>2011-08-19T06:54:19Z</time>
      </trkpt>
      <trkpt lat="44.34979" lon="5.26139">
        <ele>675.94</ele>
        <time>2011-08-19T06:54:24Z</time>
      </trkpt>
      <trkpt lat="44.34972" lon="5.26135">
        <ele>674.98</ele>
        <time>2011-08-19T06:54:26Z</time>
      </trkpt>
      <trkpt lat="44.34928" lon="5.26115">
        <ele>671.62</ele>
        <time>2011-08-19T06:54:39Z</time>
      </trkpt>
      <trkpt lat="44.34898" lon="5.26101">
        <ele>672.1</ele>
        <time>2011-08-19T06:54:49Z</time>
      </trkpt>
      <trkpt lat="44.34868" lon="5.26105">
        <ele>673.54</ele>
        <time>2011-08-19T06:55:01Z</time>
      </trkpt>
      <trkpt lat="44.34867" lon="5.26105">
        <ele>677.87</ele>
        <time>2011-08-19T06:55:06Z</time>
      </trkpt>
      <trkpt lat="44.34867" lon="5.26105">
        <ele>673.54</ele>
        <time>2011-08-19T06:55:07Z</time>
      </trkpt>
      <trkpt lat="44.34866" lon="5.26106">
        <ele>673.06</ele>
        <time>2011-08-19T06:55:09Z</time>
      </trkpt>
      <trkpt lat="44.34848" lon="5.26121">
        <ele>671.14</ele>
        <time>2011-08-19T06:55:16Z</time>
      </trkpt>
      <trkpt lat="44.34828" lon="5.26139">
        <ele>669.22</ele>
        <time>2011-08-19T06:55:22Z</time>
      </trkpt>
      <trkpt lat="44.34823" lon="5.2614">
        <ele>669.22</ele>
        <time>2011-08-19T06:55:23Z</time>
      </trkpt>
      <trkpt lat="44.34819" lon="5.26142">
        <ele>669.22</ele>
        <time>2011-08-19T06:55:24Z</time>
      </trkpt>
      <trkpt lat="44.34794" lon="5.26162">
        <ele>665.37</ele>
        <time>2011-08-19T06:55:32Z</time>
      </trkpt>
      <trkpt lat="44.34784" lon="5.26181">
        <ele>662.01</ele>
        <time>2011-08-19T06:55:37Z</time>
      </trkpt>
      <trkpt lat="44.34781" lon="5.26184">
        <ele>661.52</ele>
        <time>2011-08-19T06:55:38Z</time>
      </trkpt>
      <trkpt lat="44.34764" lon="5.26186">
        <ele>658.16</ele>
        <time>2011-08-19T06:55:43Z</time>
      </trkpt>
      <trkpt lat="44.34754" lon="5.26174">
        <ele>654.8</ele>
        <time>2011-08-19T06:55:47Z</time>
      </trkpt>
      <trkpt lat="44.34749" lon="5.26158">
        <ele>652.39</ele>
        <time>2011-08-19T06:55:51Z</time>
      </trkpt>
      <trkpt lat="44.34749" lon="5.26095">
        <ele>649.03</ele>
        <time>2011-08-19T06:56:03Z</time>
      </trkpt>
      <trkpt lat="44.3475" lon="5.26085">
        <ele>648.07</ele>
        <time>2011-08-19T06:56:05Z</time>
      </trkpt>
      <trkpt lat="44.3475" lon="5.26073">
        <ele>646.62</ele>
        <time>2011-08-19T06:56:08Z</time>
      </trkpt>
      <trkpt lat="44.34745" lon="5.26026">
        <ele>643.26</ele>
        <time>2011-08-19T06:56:18Z</time>
      </trkpt>
      <trkpt lat="44.34743" lon="5.26001">
        <ele>639.41</ele>
        <time>2011-08-19T06:56:23Z</time>
      </trkpt>
      <trkpt lat="44.34738" lon="5.25992">
        <ele>637.49</ele>
        <time>2011-08-19T06:56:26Z</time>
      </trkpt>
      <trkpt lat="44.34736" lon="5.25991">
        <ele>637.01</ele>
        <time>2011-08-19T06:56:27Z</time>
      </trkpt>
      <trkpt lat="44.34731" lon="5.25993">
        <ele>636.05</ele>
        <time>2011-08-19T06:56:29Z</time>
      </trkpt>
      <trkpt lat="44.34719" lon="5.26006">
        <ele>633.17</ele>
        <time>2011-08-19T06:56:37Z</time>
      </trkpt>
      <trkpt lat="44.34719" lon="5.26006">
        <ele>628.84</ele>
        <time>2011-08-19T06:56:41Z</time>
      </trkpt>
      <trkpt lat="44.34719" lon="5.26006">
        <ele>631.24</ele>
        <time>2011-08-19T06:56:42Z</time>
      </trkpt>
      <trkpt lat="44.34719" lon="5.26006">
        <ele>634.61</ele>
        <time>2011-08-19T06:56:43Z</time>
      </trkpt>
      <trkpt lat="44.34719" lon="5.26006">
        <ele>634.13</ele>
        <time>2011-08-19T06:56:44Z</time>
      </trkpt>
      <trkpt lat="44.34717" lon="5.26006">
        <ele>633.17</ele>
        <time>2011-08-19T06:56:55Z</time>
      </trkpt>
      <trkpt lat="44.347" lon="5.26019">
        <ele>629.8</ele>
        <time>2011-08-19T06:57:02Z</time>
      </trkpt>
      <trkpt lat="44.34691" lon="5.26013">
        <ele>626.44</ele>
        <time>2011-08-19T06:57:08Z</time>
      </trkpt>
      <trkpt lat="44.34693" lon="5.26006">
        <ele>626.44</ele>
        <time>2011-08-19T06:57:17Z</time>
      </trkpt>
      <trkpt lat="44.34696" lon="5.2599">
        <ele>627.4</ele>
        <time>2011-08-19T06:57:25Z</time>
      </trkpt>
      <trkpt lat="44.34697" lon="5.25977">
        <ele>628.84</ele>
        <time>2011-08-19T06:57:30Z</time>
      </trkpt>
      <trkpt lat="44.34696" lon="5.25973">
        <ele>628.84</ele>
        <time>2011-08-19T06:57:32Z</time>
      </trkpt>
      <trkpt lat="44.34694" lon="5.25964">
        <ele>630.76</ele>
        <time>2011-08-19T06:57:44Z</time>
      </trkpt>
      <trkpt lat="44.34694" lon="5.25963">
        <ele>630.28</ele>
        <time>2011-08-19T06:57:54Z</time>
      </trkpt>
      <trkpt lat="44.34691" lon="5.25951">
        <ele>631.72</ele>
        <time>2011-08-19T06:58:04Z</time>
      </trkpt>
      <trkpt lat="44.34689" lon="5.25944">
        <ele>632.68</ele>
        <time>2011-08-19T06:58:18Z</time>
      </trkpt>
      <trkpt lat="44.34688" lon="5.25942">
        <ele>633.17</ele>
        <time>2011-08-19T06:58:24Z</time>
      </trkpt>
      <trkpt lat="44.34687" lon="5.25935">
        <ele>634.61</ele>
        <time>2011-08-19T06:58:28Z</time>
      </trkpt>
      <trkpt lat="44.34687" lon="5.25929">
        <ele>635.57</ele>
        <time>2011-08-19T06:58:40Z</time>
      </trkpt>
      <trkpt lat="44.34688" lon="5.25924">
        <ele>636.05</ele>
        <time>2011-08-19T06:58:43Z</time>
      </trkpt>
      <trkpt lat="44.3469" lon="5.25917">
        <ele>637.49</ele>
        <time>2011-08-19T06:58:54Z</time>
      </trkpt>
      <trkpt lat="44.34691" lon="5.25912">
        <ele>637.97</ele>
        <time>2011-08-19T06:58:57Z</time>
      </trkpt>
      <trkpt lat="44.34694" lon="5.25905">
        <ele>639.41</ele>
        <time>2011-08-19T06:59:12Z</time>
      </trkpt>
      <trkpt lat="44.34694" lon="5.25905">
        <ele>639.41</ele>
        <time>2011-08-19T06:59:13Z</time>
      </trkpt>
      <trkpt lat="44.34695" lon="5.2589">
        <ele>639.89</ele>
        <time>2011-08-19T06:59:19Z</time>
      </trkpt>
      <trkpt lat="44.34701" lon="5.25875">
        <ele>638.93</ele>
        <time>2011-08-19T06:59:24Z</time>
      </trkpt>
      <trkpt lat="44.34715" lon="5.25854">
        <ele>642.3</ele>
        <time>2011-08-19T06:59:34Z</time>
      </trkpt>
      <trkpt lat="44.34718" lon="5.25835">
        <ele>644.22</ele>
        <time>2011-08-19T06:59:46Z</time>
      </trkpt>
      <trkpt lat="44.34723" lon="5.25827">
        <ele>646.62</ele>
        <time>2011-08-19T06:59:58Z</time>
      </trkpt>
      <trkpt lat="44.34725" lon="5.25823">
        <ele>648.07</ele>
        <time>2011-08-19T07:00:02Z</time>
      </trkpt>
      <trkpt lat="44.34737" lon="5.25813">
        <ele>650.95</ele>
        <time>2011-08-19T07:00:17Z</time>
      </trkpt>
      <trkpt lat="44.34745" lon="5.25805">
        <ele>652.39</ele>
        <time>2011-08-19T07:00:31Z</time>
      </trkpt>
      <trkpt lat="44.34747" lon="5.25804">
        <ele>652.87</ele>
        <time>2011-08-19T07:00:46Z</time>
      </trkpt>
      <trkpt lat="44.34776" lon="5.2578">
        <ele>652.87</ele>
        <time>2011-08-19T07:01:02Z</time>
      </trkpt>
      <trkpt lat="44.34807" lon="5.25745">
        <ele>650.95</ele>
        <time>2011-08-19T07:01:14Z</time>
      </trkpt>
      <trkpt lat="44.34832" lon="5.25713">
        <ele>650.95</ele>
        <time>2011-08-19T07:01:26Z</time>
      </trkpt>
      <trkpt lat="44.3484" lon="5.25708">
        <ele>649.99</ele>
        <time>2011-08-19T07:01:29Z</time>
      </trkpt>
      <trkpt lat="44.34855" lon="5.25697">
        <ele>649.99</ele>
        <time>2011-08-19T07:01:36Z</time>
      </trkpt>
      <trkpt lat="44.34872" lon="5.25655">
        <ele>649.99</ele>
        <time>2011-08-19T07:01:48Z</time>
      </trkpt>
      <trkpt lat="44.34873" lon="5.25652">
        <ele>650.47</ele>
        <time>2011-08-19T07:01:49Z</time>
      </trkpt>
      <trkpt lat="44.3486" lon="5.25615">
        <ele>649.03</ele>
        <time>2011-08-19T07:02:01Z</time>
      </trkpt>
      <trkpt lat="44.3486" lon="5.25589">
        <ele>649.51</ele>
        <time>2011-08-19T07:02:12Z</time>
      </trkpt>
      <trkpt lat="44.3486" lon="5.2558">
        <ele>649.99</ele>
        <time>2011-08-19T07:02:19Z</time>
      </trkpt>
      <trkpt lat="44.34859" lon="5.25535">
        <ele>651.91</ele>
        <time>2011-08-19T07:02:34Z</time>
      </trkpt>
      <trkpt lat="44.34849" lon="5.25497">
        <ele>651.91</ele>
        <time>2011-08-19T07:02:43Z</time>
      </trkpt>
      <trkpt lat="44.34847" lon="5.25482">
        <ele>652.39</ele>
        <time>2011-08-19T07:02:50Z</time>
      </trkpt>
      <trkpt lat="44.34849" lon="5.25478">
        <ele>652.87</ele>
        <time>2011-08-19T07:02:54Z</time>
      </trkpt>
      <trkpt lat="44.34848" lon="5.25465">
        <ele>651.91</ele>
        <time>2011-08-19T07:02:58Z</time>
      </trkpt>
      <trkpt lat="44.34846" lon="5.25428">
        <ele>650.95</ele>
        <time>2011-08-19T07:03:07Z</time>
      </trkpt>
      <trkpt lat="44.34871" lon="5.25397">
        <ele>650.47</ele>
        <time>2011-08-19T07:03:18Z</time>
      </trkpt>
      <trkpt lat="44.34902" lon="5.25375">
        <ele>650.47</ele>
        <time>2011-08-19T07:03:29Z</time>
      </trkpt>
      <trkpt lat="44.3493" lon="5.25359">
        <ele>649.51</ele>
        <time>2011-08-19T07:03:38Z</time>
      </trkpt>
      <trkpt lat="44.34968" lon="5.25349">
        <ele>650.47</ele>
        <time>2011-08-19T07:03:51Z</time>
      </trkpt>
      <trkpt lat="44.34988" lon="5.25336">
        <ele>649.51</ele>
        <time>2011-08-19T07:03:59Z</time>
      </trkpt>
      <trkpt lat="44.35" lon="5.2532">
        <ele>646.14</ele>
        <time>2011-08-19T07:04:05Z</time>
      </trkpt>
      <trkpt lat="44.35004" lon="5.25314">
        <ele>645.66</ele>
        <time>2011-08-19T07:04:07Z</time>
      </trkpt>
      <trkpt lat="44.35024" lon="5.25295">
        <ele>644.22</ele>
        <time>2011-08-19T07:04:16Z</time>
      </trkpt>
      <trkpt lat="44.35049" lon="5.25272">
        <ele>644.22</ele>
        <time>2011-08-19T07:04:25Z</time>
      </trkpt>
      <trkpt lat="44.35073" lon="5.25246">
        <ele>642.78</ele>
        <time>2011-08-19T07:04:36Z</time>
      </trkpt>
      <trkpt lat="44.35085" lon="5.25212">
        <ele>640.86</ele>
        <time>2011-08-19T07:04:44Z</time>
      </trkpt>
      <trkpt lat="44.3509" lon="5.25197">
        <ele>639.89</ele>
        <time>2011-08-19T07:04:47Z</time>
      </trkpt>
      <trkpt lat="44.35109" lon="5.25165">
        <ele>641.34</ele>
        <time>2011-08-19T07:04:57Z</time>
      </trkpt>
      <trkpt lat="44.35114" lon="5.2514">
        <ele>640.38</ele>
        <time>2011-08-19T07:05:05Z</time>
      </trkpt>
      <trkpt lat="44.35115" lon="5.25138">
        <ele>640.86</ele>
        <time>2011-08-19T07:05:06Z</time>
      </trkpt>
      <trkpt lat="44.35116" lon="5.25137">
        <ele>640.38</ele>
        <time>2011-08-19T07:05:07Z</time>
      </trkpt>
      <trkpt lat="44.3512" lon="5.25129">
        <ele>640.38</ele>
        <time>2011-08-19T07:05:09Z</time>
      </trkpt>
      <trkpt lat="44.35122" lon="5.25126">
        <ele>639.89</ele>
        <time>2011-08-19T07:05:10Z</time>
      </trkpt>
      <trkpt lat="44.35124" lon="5.25122">
        <ele>639.89</ele>
        <time>2011-08-19T07:05:11Z</time>
      </trkpt>
      <trkpt lat="44.35125" lon="5.25117">
        <ele>639.89</ele>
        <time>2011-08-19T07:05:12Z</time>
      </trkpt>
      <trkpt lat="44.35126" lon="5.25113">
        <ele>639.41</ele>
        <time>2011-08-19T07:05:13Z</time>
      </trkpt>
      <trkpt lat="44.35126" lon="5.2511">
        <ele>639.41</ele>
        <time>2011-08-19T07:05:14Z</time>
      </trkpt>
      <trkpt lat="44.35126" lon="5.25109">
        <ele>639.41</ele>
        <time>2011-08-19T07:05:27Z</time>
      </trkpt>
      <trkpt lat="44.35126" lon="5.25109">
        <ele>639.89</ele>
        <time>2011-08-19T07:05:35Z</time>
      </trkpt>
      <trkpt lat="44.35125" lon="5.25113">
        <ele>639.89</ele>
        <time>2011-08-19T07:05:38Z</time>
      </trkpt>
      <trkpt lat="44.35125" lon="5.25115">
        <ele>639.89</ele>
        <time>2011-08-19T07:05:39Z</time>
      </trkpt>
      <trkpt lat="44.35124" lon="5.25117">
        <ele>639.89</ele>
        <time>2011-08-19T07:05:40Z</time>
      </trkpt>
      <trkpt lat="44.35122" lon="5.25126">
        <ele>640.38</ele>
        <time>2011-08-19T07:05:45Z</time>
      </trkpt>
      <trkpt lat="44.35119" lon="5.25128">
        <ele>640.86</ele>
        <time>2011-08-19T07:05:53Z</time>
      </trkpt>
      <trkpt lat="44.35114" lon="5.25135">
        <ele>640.38</ele>
        <time>2011-08-19T07:05:57Z</time>
      </trkpt>
      <trkpt lat="44.35112" lon="5.25142">
        <ele>641.34</ele>
        <time>2011-08-19T07:06:01Z</time>
      </trkpt>
      <trkpt lat="44.35111" lon="5.25143">
        <ele>641.34</ele>
        <time>2011-08-19T07:06:02Z</time>
      </trkpt>
      <trkpt lat="44.35111" lon="5.25145">
        <ele>640.86</ele>
        <time>2011-08-19T07:06:03Z</time>
      </trkpt>
      <trkpt lat="44.3511" lon="5.25146">
        <ele>641.34</ele>
        <time>2011-08-19T07:06:04Z</time>
      </trkpt>
      <trkpt lat="44.3511" lon="5.25149">
        <ele>641.34</ele>
        <time>2011-08-19T07:06:11Z</time>
      </trkpt>
      <trkpt lat="44.3511" lon="5.2515">
        <ele>641.34</ele>
        <time>2011-08-19T07:06:12Z</time>
      </trkpt>
      <trkpt lat="44.3511" lon="5.25152">
        <ele>641.82</ele>
        <time>2011-08-19T07:06:13Z</time>
      </trkpt>
      <trkpt lat="44.3511" lon="5.25154">
        <ele>641.82</ele>
        <time>2011-08-19T07:06:14Z</time>
      </trkpt>
      <trkpt lat="44.35109" lon="5.25155">
        <ele>642.3</ele>
        <time>2011-08-19T07:06:15Z</time>
      </trkpt>
      <trkpt lat="44.35109" lon="5.25169">
        <ele>642.78</ele>
        <time>2011-08-19T07:06:23Z</time>
      </trkpt>
      <trkpt lat="44.35109" lon="5.25171">
        <ele>642.78</ele>
        <time>2011-08-19T07:06:24Z</time>
      </trkpt>
      <trkpt lat="44.35108" lon="5.25173">
        <ele>646.62</ele>
        <time>2011-08-19T07:06:43Z</time>
      </trkpt>
      <trkpt lat="44.35108" lon="5.25173">
        <ele>643.26</ele>
        <time>2011-08-19T07:06:44Z</time>
      </trkpt>
      <trkpt lat="44.35103" lon="5.25199">
        <ele>644.7</ele>
        <time>2011-08-19T07:06:55Z</time>
      </trkpt>
      <trkpt lat="44.35103" lon="5.25213">
        <ele>647.1</ele>
        <time>2011-08-19T07:07:06Z</time>
      </trkpt>
      <trkpt lat="44.35102" lon="5.25219">
        <ele>647.59</ele>
        <time>2011-08-19T07:07:13Z</time>
      </trkpt>
      <trkpt lat="44.35097" lon="5.25239">
        <ele>649.99</ele>
        <time>2011-08-19T07:07:25Z</time>
      </trkpt>
      <trkpt lat="44.35096" lon="5.25252">
        <ele>652.87</ele>
        <time>2011-08-19T07:07:36Z</time>
      </trkpt>
      <trkpt lat="44.35096" lon="5.25261">
        <ele>655.28</ele>
        <time>2011-08-19T07:07:49Z</time>
      </trkpt>
      <trkpt lat="44.35096" lon="5.25267">
        <ele>657.2</ele>
        <time>2011-08-19T07:08:02Z</time>
      </trkpt>
      <trkpt lat="44.35096" lon="5.25276">
        <ele>658.64</ele>
        <time>2011-08-19T07:08:12Z</time>
      </trkpt>
      <trkpt lat="44.35097" lon="5.25279">
        <ele>659.6</ele>
        <time>2011-08-19T07:08:15Z</time>
      </trkpt>
      <trkpt lat="44.35097" lon="5.25287">
        <ele>662.49</ele>
        <time>2011-08-19T07:08:27Z</time>
      </trkpt>
      <trkpt lat="44.35097" lon="5.25294">
        <ele>665.37</ele>
        <time>2011-08-19T07:08:37Z</time>
      </trkpt>
      <trkpt lat="44.35096" lon="5.253">
        <ele>666.33</ele>
        <time>2011-08-19T07:08:47Z</time>
      </trkpt>
      <trkpt lat="44.35095" lon="5.25301">
        <ele>666.33</ele>
        <time>2011-08-19T07:08:48Z</time>
      </trkpt>
      <trkpt lat="44.35093" lon="5.25305">
        <ele>666.81</ele>
        <time>2011-08-19T07:08:51Z</time>
      </trkpt>
      <trkpt lat="44.3509" lon="5.25313">
        <ele>668.73</ele>
        <time>2011-08-19T07:08:57Z</time>
      </trkpt>
      <trkpt lat="44.35088" lon="5.2532">
        <ele>670.66</ele>
        <time>2011-08-19T07:09:03Z</time>
      </trkpt>
      <trkpt lat="44.35088" lon="5.2532">
        <ele>669.7</ele>
        <time>2011-08-19T07:09:15Z</time>
      </trkpt>
      <trkpt lat="44.35086" lon="5.25324">
        <ele>669.7</ele>
        <time>2011-08-19T07:09:27Z</time>
      </trkpt>
      <trkpt lat="44.35084" lon="5.25326">
        <ele>670.18</ele>
        <time>2011-08-19T07:09:28Z</time>
      </trkpt>
      <trkpt lat="44.35083" lon="5.25327">
        <ele>670.18</ele>
        <time>2011-08-19T07:09:29Z</time>
      </trkpt>
      <trkpt lat="44.35082" lon="5.25329">
        <ele>670.18</ele>
        <time>2011-08-19T07:09:30Z</time>
      </trkpt>
      <trkpt lat="44.35081" lon="5.25332">
        <ele>670.66</ele>
        <time>2011-08-19T07:09:31Z</time>
      </trkpt>
      <trkpt lat="44.35077" lon="5.25341">
        <ele>672.1</ele>
        <time>2011-08-19T07:09:36Z</time>
      </trkpt>
      <trkpt lat="44.35076" lon="5.25343">
        <ele>672.1</ele>
        <time>2011-08-19T07:09:37Z</time>
      </trkpt>
      <trkpt lat="44.35077" lon="5.25349">
        <ele>674.5</ele>
        <time>2011-08-19T07:09:47Z</time>
      </trkpt>
      <trkpt lat="44.35079" lon="5.25348">
        <ele>674.5</ele>
        <time>2011-08-19T07:09:49Z</time>
      </trkpt>
      <trkpt lat="44.35089" lon="5.25346">
        <ele>677.39</ele>
        <time>2011-08-19T07:10:04Z</time>
      </trkpt>
      <trkpt lat="44.35093" lon="5.25346">
        <ele>678.35</ele>
        <time>2011-08-19T07:10:28Z</time>
      </trkpt>
      <trkpt lat="44.35098" lon="5.25345">
        <ele>680.27</ele>
        <time>2011-08-19T07:10:41Z</time>
      </trkpt>
      <trkpt lat="44.35098" lon="5.25344">
        <ele>680.27</ele>
        <time>2011-08-19T07:11:05Z</time>
      </trkpt>
      <trkpt lat="44.35106" lon="5.25348">
        <ele>683.63</ele>
        <time>2011-08-19T07:11:17Z</time>
      </trkpt>
      <trkpt lat="44.35113" lon="5.25352">
        <ele>686.52</ele>
        <time>2011-08-19T07:11:27Z</time>
      </trkpt>
      <trkpt lat="44.35114" lon="5.25363">
        <ele>689.88</ele>
        <time>2011-08-19T07:11:40Z</time>
      </trkpt>
      <trkpt lat="44.35115" lon="5.25366">
        <ele>690.84</ele>
        <time>2011-08-19T07:11:56Z</time>
      </trkpt>
      <trkpt lat="44.35121" lon="5.25369">
        <ele>694.21</ele>
        <time>2011-08-19T07:12:09Z</time>
      </trkpt>
      <trkpt lat="44.35123" lon="5.25372">
        <ele>697.09</ele>
        <time>2011-08-19T07:12:21Z</time>
      </trkpt>
      <trkpt lat="44.35123" lon="5.25372">
        <ele>696.13</ele>
        <time>2011-08-19T07:12:38Z</time>
      </trkpt>
      <trkpt lat="44.3513" lon="5.25375">
        <ele>699.98</ele>
        <time>2011-08-19T07:12:51Z</time>
      </trkpt>
      <trkpt lat="44.35135" lon="5.25376">
        <ele>702.86</ele>
        <time>2011-08-19T07:13:01Z</time>
      </trkpt>
      <trkpt lat="44.35139" lon="5.25376">
        <ele>703.82</ele>
        <time>2011-08-19T07:13:12Z</time>
      </trkpt>
      <trkpt lat="44.35139" lon="5.25376">
        <ele>703.34</ele>
        <time>2011-08-19T07:13:31Z</time>
      </trkpt>
      <trkpt lat="44.35143" lon="5.25371">
        <ele>703.34</ele>
        <time>2011-08-19T07:13:44Z</time>
      </trkpt>
      <trkpt lat="44.3515" lon="5.25366">
        <ele>704.78</ele>
        <time>2011-08-19T07:13:55Z</time>
      </trkpt>
      <trkpt lat="44.35151" lon="5.25365">
        <ele>705.75</ele>
        <time>2011-08-19T07:13:57Z</time>
      </trkpt>
      <trkpt lat="44.35163" lon="5.25359">
        <ele>709.11</ele>
        <time>2011-08-19T07:14:11Z</time>
      </trkpt>
      <trkpt lat="44.35165" lon="5.25358">
        <ele>710.07</ele>
        <time>2011-08-19T07:14:14Z</time>
      </trkpt>
      <trkpt lat="44.35174" lon="5.25355">
        <ele>711.99</ele>
        <time>2011-08-19T07:14:28Z</time>
      </trkpt>
      <trkpt lat="44.35174" lon="5.25356">
        <ele>711.03</ele>
        <time>2011-08-19T07:14:43Z</time>
      </trkpt>
      <trkpt lat="44.35174" lon="5.25356">
        <ele>711.03</ele>
        <time>2011-08-19T07:15:19Z</time>
      </trkpt>
      <trkpt lat="44.35174" lon="5.25356">
        <ele>711.51</ele>
        <time>2011-08-19T07:15:54Z</time>
      </trkpt>
      <trkpt lat="44.35174" lon="5.25356">
        <ele>711.99</ele>
        <time>2011-08-19T07:16:17Z</time>
      </trkpt>
      <trkpt lat="44.35175" lon="5.25355">
        <ele>713.44</ele>
        <time>2011-08-19T07:16:40Z</time>
      </trkpt>
      <trkpt lat="44.35175" lon="5.25355">
        <ele>709.59</ele>
        <time>2011-08-19T07:16:42Z</time>
      </trkpt>
      <trkpt lat="44.35175" lon="5.25355">
        <ele>713.92</ele>
        <time>2011-08-19T07:16:47Z</time>
      </trkpt>
      <trkpt lat="44.35179" lon="5.25353">
        <ele>711.51</ele>
        <time>2011-08-19T07:16:54Z</time>
      </trkpt>
      <trkpt lat="44.35187" lon="5.25352">
        <ele>711.51</ele>
        <time>2011-08-19T07:16:58Z</time>
      </trkpt>
      <trkpt lat="44.35213" lon="5.25357">
        <ele>709.11</ele>
        <time>2011-08-19T07:17:06Z</time>
      </trkpt>
      <trkpt lat="44.35239" lon="5.25374">
        <ele>706.23</ele>
        <time>2011-08-19T07:17:13Z</time>
      </trkpt>
      <trkpt lat="44.35256" lon="5.25386">
        <ele>704.78</ele>
        <time>2011-08-19T07:17:18Z</time>
      </trkpt>
      <trkpt lat="44.35273" lon="5.254">
        <ele>701.42</ele>
        <time>2011-08-19T07:17:24Z</time>
      </trkpt>
      <trkpt lat="44.35273" lon="5.25404">
        <ele>701.42</ele>
        <time>2011-08-19T07:17:25Z</time>
      </trkpt>
      <trkpt lat="44.35272" lon="5.25407">
        <ele>700.94</ele>
        <time>2011-08-19T07:17:26Z</time>
      </trkpt>
      <trkpt lat="44.35271" lon="5.2541">
        <ele>700.46</ele>
        <time>2011-08-19T07:17:27Z</time>
      </trkpt>
      <trkpt lat="44.35268" lon="5.25412">
        <ele>700.46</ele>
        <time>2011-08-19T07:17:28Z</time>
      </trkpt>
      <trkpt lat="44.35265" lon="5.25413">
        <ele>699.98</ele>
        <time>2011-08-19T07:17:29Z</time>
      </trkpt>
      <trkpt lat="44.35248" lon="5.25419">
        <ele>698.05</ele>
        <time>2011-08-19T07:17:33Z</time>
      </trkpt>
      <trkpt lat="44.35234" lon="5.25433">
        <ele>695.17</ele>
        <time>2011-08-19T07:17:37Z</time>
      </trkpt>
      <trkpt lat="44.35231" lon="5.25438">
        <ele>693.73</ele>
        <time>2011-08-19T07:17:38Z</time>
      </trkpt>
      <trkpt lat="44.35229" lon="5.25442">
        <ele>693.25</ele>
        <time>2011-08-19T07:17:39Z</time>
      </trkpt>
      <trkpt lat="44.35227" lon="5.25447">
        <ele>691.81</ele>
        <time>2011-08-19T07:17:40Z</time>
      </trkpt>
      <trkpt lat="44.35226" lon="5.25452">
        <ele>690.84</ele>
        <time>2011-08-19T07:17:41Z</time>
      </trkpt>
      <trkpt lat="44.35227" lon="5.25458">
        <ele>689.88</ele>
        <time>2011-08-19T07:17:42Z</time>
      </trkpt>
      <trkpt lat="44.35229" lon="5.25464">
        <ele>688.92</ele>
        <time>2011-08-19T07:17:43Z</time>
      </trkpt>
      <trkpt lat="44.3523" lon="5.25468">
        <ele>687.96</ele>
        <time>2011-08-19T07:17:44Z</time>
      </trkpt>
      <trkpt lat="44.35231" lon="5.25477">
        <ele>685.56</ele>
        <time>2011-08-19T07:17:47Z</time>
      </trkpt>
      <trkpt lat="44.35243" lon="5.2549">
        <ele>681.23</ele>
        <time>2011-08-19T07:17:51Z</time>
      </trkpt>
      <trkpt lat="44.35247" lon="5.25493">
        <ele>681.23</ele>
        <time>2011-08-19T07:17:52Z</time>
      </trkpt>
      <trkpt lat="44.35258" lon="5.25502">
        <ele>677.39</ele>
        <time>2011-08-19T07:17:55Z</time>
      </trkpt>
      <trkpt lat="44.35269" lon="5.25511">
        <ele>675.46</ele>
        <time>2011-08-19T07:17:58Z</time>
      </trkpt>
      <trkpt lat="44.35279" lon="5.25518">
        <ele>672.1</ele>
        <time>2011-08-19T07:18:02Z</time>
      </trkpt>
      <trkpt lat="44.35281" lon="5.25519">
        <ele>672.1</ele>
        <time>2011-08-19T07:18:03Z</time>
      </trkpt>
      <trkpt lat="44.35283" lon="5.25521">
        <ele>672.1</ele>
        <time>2011-08-19T07:18:12Z</time>
      </trkpt>
      <trkpt lat="44.35283" lon="5.25523">
        <ele>671.62</ele>
        <time>2011-08-19T07:18:13Z</time>
      </trkpt>
      <trkpt lat="44.35283" lon="5.25526">
        <ele>671.62</ele>
        <time>2011-08-19T07:18:14Z</time>
      </trkpt>
      <trkpt lat="44.35283" lon="5.25529">
        <ele>671.14</ele>
        <time>2011-08-19T07:18:15Z</time>
      </trkpt>
      <trkpt lat="44.35283" lon="5.25533">
        <ele>670.18</ele>
        <time>2011-08-19T07:18:16Z</time>
      </trkpt>
      <trkpt lat="44.35284" lon="5.25552">
        <ele>667.29</ele>
        <time>2011-08-19T07:18:20Z</time>
      </trkpt>
      <trkpt lat="44.35284" lon="5.25557">
        <ele>666.81</ele>
        <time>2011-08-19T07:18:21Z</time>
      </trkpt>
      <trkpt lat="44.35284" lon="5.25572">
        <ele>663.93</ele>
        <time>2011-08-19T07:18:24Z</time>
      </trkpt>
      <trkpt lat="44.35286" lon="5.25592">
        <ele>660.56</ele>
        <time>2011-08-19T07:18:28Z</time>
      </trkpt>
      <trkpt lat="44.35288" lon="5.256">
        <ele>659.12</ele>
        <time>2011-08-19T07:18:30Z</time>
      </trkpt>
      <trkpt lat="44.35287" lon="5.25618">
        <ele>655.76</ele>
        <time>2011-08-19T07:18:35Z</time>
      </trkpt>
      <trkpt lat="44.35284" lon="5.25628">
        <ele>653.83</ele>
        <time>2011-08-19T07:18:37Z</time>
      </trkpt>
      <trkpt lat="44.35282" lon="5.25632">
        <ele>653.83</ele>
        <time>2011-08-19T07:18:38Z</time>
      </trkpt>
      <trkpt lat="44.35278" lon="5.25636">
        <ele>653.35</ele>
        <time>2011-08-19T07:18:39Z</time>
      </trkpt>
      <trkpt lat="44.35275" lon="5.25639">
        <ele>653.35</ele>
        <time>2011-08-19T07:18:40Z</time>
      </trkpt>
      <trkpt lat="44.35271" lon="5.25643">
        <ele>653.35</ele>
        <time>2011-08-19T07:18:41Z</time>
      </trkpt>
      <trkpt lat="44.35268" lon="5.25648">
        <ele>652.87</ele>
        <time>2011-08-19T07:18:42Z</time>
      </trkpt>
      <trkpt lat="44.35261" lon="5.25658">
        <ele>652.39</ele>
        <time>2011-08-19T07:18:44Z</time>
      </trkpt>
      <trkpt lat="44.35259" lon="5.25664">
        <ele>651.91</ele>
        <time>2011-08-19T07:18:45Z</time>
      </trkpt>
      <trkpt lat="44.35256" lon="5.2567">
        <ele>651.43</ele>
        <time>2011-08-19T07:18:46Z</time>
      </trkpt>
      <trkpt lat="44.35254" lon="5.25675">
        <ele>651.43</ele>
        <time>2011-08-19T07:18:47Z</time>
      </trkpt>
      <trkpt lat="44.35253" lon="5.2568">
        <ele>650.95</ele>
        <time>2011-08-19T07:18:48Z</time>
      </trkpt>
      <trkpt lat="44.35254" lon="5.25686">
        <ele>650.95</ele>
        <time>2011-08-19T07:18:49Z</time>
      </trkpt>
      <trkpt lat="44.35255" lon="5.25692">
        <ele>650.47</ele>
        <time>2011-08-19T07:18:50Z</time>
      </trkpt>
      <trkpt lat="44.35256" lon="5.25698">
        <ele>649.99</ele>
        <time>2011-08-19T07:18:51Z</time>
      </trkpt>
      <trkpt lat="44.35258" lon="5.25705">
        <ele>649.51</ele>
        <time>2011-08-19T07:18:52Z</time>
      </trkpt>
      <trkpt lat="44.35265" lon="5.25727">
        <ele>646.14</ele>
        <time>2011-08-19T07:18:56Z</time>
      </trkpt>
      <trkpt lat="44.35272" lon="5.25741">
        <ele>642.78</ele>
        <time>2011-08-19T07:18:59Z</time>
      </trkpt>
      <trkpt lat="44.35282" lon="5.25762">
        <ele>638.93</ele>
        <time>2011-08-19T07:19:03Z</time>
      </trkpt>
      <trkpt lat="44.35285" lon="5.25767">
        <ele>637.97</ele>
        <time>2011-08-19T07:19:04Z</time>
      </trkpt>
      <trkpt lat="44.35286" lon="5.25773">
        <ele>637.01</ele>
        <time>2011-08-19T07:19:05Z</time>
      </trkpt>
      <trkpt lat="44.35288" lon="5.25778">
        <ele>636.53</ele>
        <time>2011-08-19T07:19:06Z</time>
      </trkpt>
      <trkpt lat="44.3529" lon="5.25781">
        <ele>635.57</ele>
        <time>2011-08-19T07:19:07Z</time>
      </trkpt>
      <trkpt lat="44.35293" lon="5.25782">
        <ele>635.09</ele>
        <time>2011-08-19T07:19:08Z</time>
      </trkpt>
      <trkpt lat="44.35295" lon="5.25781">
        <ele>635.09</ele>
        <time>2011-08-19T07:19:09Z</time>
      </trkpt>
      <trkpt lat="44.35298" lon="5.2578">
        <ele>635.57</ele>
        <time>2011-08-19T07:19:10Z</time>
      </trkpt>
      <trkpt lat="44.35299" lon="5.25778">
        <ele>635.09</ele>
        <time>2011-08-19T07:19:11Z</time>
      </trkpt>
      <trkpt lat="44.35324" lon="5.25754">
        <ele>631.72</ele>
        <time>2011-08-19T07:19:19Z</time>
      </trkpt>
      <trkpt lat="44.35332" lon="5.25747">
        <ele>630.76</ele>
        <time>2011-08-19T07:19:21Z</time>
      </trkpt>
      <trkpt lat="44.35341" lon="5.25738">
        <ele>629.8</ele>
        <time>2011-08-19T07:19:23Z</time>
      </trkpt>
      <trkpt lat="44.35344" lon="5.25733">
        <ele>628.84</ele>
        <time>2011-08-19T07:19:24Z</time>
      </trkpt>
      <trkpt lat="44.35347" lon="5.25727">
        <ele>627.88</ele>
        <time>2011-08-19T07:19:25Z</time>
      </trkpt>
      <trkpt lat="44.35349" lon="5.25721">
        <ele>627.88</ele>
        <time>2011-08-19T07:19:26Z</time>
      </trkpt>
      <trkpt lat="44.35362" lon="5.25684">
        <ele>624.51</ele>
        <time>2011-08-19T07:19:33Z</time>
      </trkpt>
      <trkpt lat="44.3538" lon="5.25675">
        <ele>622.59</ele>
        <time>2011-08-19T07:19:38Z</time>
      </trkpt>
      <trkpt lat="44.35388" lon="5.25673">
        <ele>620.67</ele>
        <time>2011-08-19T07:19:40Z</time>
      </trkpt>
      <trkpt lat="44.35392" lon="5.25676">
        <ele>620.19</ele>
        <time>2011-08-19T07:19:41Z</time>
      </trkpt>
      <trkpt lat="44.35395" lon="5.25679">
        <ele>620.19</ele>
        <time>2011-08-19T07:19:42Z</time>
      </trkpt>
      <trkpt lat="44.35398" lon="5.25684">
        <ele>618.75</ele>
        <time>2011-08-19T07:19:43Z</time>
      </trkpt>
      <trkpt lat="44.354" lon="5.25687">
        <ele>619.23</ele>
        <time>2011-08-19T07:19:44Z</time>
      </trkpt>
      <trkpt lat="44.35402" lon="5.25691">
        <ele>618.26</ele>
        <time>2011-08-19T07:19:45Z</time>
      </trkpt>
      <trkpt lat="44.35405" lon="5.25694">
        <ele>618.26</ele>
        <time>2011-08-19T07:19:46Z</time>
      </trkpt>
      <trkpt lat="44.35408" lon="5.25696">
        <ele>617.78</ele>
        <time>2011-08-19T07:19:47Z</time>
      </trkpt>
      <trkpt lat="44.35423" lon="5.25706">
        <ele>614.42</ele>
        <time>2011-08-19T07:19:56Z</time>
      </trkpt>
      <trkpt lat="44.35423" lon="5.25706">
        <ele>614.42</ele>
        <time>2011-08-19T07:20:33Z</time>
      </trkpt>
      <trkpt lat="44.35423" lon="5.25706">
        <ele>615.38</ele>
        <time>2011-08-19T07:20:55Z</time>
      </trkpt>
      <trkpt lat="44.35425" lon="5.25706">
        <ele>614.9</ele>
        <time>2011-08-19T07:20:56Z</time>
      </trkpt>
      <trkpt lat="44.35427" lon="5.25707">
        <ele>614.9</ele>
        <time>2011-08-19T07:20:57Z</time>
      </trkpt>
      <trkpt lat="44.3543" lon="5.25708">
        <ele>614.42</ele>
        <time>2011-08-19T07:20:58Z</time>
      </trkpt>
      <trkpt lat="44.35434" lon="5.2571">
        <ele>613.46</ele>
        <time>2011-08-19T07:20:59Z</time>
      </trkpt>
      <trkpt lat="44.35442" lon="5.25713">
        <ele>612.98</ele>
        <time>2011-08-19T07:21:01Z</time>
      </trkpt>
      <trkpt lat="44.35447" lon="5.25713">
        <ele>612.5</ele>
        <time>2011-08-19T07:21:02Z</time>
      </trkpt>
      <trkpt lat="44.35451" lon="5.25713">
        <ele>612.5</ele>
        <time>2011-08-19T07:21:03Z</time>
      </trkpt>
      <trkpt lat="44.35469" lon="5.25702">
        <ele>610.09</ele>
        <time>2011-08-19T07:21:08Z</time>
      </trkpt>
      <trkpt lat="44.35479" lon="5.25698">
        <ele>609.61</ele>
        <time>2011-08-19T07:21:10Z</time>
      </trkpt>
      <trkpt lat="44.35487" lon="5.25693">
        <ele>608.65</ele>
        <time>2011-08-19T07:21:12Z</time>
      </trkpt>
      <trkpt lat="44.35495" lon="5.25687">
        <ele>608.17</ele>
        <time>2011-08-19T07:21:14Z</time>
      </trkpt>
      <trkpt lat="44.35498" lon="5.25684">
        <ele>608.17</ele>
        <time>2011-08-19T07:21:15Z</time>
      </trkpt>
      <trkpt lat="44.35502" lon="5.25681">
        <ele>606.73</ele>
        <time>2011-08-19T07:21:16Z</time>
      </trkpt>
      <trkpt lat="44.35506" lon="5.25679">
        <ele>606.73</ele>
        <time>2011-08-19T07:21:17Z</time>
      </trkpt>
      <trkpt lat="44.3551" lon="5.2568">
        <ele>606.25</ele>
        <time>2011-08-19T07:21:18Z</time>
      </trkpt>
      <trkpt lat="44.35513" lon="5.25682">
        <ele>606.25</ele>
        <time>2011-08-19T07:21:19Z</time>
      </trkpt>
      <trkpt lat="44.35514" lon="5.25685">
        <ele>605.29</ele>
        <time>2011-08-19T07:21:20Z</time>
      </trkpt>
      <trkpt lat="44.35514" lon="5.25688">
        <ele>605.29</ele>
        <time>2011-08-19T07:21:21Z</time>
      </trkpt>
      <trkpt lat="44.35513" lon="5.25691">
        <ele>604.81</ele>
        <time>2011-08-19T07:21:26Z</time>
      </trkpt>
      <trkpt lat="44.35513" lon="5.25694">
        <ele>604.81</ele>
        <time>2011-08-19T07:21:27Z</time>
      </trkpt>
      <trkpt lat="44.35512" lon="5.25698">
        <ele>604.33</ele>
        <time>2011-08-19T07:21:28Z</time>
      </trkpt>
      <trkpt lat="44.3551" lon="5.25702">
        <ele>604.33</ele>
        <time>2011-08-19T07:21:29Z</time>
      </trkpt>
      <trkpt lat="44.35509" lon="5.25707">
        <ele>603.36</ele>
        <time>2011-08-19T07:21:30Z</time>
      </trkpt>
      <trkpt lat="44.35508" lon="5.25713">
        <ele>601.92</ele>
        <time>2011-08-19T07:21:31Z</time>
      </trkpt>
      <trkpt lat="44.3551" lon="5.25719">
        <ele>601.44</ele>
        <time>2011-08-19T07:21:32Z</time>
      </trkpt>
      <trkpt lat="44.35514" lon="5.25723">
        <ele>600</ele>
        <time>2011-08-19T07:21:33Z</time>
      </trkpt>
      <trkpt lat="44.35518" lon="5.25727">
        <ele>599.52</ele>
        <time>2011-08-19T07:21:34Z</time>
      </trkpt>
      <trkpt lat="44.35526" lon="5.25732">
        <ele>597.6</ele>
        <time>2011-08-19T07:21:37Z</time>
      </trkpt>
      <trkpt lat="44.35528" lon="5.25731">
        <ele>597.6</ele>
        <time>2011-08-19T07:21:38Z</time>
      </trkpt>
      <trkpt lat="44.3553" lon="5.2573">
        <ele>597.6</ele>
        <time>2011-08-19T07:21:39Z</time>
      </trkpt>
      <trkpt lat="44.35532" lon="5.25729">
        <ele>596.64</ele>
        <time>2011-08-19T07:21:40Z</time>
      </trkpt>
      <trkpt lat="44.35534" lon="5.25726">
        <ele>596.15</ele>
        <time>2011-08-19T07:21:41Z</time>
      </trkpt>
      <trkpt lat="44.35536" lon="5.25723">
        <ele>595.67</ele>
        <time>2011-08-19T07:21:42Z</time>
      </trkpt>
      <trkpt lat="44.35538" lon="5.25717">
        <ele>595.19</ele>
        <time>2011-08-19T07:21:43Z</time>
      </trkpt>
      <trkpt lat="44.3554" lon="5.25712">
        <ele>595.67</ele>
        <time>2011-08-19T07:21:44Z</time>
      </trkpt>
      <trkpt lat="44.35542" lon="5.25707">
        <ele>595.19</ele>
        <time>2011-08-19T07:21:45Z</time>
      </trkpt>
      <trkpt lat="44.35544" lon="5.25702">
        <ele>595.67</ele>
        <time>2011-08-19T07:21:46Z</time>
      </trkpt>
      <trkpt lat="44.35548" lon="5.25697">
        <ele>595.19</ele>
        <time>2011-08-19T07:21:47Z</time>
      </trkpt>
      <trkpt lat="44.35561" lon="5.25684">
        <ele>594.71</ele>
        <time>2011-08-19T07:21:50Z</time>
      </trkpt>
      <trkpt lat="44.35571" lon="5.25677">
        <ele>594.23</ele>
        <time>2011-08-19T07:21:52Z</time>
      </trkpt>
      <trkpt lat="44.35575" lon="5.25672">
        <ele>593.75</ele>
        <time>2011-08-19T07:21:53Z</time>
      </trkpt>
      <trkpt lat="44.35579" lon="5.25667">
        <ele>593.27</ele>
        <time>2011-08-19T07:21:54Z</time>
      </trkpt>
      <trkpt lat="44.35603" lon="5.2564">
        <ele>592.79</ele>
        <time>2011-08-19T07:22:00Z</time>
      </trkpt>
      <trkpt lat="44.35607" lon="5.2564">
        <ele>591.83</ele>
        <time>2011-08-19T07:22:01Z</time>
      </trkpt>
      <trkpt lat="44.35612" lon="5.25641">
        <ele>591.35</ele>
        <time>2011-08-19T07:22:02Z</time>
      </trkpt>
      <trkpt lat="44.35616" lon="5.25642">
        <ele>590.87</ele>
        <time>2011-08-19T07:22:03Z</time>
      </trkpt>
      <trkpt lat="44.35619" lon="5.25644">
        <ele>590.39</ele>
        <time>2011-08-19T07:22:04Z</time>
      </trkpt>
      <trkpt lat="44.35621" lon="5.25645">
        <ele>589.91</ele>
        <time>2011-08-19T07:22:05Z</time>
      </trkpt>
      <trkpt lat="44.35624" lon="5.25647">
        <ele>589.91</ele>
        <time>2011-08-19T07:22:16Z</time>
      </trkpt>
      <trkpt lat="44.35626" lon="5.25648">
        <ele>589.43</ele>
        <time>2011-08-19T07:22:17Z</time>
      </trkpt>
      <trkpt lat="44.35628" lon="5.25649">
        <ele>589.43</ele>
        <time>2011-08-19T07:22:18Z</time>
      </trkpt>
      <trkpt lat="44.3563" lon="5.2565">
        <ele>589.43</ele>
        <time>2011-08-19T07:22:19Z</time>
      </trkpt>
      <trkpt lat="44.35633" lon="5.25652">
        <ele>589.43</ele>
        <time>2011-08-19T07:22:20Z</time>
      </trkpt>
      <trkpt lat="44.35636" lon="5.25655">
        <ele>588.95</ele>
        <time>2011-08-19T07:22:21Z</time>
      </trkpt>
      <trkpt lat="44.35639" lon="5.25657">
        <ele>587.98</ele>
        <time>2011-08-19T07:22:22Z</time>
      </trkpt>
      <trkpt lat="44.35642" lon="5.25661">
        <ele>587.98</ele>
        <time>2011-08-19T07:22:23Z</time>
      </trkpt>
      <trkpt lat="44.35649" lon="5.25668">
        <ele>586.54</ele>
        <time>2011-08-19T07:22:25Z</time>
      </trkpt>
      <trkpt lat="44.35663" lon="5.25684">
        <ele>583.18</ele>
        <time>2011-08-19T07:22:29Z</time>
      </trkpt>
      <trkpt lat="44.35682" lon="5.25701">
        <ele>580.29</ele>
        <time>2011-08-19T07:22:34Z</time>
      </trkpt>
      <trkpt lat="44.35689" lon="5.25708">
        <ele>578.85</ele>
        <time>2011-08-19T07:22:36Z</time>
      </trkpt>
      <trkpt lat="44.35694" lon="5.25716">
        <ele>577.89</ele>
        <time>2011-08-19T07:22:38Z</time>
      </trkpt>
      <trkpt lat="44.35706" lon="5.2573">
        <ele>575.97</ele>
        <time>2011-08-19T07:22:42Z</time>
      </trkpt>
      <trkpt lat="44.35709" lon="5.25732">
        <ele>575.49</ele>
        <time>2011-08-19T07:22:43Z</time>
      </trkpt>
      <trkpt lat="44.35714" lon="5.25733">
        <ele>575.49</ele>
        <time>2011-08-19T07:22:44Z</time>
      </trkpt>
      <trkpt lat="44.35718" lon="5.25735">
        <ele>574.53</ele>
        <time>2011-08-19T07:22:45Z</time>
      </trkpt>
      <trkpt lat="44.35723" lon="5.25739">
        <ele>574.53</ele>
        <time>2011-08-19T07:22:46Z</time>
      </trkpt>
      <trkpt lat="44.35727" lon="5.25743">
        <ele>573.56</ele>
        <time>2011-08-19T07:22:47Z</time>
      </trkpt>
      <trkpt lat="44.35732" lon="5.25749">
        <ele>573.56</ele>
        <time>2011-08-19T07:22:48Z</time>
      </trkpt>
      <trkpt lat="44.35748" lon="5.25772">
        <ele>570.2</ele>
        <time>2011-08-19T07:22:52Z</time>
      </trkpt>
      <trkpt lat="44.35751" lon="5.25779">
        <ele>569.72</ele>
        <time>2011-08-19T07:22:53Z</time>
      </trkpt>
      <trkpt lat="44.35755" lon="5.25786">
        <ele>568.76</ele>
        <time>2011-08-19T07:22:54Z</time>
      </trkpt>
      <trkpt lat="44.35759" lon="5.25793">
        <ele>567.8</ele>
        <time>2011-08-19T07:22:55Z</time>
      </trkpt>
      <trkpt lat="44.35764" lon="5.25797">
        <ele>568.28</ele>
        <time>2011-08-19T07:22:56Z</time>
      </trkpt>
      <trkpt lat="44.35769" lon="5.25801">
        <ele>567.8</ele>
        <time>2011-08-19T07:22:57Z</time>
      </trkpt>
      <trkpt lat="44.35774" lon="5.25805">
        <ele>566.83</ele>
        <time>2011-08-19T07:22:58Z</time>
      </trkpt>
      <trkpt lat="44.3578" lon="5.25809">
        <ele>566.35</ele>
        <time>2011-08-19T07:22:59Z</time>
      </trkpt>
      <trkpt lat="44.35785" lon="5.25811">
        <ele>565.87</ele>
        <time>2011-08-19T07:23:00Z</time>
      </trkpt>
      <trkpt lat="44.35791" lon="5.25811">
        <ele>565.39</ele>
        <time>2011-08-19T07:23:01Z</time>
      </trkpt>
      <trkpt lat="44.35798" lon="5.25811">
        <ele>564.91</ele>
        <time>2011-08-19T07:23:02Z</time>
      </trkpt>
      <trkpt lat="44.35804" lon="5.25809">
        <ele>563.95</ele>
        <time>2011-08-19T07:23:03Z</time>
      </trkpt>
      <trkpt lat="44.35811" lon="5.25808">
        <ele>562.99</ele>
        <time>2011-08-19T07:23:04Z</time>
      </trkpt>
      <trkpt lat="44.35835" lon="5.25802">
        <ele>559.14</ele>
        <time>2011-08-19T07:23:07Z</time>
      </trkpt>
      <trkpt lat="44.35862" lon="5.25798">
        <ele>555.3</ele>
        <time>2011-08-19T07:23:10Z</time>
      </trkpt>
      <trkpt lat="44.35878" lon="5.25796">
        <ele>554.34</ele>
        <time>2011-08-19T07:23:12Z</time>
      </trkpt>
      <trkpt lat="44.35884" lon="5.25792">
        <ele>553.86</ele>
        <time>2011-08-19T07:23:13Z</time>
      </trkpt>
      <trkpt lat="44.35888" lon="5.25786">
        <ele>553.38</ele>
        <time>2011-08-19T07:23:14Z</time>
      </trkpt>
      <trkpt lat="44.35891" lon="5.25779">
        <ele>553.86</ele>
        <time>2011-08-19T07:23:15Z</time>
      </trkpt>
      <trkpt lat="44.35893" lon="5.25772">
        <ele>553.86</ele>
        <time>2011-08-19T07:23:16Z</time>
      </trkpt>
      <trkpt lat="44.35895" lon="5.25766">
        <ele>554.34</ele>
        <time>2011-08-19T07:23:17Z</time>
      </trkpt>
      <trkpt lat="44.35898" lon="5.25762">
        <ele>554.82</ele>
        <time>2011-08-19T07:23:18Z</time>
      </trkpt>
      <trkpt lat="44.35901" lon="5.2576">
        <ele>555.3</ele>
        <time>2011-08-19T07:23:19Z</time>
      </trkpt>
      <trkpt lat="44.35904" lon="5.2576">
        <ele>555.3</ele>
        <time>2011-08-19T07:23:20Z</time>
      </trkpt>
      <trkpt lat="44.35908" lon="5.25762">
        <ele>555.3</ele>
        <time>2011-08-19T07:23:21Z</time>
      </trkpt>
      <trkpt lat="44.35911" lon="5.25764">
        <ele>554.82</ele>
        <time>2011-08-19T07:23:22Z</time>
      </trkpt>
      <trkpt lat="44.35915" lon="5.25767">
        <ele>554.34</ele>
        <time>2011-08-19T07:23:23Z</time>
      </trkpt>
      <trkpt lat="44.35962" lon="5.25797">
        <ele>550.97</ele>
        <time>2011-08-19T07:23:32Z</time>
      </trkpt>
      <trkpt lat="44.35974" lon="5.25798">
        <ele>550.01</ele>
        <time>2011-08-19T07:23:34Z</time>
      </trkpt>
      <trkpt lat="44.35979" lon="5.25798">
        <ele>549.53</ele>
        <time>2011-08-19T07:23:35Z</time>
      </trkpt>
      <trkpt lat="44.35985" lon="5.25797">
        <ele>549.05</ele>
        <time>2011-08-19T07:23:36Z</time>
      </trkpt>
      <trkpt lat="44.3599" lon="5.25794">
        <ele>548.09</ele>
        <time>2011-08-19T07:23:37Z</time>
      </trkpt>
      <trkpt lat="44.35995" lon="5.25789">
        <ele>547.61</ele>
        <time>2011-08-19T07:23:38Z</time>
      </trkpt>
      <trkpt lat="44.36" lon="5.25783">
        <ele>546.65</ele>
        <time>2011-08-19T07:23:39Z</time>
      </trkpt>
      <trkpt lat="44.36005" lon="5.25776">
        <ele>545.2</ele>
        <time>2011-08-19T07:23:40Z</time>
      </trkpt>
      <trkpt lat="44.36009" lon="5.25769">
        <ele>545.2</ele>
        <time>2011-08-19T07:23:41Z</time>
      </trkpt>
      <trkpt lat="44.36013" lon="5.25763">
        <ele>544.72</ele>
        <time>2011-08-19T07:23:42Z</time>
      </trkpt>
      <trkpt lat="44.36019" lon="5.25757">
        <ele>544.24</ele>
        <time>2011-08-19T07:23:43Z</time>
      </trkpt>
      <trkpt lat="44.36037" lon="5.25741">
        <ele>540.4</ele>
        <time>2011-08-19T07:23:46Z</time>
      </trkpt>
      <trkpt lat="44.36061" lon="5.25727">
        <ele>536.55</ele>
        <time>2011-08-19T07:23:49Z</time>
      </trkpt>
      <trkpt lat="44.36092" lon="5.25713">
        <ele>533.19</ele>
        <time>2011-08-19T07:23:53Z</time>
      </trkpt>
      <trkpt lat="44.36099" lon="5.25712">
        <ele>532.71</ele>
        <time>2011-08-19T07:23:54Z</time>
      </trkpt>
      <trkpt lat="44.36106" lon="5.25712">
        <ele>531.75</ele>
        <time>2011-08-19T07:23:55Z</time>
      </trkpt>
      <trkpt lat="44.36112" lon="5.2571">
        <ele>531.27</ele>
        <time>2011-08-19T07:23:56Z</time>
      </trkpt>
      <trkpt lat="44.36117" lon="5.25706">
        <ele>530.3</ele>
        <time>2011-08-19T07:23:57Z</time>
      </trkpt>
      <trkpt lat="44.36121" lon="5.257">
        <ele>529.82</ele>
        <time>2011-08-19T07:23:58Z</time>
      </trkpt>
      <trkpt lat="44.36125" lon="5.25693">
        <ele>529.34</ele>
        <time>2011-08-19T07:23:59Z</time>
      </trkpt>
      <trkpt lat="44.36126" lon="5.25685">
        <ele>528.38</ele>
        <time>2011-08-19T07:24:00Z</time>
      </trkpt>
      <trkpt lat="44.36127" lon="5.25675">
        <ele>527.9</ele>
        <time>2011-08-19T07:24:01Z</time>
      </trkpt>
      <trkpt lat="44.36129" lon="5.25648">
        <ele>526.46</ele>
        <time>2011-08-19T07:24:04Z</time>
      </trkpt>
      <trkpt lat="44.36128" lon="5.25641">
        <ele>526.46</ele>
        <time>2011-08-19T07:24:05Z</time>
      </trkpt>
      <trkpt lat="44.36126" lon="5.25635">
        <ele>525.5</ele>
        <time>2011-08-19T07:24:06Z</time>
      </trkpt>
      <trkpt lat="44.36125" lon="5.25629">
        <ele>525.5</ele>
        <time>2011-08-19T07:24:07Z</time>
      </trkpt>
      <trkpt lat="44.36126" lon="5.25625">
        <ele>525.02</ele>
        <time>2011-08-19T07:24:08Z</time>
      </trkpt>
      <trkpt lat="44.36128" lon="5.25622">
        <ele>524.54</ele>
        <time>2011-08-19T07:24:09Z</time>
      </trkpt>
      <trkpt lat="44.36131" lon="5.25622">
        <ele>524.54</ele>
        <time>2011-08-19T07:24:10Z</time>
      </trkpt>
      <trkpt lat="44.36133" lon="5.25625">
        <ele>524.06</ele>
        <time>2011-08-19T07:24:11Z</time>
      </trkpt>
      <trkpt lat="44.36134" lon="5.2563">
        <ele>523.58</ele>
        <time>2011-08-19T07:24:12Z</time>
      </trkpt>
      <trkpt lat="44.36135" lon="5.25636">
        <ele>523.09</ele>
        <time>2011-08-19T07:24:13Z</time>
      </trkpt>
      <trkpt lat="44.36135" lon="5.25644">
        <ele>522.61</ele>
        <time>2011-08-19T07:24:14Z</time>
      </trkpt>
      <trkpt lat="44.36137" lon="5.25654">
        <ele>522.13</ele>
        <time>2011-08-19T07:24:15Z</time>
      </trkpt>
      <trkpt lat="44.36139" lon="5.25662">
        <ele>521.17</ele>
        <time>2011-08-19T07:24:16Z</time>
      </trkpt>
      <trkpt lat="44.36144" lon="5.2568">
        <ele>519.25</ele>
        <time>2011-08-19T07:24:18Z</time>
      </trkpt>
      <trkpt lat="44.36148" lon="5.25689">
        <ele>518.77</ele>
        <time>2011-08-19T07:24:19Z</time>
      </trkpt>
      <trkpt lat="44.36153" lon="5.25697">
        <ele>517.81</ele>
        <time>2011-08-19T07:24:20Z</time>
      </trkpt>
      <trkpt lat="44.3617" lon="5.25723">
        <ele>514.44</ele>
        <time>2011-08-19T07:24:24Z</time>
      </trkpt>
      <trkpt lat="44.36174" lon="5.25727">
        <ele>513.48</ele>
        <time>2011-08-19T07:24:25Z</time>
      </trkpt>
      <trkpt lat="44.36179" lon="5.25729">
        <ele>513</ele>
        <time>2011-08-19T07:24:26Z</time>
      </trkpt>
      <trkpt lat="44.36185" lon="5.2573">
        <ele>512.04</ele>
        <time>2011-08-19T07:24:27Z</time>
      </trkpt>
      <trkpt lat="44.36191" lon="5.25727">
        <ele>511.08</ele>
        <time>2011-08-19T07:24:28Z</time>
      </trkpt>
      <trkpt lat="44.36196" lon="5.25722">
        <ele>510.6</ele>
        <time>2011-08-19T07:24:29Z</time>
      </trkpt>
      <trkpt lat="44.362" lon="5.25715">
        <ele>510.12</ele>
        <time>2011-08-19T07:24:30Z</time>
      </trkpt>
      <trkpt lat="44.36203" lon="5.25709">
        <ele>509.64</ele>
        <time>2011-08-19T07:24:31Z</time>
      </trkpt>
      <trkpt lat="44.36207" lon="5.25704">
        <ele>509.16</ele>
        <time>2011-08-19T07:24:32Z</time>
      </trkpt>
      <trkpt lat="44.36211" lon="5.25699">
        <ele>507.71</ele>
        <time>2011-08-19T07:24:33Z</time>
      </trkpt>
      <trkpt lat="44.36217" lon="5.25697">
        <ele>506.75</ele>
        <time>2011-08-19T07:24:34Z</time>
      </trkpt>
      <trkpt lat="44.36223" lon="5.25696">
        <ele>506.75</ele>
        <time>2011-08-19T07:24:35Z</time>
      </trkpt>
      <trkpt lat="44.3623" lon="5.25697">
        <ele>505.79</ele>
        <time>2011-08-19T07:24:36Z</time>
      </trkpt>
      <trkpt lat="44.36236" lon="5.25698">
        <ele>504.83</ele>
        <time>2011-08-19T07:24:37Z</time>
      </trkpt>
      <trkpt lat="44.36243" lon="5.257">
        <ele>503.87</ele>
        <time>2011-08-19T07:24:38Z</time>
      </trkpt>
      <trkpt lat="44.36249" lon="5.25703">
        <ele>503.39</ele>
        <time>2011-08-19T07:24:39Z</time>
      </trkpt>
      <trkpt lat="44.36253" lon="5.25706">
        <ele>502.43</ele>
        <time>2011-08-19T07:24:40Z</time>
      </trkpt>
      <trkpt lat="44.36257" lon="5.2571">
        <ele>501.95</ele>
        <time>2011-08-19T07:24:41Z</time>
      </trkpt>
      <trkpt lat="44.36259" lon="5.25716">
        <ele>501.46</ele>
        <time>2011-08-19T07:24:42Z</time>
      </trkpt>
      <trkpt lat="44.36259" lon="5.25722">
        <ele>501.46</ele>
        <time>2011-08-19T07:24:43Z</time>
      </trkpt>
      <trkpt lat="44.36257" lon="5.25729">
        <ele>500.5</ele>
        <time>2011-08-19T07:24:44Z</time>
      </trkpt>
      <trkpt lat="44.36255" lon="5.25735">
        <ele>500.5</ele>
        <time>2011-08-19T07:24:45Z</time>
      </trkpt>
      <trkpt lat="44.36252" lon="5.2574">
        <ele>500.02</ele>
        <time>2011-08-19T07:24:46Z</time>
      </trkpt>
      <trkpt lat="44.36248" lon="5.25744">
        <ele>499.06</ele>
        <time>2011-08-19T07:24:47Z</time>
      </trkpt>
      <trkpt lat="44.36244" lon="5.25748">
        <ele>499.06</ele>
        <time>2011-08-19T07:24:48Z</time>
      </trkpt>
      <trkpt lat="44.36242" lon="5.25752">
        <ele>498.58</ele>
        <time>2011-08-19T07:24:49Z</time>
      </trkpt>
      <trkpt lat="44.36241" lon="5.25757">
        <ele>498.1</ele>
        <time>2011-08-19T07:24:50Z</time>
      </trkpt>
      <trkpt lat="44.36243" lon="5.2576">
        <ele>498.1</ele>
        <time>2011-08-19T07:24:51Z</time>
      </trkpt>
      <trkpt lat="44.36246" lon="5.25762">
        <ele>497.62</ele>
        <time>2011-08-19T07:24:52Z</time>
      </trkpt>
      <trkpt lat="44.3625" lon="5.25761">
        <ele>497.14</ele>
        <time>2011-08-19T07:24:53Z</time>
      </trkpt>
      <trkpt lat="44.36255" lon="5.25758">
        <ele>497.14</ele>
        <time>2011-08-19T07:24:54Z</time>
      </trkpt>
      <trkpt lat="44.36269" lon="5.25747">
        <ele>495.22</ele>
        <time>2011-08-19T07:24:57Z</time>
      </trkpt>
      <trkpt lat="44.36273" lon="5.25742">
        <ele>495.22</ele>
        <time>2011-08-19T07:24:58Z</time>
      </trkpt>
      <trkpt lat="44.36276" lon="5.25736">
        <ele>494.26</ele>
        <time>2011-08-19T07:24:59Z</time>
      </trkpt>
      <trkpt lat="44.36278" lon="5.2573">
        <ele>493.77</ele>
        <time>2011-08-19T07:25:00Z</time>
      </trkpt>
      <trkpt lat="44.3628" lon="5.25722">
        <ele>493.29</ele>
        <time>2011-08-19T07:25:01Z</time>
      </trkpt>
      <trkpt lat="44.36294" lon="5.25677">
        <ele>489.45</ele>
        <time>2011-08-19T07:25:06Z</time>
      </trkpt>
      <trkpt lat="44.36302" lon="5.25653">
        <ele>487.05</ele>
        <time>2011-08-19T07:25:09Z</time>
      </trkpt>
      <trkpt lat="44.36307" lon="5.25638">
        <ele>485.6</ele>
        <time>2011-08-19T07:25:11Z</time>
      </trkpt>
      <trkpt lat="44.36312" lon="5.25631">
        <ele>484.64</ele>
        <time>2011-08-19T07:25:12Z</time>
      </trkpt>
      <trkpt lat="44.36318" lon="5.25627">
        <ele>483.68</ele>
        <time>2011-08-19T07:25:13Z</time>
      </trkpt>
      <trkpt lat="44.36324" lon="5.25624">
        <ele>482.72</ele>
        <time>2011-08-19T07:25:14Z</time>
      </trkpt>
      <trkpt lat="44.36332" lon="5.25623">
        <ele>482.24</ele>
        <time>2011-08-19T07:25:15Z</time>
      </trkpt>
      <trkpt lat="44.36339" lon="5.25624">
        <ele>481.28</ele>
        <time>2011-08-19T07:25:16Z</time>
      </trkpt>
      <trkpt lat="44.36346" lon="5.25626">
        <ele>480.32</ele>
        <time>2011-08-19T07:25:17Z</time>
      </trkpt>
      <trkpt lat="44.36353" lon="5.2563">
        <ele>479.84</ele>
        <time>2011-08-19T07:25:18Z</time>
      </trkpt>
      <trkpt lat="44.3636" lon="5.25634">
        <ele>479.35</ele>
        <time>2011-08-19T07:25:19Z</time>
      </trkpt>
      <trkpt lat="44.36367" lon="5.25639">
        <ele>478.87</ele>
        <time>2011-08-19T07:25:20Z</time>
      </trkpt>
      <trkpt lat="44.36374" lon="5.25645">
        <ele>478.39</ele>
        <time>2011-08-19T07:25:21Z</time>
      </trkpt>
      <trkpt lat="44.36381" lon="5.25652">
        <ele>477.91</ele>
        <time>2011-08-19T07:25:22Z</time>
      </trkpt>
      <trkpt lat="44.36388" lon="5.2566">
        <ele>476.47</ele>
        <time>2011-08-19T07:25:23Z</time>
      </trkpt>
      <trkpt lat="44.36394" lon="5.25668">
        <ele>476.47</ele>
        <time>2011-08-19T07:25:24Z</time>
      </trkpt>
      <trkpt lat="44.36415" lon="5.25703">
        <ele>473.11</ele>
        <time>2011-08-19T07:25:28Z</time>
      </trkpt>
      <trkpt lat="44.36436" lon="5.25736">
        <ele>469.26</ele>
        <time>2011-08-19T07:25:32Z</time>
      </trkpt>
      <trkpt lat="44.36451" lon="5.25757">
        <ele>467.34</ele>
        <time>2011-08-19T07:25:35Z</time>
      </trkpt>
      <trkpt lat="44.36478" lon="5.25779">
        <ele>463.97</ele>
        <time>2011-08-19T07:25:40Z</time>
      </trkpt>
      <trkpt lat="44.36484" lon="5.25781">
        <ele>463.01</ele>
        <time>2011-08-19T07:25:41Z</time>
      </trkpt>
      <trkpt lat="44.3649" lon="5.25781">
        <ele>462.53</ele>
        <time>2011-08-19T07:25:42Z</time>
      </trkpt>
      <trkpt lat="44.36496" lon="5.2578">
        <ele>461.57</ele>
        <time>2011-08-19T07:25:43Z</time>
      </trkpt>
      <trkpt lat="44.36502" lon="5.25778">
        <ele>460.61</ele>
        <time>2011-08-19T07:25:44Z</time>
      </trkpt>
      <trkpt lat="44.36509" lon="5.25774">
        <ele>460.61</ele>
        <time>2011-08-19T07:25:45Z</time>
      </trkpt>
      <trkpt lat="44.36515" lon="5.25769">
        <ele>460.13</ele>
        <time>2011-08-19T07:25:46Z</time>
      </trkpt>
      <trkpt lat="44.36522" lon="5.25765">
        <ele>459.65</ele>
        <time>2011-08-19T07:25:47Z</time>
      </trkpt>
      <trkpt lat="44.36529" lon="5.25761">
        <ele>459.17</ele>
        <time>2011-08-19T07:25:48Z</time>
      </trkpt>
      <trkpt lat="44.36538" lon="5.25758">
        <ele>458.21</ele>
        <time>2011-08-19T07:25:49Z</time>
      </trkpt>
      <trkpt lat="44.36546" lon="5.25756">
        <ele>457.24</ele>
        <time>2011-08-19T07:25:50Z</time>
      </trkpt>
      <trkpt lat="44.36554" lon="5.25755">
        <ele>456.28</ele>
        <time>2011-08-19T07:25:51Z</time>
      </trkpt>
      <trkpt lat="44.36561" lon="5.25755">
        <ele>455.32</ele>
        <time>2011-08-19T07:25:52Z</time>
      </trkpt>
      <trkpt lat="44.36568" lon="5.25755">
        <ele>454.36</ele>
        <time>2011-08-19T07:25:53Z</time>
      </trkpt>
      <trkpt lat="44.36574" lon="5.25754">
        <ele>453.4</ele>
        <time>2011-08-19T07:25:54Z</time>
      </trkpt>
      <trkpt lat="44.36579" lon="5.25752">
        <ele>452.92</ele>
        <time>2011-08-19T07:25:55Z</time>
      </trkpt>
      <trkpt lat="44.36584" lon="5.25748">
        <ele>452.44</ele>
        <time>2011-08-19T07:25:56Z</time>
      </trkpt>
      <trkpt lat="44.36587" lon="5.25742">
        <ele>451.96</ele>
        <time>2011-08-19T07:25:57Z</time>
      </trkpt>
      <trkpt lat="44.36589" lon="5.25734">
        <ele>451.48</ele>
        <time>2011-08-19T07:25:58Z</time>
      </trkpt>
      <trkpt lat="44.3659" lon="5.25726">
        <ele>450.52</ele>
        <time>2011-08-19T07:25:59Z</time>
      </trkpt>
      <trkpt lat="44.36592" lon="5.25717">
        <ele>449.55</ele>
        <time>2011-08-19T07:26:00Z</time>
      </trkpt>
      <trkpt lat="44.36594" lon="5.25708">
        <ele>449.55</ele>
        <time>2011-08-19T07:26:01Z</time>
      </trkpt>
      <trkpt lat="44.36598" lon="5.25699">
        <ele>448.59</ele>
        <time>2011-08-19T07:26:02Z</time>
      </trkpt>
      <trkpt lat="44.36604" lon="5.25692">
        <ele>448.11</ele>
        <time>2011-08-19T07:26:03Z</time>
      </trkpt>
      <trkpt lat="44.36611" lon="5.25687">
        <ele>447.63</ele>
        <time>2011-08-19T07:26:04Z</time>
      </trkpt>
      <trkpt lat="44.36619" lon="5.25682">
        <ele>447.15</ele>
        <time>2011-08-19T07:26:05Z</time>
      </trkpt>
      <trkpt lat="44.3664" lon="5.25667">
        <ele>444.27</ele>
        <time>2011-08-19T07:26:08Z</time>
      </trkpt>
      <trkpt lat="44.36645" lon="5.25662">
        <ele>443.79</ele>
        <time>2011-08-19T07:26:09Z</time>
      </trkpt>
      <trkpt lat="44.36649" lon="5.25654">
        <ele>443.31</ele>
        <time>2011-08-19T07:26:10Z</time>
      </trkpt>
      <trkpt lat="44.36651" lon="5.25646">
        <ele>442.34</ele>
        <time>2011-08-19T07:26:11Z</time>
      </trkpt>
      <trkpt lat="44.36652" lon="5.25636">
        <ele>441.86</ele>
        <time>2011-08-19T07:26:12Z</time>
      </trkpt>
      <trkpt lat="44.36654" lon="5.25625">
        <ele>441.86</ele>
        <time>2011-08-19T07:26:13Z</time>
      </trkpt>
      <trkpt lat="44.36655" lon="5.25615">
        <ele>440.9</ele>
        <time>2011-08-19T07:26:14Z</time>
      </trkpt>
      <trkpt lat="44.36656" lon="5.25607">
        <ele>439.46</ele>
        <time>2011-08-19T07:26:15Z</time>
      </trkpt>
      <trkpt lat="44.36655" lon="5.25598">
        <ele>438.98</ele>
        <time>2011-08-19T07:26:16Z</time>
      </trkpt>
      <trkpt lat="44.36653" lon="5.25592">
        <ele>438.02</ele>
        <time>2011-08-19T07:26:17Z</time>
      </trkpt>
      <trkpt lat="44.3665" lon="5.25587">
        <ele>437.54</ele>
        <time>2011-08-19T07:26:18Z</time>
      </trkpt>
      <trkpt lat="44.36646" lon="5.25584">
        <ele>437.54</ele>
        <time>2011-08-19T07:26:19Z</time>
      </trkpt>
      <trkpt lat="44.36641" lon="5.25582">
        <ele>436.58</ele>
        <time>2011-08-19T07:26:20Z</time>
      </trkpt>
      <trkpt lat="44.36638" lon="5.25578">
        <ele>435.61</ele>
        <time>2011-08-19T07:26:21Z</time>
      </trkpt>
      <trkpt lat="44.36638" lon="5.25574">
        <ele>435.61</ele>
        <time>2011-08-19T07:26:22Z</time>
      </trkpt>
      <trkpt lat="44.36639" lon="5.2557">
        <ele>434.65</ele>
        <time>2011-08-19T07:26:23Z</time>
      </trkpt>
      <trkpt lat="44.36642" lon="5.25568">
        <ele>434.17</ele>
        <time>2011-08-19T07:26:24Z</time>
      </trkpt>
      <trkpt lat="44.36646" lon="5.25567">
        <ele>433.69</ele>
        <time>2011-08-19T07:26:25Z</time>
      </trkpt>
      <trkpt lat="44.36651" lon="5.25568">
        <ele>433.21</ele>
        <time>2011-08-19T07:26:26Z</time>
      </trkpt>
      <trkpt lat="44.36657" lon="5.25568">
        <ele>432.73</ele>
        <time>2011-08-19T07:26:27Z</time>
      </trkpt>
      <trkpt lat="44.36663" lon="5.25567">
        <ele>431.77</ele>
        <time>2011-08-19T07:26:28Z</time>
      </trkpt>
      <trkpt lat="44.3667" lon="5.25566">
        <ele>431.29</ele>
        <time>2011-08-19T07:26:29Z</time>
      </trkpt>
      <trkpt lat="44.36692" lon="5.25562">
        <ele>428.4</ele>
        <time>2011-08-19T07:26:32Z</time>
      </trkpt>
      <trkpt lat="44.36704" lon="5.25563">
        <ele>427.44</ele>
        <time>2011-08-19T07:26:34Z</time>
      </trkpt>
      <trkpt lat="44.3671" lon="5.25569">
        <ele>426.96</ele>
        <time>2011-08-19T07:26:35Z</time>
      </trkpt>
      <trkpt lat="44.36719" lon="5.25582">
        <ele>425.52</ele>
        <time>2011-08-19T07:26:37Z</time>
      </trkpt>
      <trkpt lat="44.36722" lon="5.25592">
        <ele>425.04</ele>
        <time>2011-08-19T07:26:38Z</time>
      </trkpt>
      <trkpt lat="44.36736" lon="5.25649">
        <ele>421.68</ele>
        <time>2011-08-19T07:26:43Z</time>
      </trkpt>
      <trkpt lat="44.3674" lon="5.25659">
        <ele>420.71</ele>
        <time>2011-08-19T07:26:44Z</time>
      </trkpt>
      <trkpt lat="44.36743" lon="5.25667">
        <ele>419.75</ele>
        <time>2011-08-19T07:26:45Z</time>
      </trkpt>
      <trkpt lat="44.36746" lon="5.25672">
        <ele>419.27</ele>
        <time>2011-08-19T07:26:46Z</time>
      </trkpt>
      <trkpt lat="44.36749" lon="5.25676">
        <ele>418.31</ele>
        <time>2011-08-19T07:26:47Z</time>
      </trkpt>
      <trkpt lat="44.36751" lon="5.25677">
        <ele>418.31</ele>
        <time>2011-08-19T07:26:48Z</time>
      </trkpt>
      <trkpt lat="44.36755" lon="5.25677">
        <ele>417.35</ele>
        <time>2011-08-19T07:26:49Z</time>
      </trkpt>
      <trkpt lat="44.36758" lon="5.25674">
        <ele>417.35</ele>
        <time>2011-08-19T07:26:50Z</time>
      </trkpt>
      <trkpt lat="44.36761" lon="5.25669">
        <ele>416.87</ele>
        <time>2011-08-19T07:26:51Z</time>
      </trkpt>
      <trkpt lat="44.36764" lon="5.25662">
        <ele>415.91</ele>
        <time>2011-08-19T07:26:52Z</time>
      </trkpt>
      <trkpt lat="44.36767" lon="5.25652">
        <ele>414.95</ele>
        <time>2011-08-19T07:26:53Z</time>
      </trkpt>
      <trkpt lat="44.36769" lon="5.25642">
        <ele>414.47</ele>
        <time>2011-08-19T07:26:54Z</time>
      </trkpt>
      <trkpt lat="44.36771" lon="5.25633">
        <ele>414.47</ele>
        <time>2011-08-19T07:26:55Z</time>
      </trkpt>
      <trkpt lat="44.36783" lon="5.25593">
        <ele>411.58</ele>
        <time>2011-08-19T07:26:59Z</time>
      </trkpt>
      <trkpt lat="44.36786" lon="5.25583">
        <ele>411.1</ele>
        <time>2011-08-19T07:27:00Z</time>
      </trkpt>
      <trkpt lat="44.36796" lon="5.25554">
        <ele>408.22</ele>
        <time>2011-08-19T07:27:05Z</time>
      </trkpt>
      <trkpt lat="44.36799" lon="5.25553">
        <ele>407.26</ele>
        <time>2011-08-19T07:27:06Z</time>
      </trkpt>
      <trkpt lat="44.36804" lon="5.25556">
        <ele>406.77</ele>
        <time>2011-08-19T07:27:07Z</time>
      </trkpt>
      <trkpt lat="44.36808" lon="5.25561">
        <ele>406.29</ele>
        <time>2011-08-19T07:27:08Z</time>
      </trkpt>
      <trkpt lat="44.36811" lon="5.25568">
        <ele>406.29</ele>
        <time>2011-08-19T07:27:09Z</time>
      </trkpt>
      <trkpt lat="44.36813" lon="5.25575">
        <ele>406.29</ele>
        <time>2011-08-19T07:27:10Z</time>
      </trkpt>
      <trkpt lat="44.36814" lon="5.25582">
        <ele>406.29</ele>
        <time>2011-08-19T07:27:11Z</time>
      </trkpt>
      <trkpt lat="44.36814" lon="5.25589">
        <ele>406.29</ele>
        <time>2011-08-19T07:27:12Z</time>
      </trkpt>
      <trkpt lat="44.36815" lon="5.25596">
        <ele>406.29</ele>
        <time>2011-08-19T07:27:13Z</time>
      </trkpt>
      <trkpt lat="44.36816" lon="5.25607">
        <ele>406.29</ele>
        <time>2011-08-19T07:27:20Z</time>
      </trkpt>
      <trkpt lat="44.36816" lon="5.25607">
        <ele>401.01</ele>
        <time>2011-08-19T07:27:25Z</time>
      </trkpt>
      <trkpt lat="44.36816" lon="5.25607">
        <ele>412.06</ele>
        <time>2011-08-19T07:27:26Z</time>
      </trkpt>
      <trkpt lat="44.36816" lon="5.25607">
        <ele>401.49</ele>
        <time>2011-08-19T07:27:27Z</time>
      </trkpt>
      <trkpt lat="44.36816" lon="5.25607">
        <ele>408.7</ele>
        <time>2011-08-19T07:27:28Z</time>
      </trkpt>
      <trkpt lat="44.36816" lon="5.25607">
        <ele>405.33</ele>
        <time>2011-08-19T07:27:30Z</time>
      </trkpt>
      <trkpt lat="44.36815" lon="5.25612">
        <ele>405.81</ele>
        <time>2011-08-19T07:27:36Z</time>
      </trkpt>
      <trkpt lat="44.36814" lon="5.25616">
        <ele>405.33</ele>
        <time>2011-08-19T07:27:37Z</time>
      </trkpt>
      <trkpt lat="44.36813" lon="5.25632">
        <ele>404.37</ele>
        <time>2011-08-19T07:27:40Z</time>
      </trkpt>
      <trkpt lat="44.36813" lon="5.25639">
        <ele>404.37</ele>
        <time>2011-08-19T07:27:41Z</time>
      </trkpt>
      <trkpt lat="44.36813" lon="5.25645">
        <ele>404.37</ele>
        <time>2011-08-19T07:27:42Z</time>
      </trkpt>
      <trkpt lat="44.36812" lon="5.25652">
        <ele>403.89</ele>
        <time>2011-08-19T07:27:43Z</time>
      </trkpt>
      <trkpt lat="44.36811" lon="5.2566">
        <ele>403.89</ele>
        <time>2011-08-19T07:27:44Z</time>
      </trkpt>
      <trkpt lat="44.36799" lon="5.25716">
        <ele>401.01</ele>
        <time>2011-08-19T07:27:50Z</time>
      </trkpt>
      <trkpt lat="44.36796" lon="5.25726">
        <ele>400.05</ele>
        <time>2011-08-19T07:27:51Z</time>
      </trkpt>
      <trkpt lat="44.36791" lon="5.25735">
        <ele>399.57</ele>
        <time>2011-08-19T07:27:52Z</time>
      </trkpt>
      <trkpt lat="44.36785" lon="5.25744">
        <ele>399.08</ele>
        <time>2011-08-19T07:27:53Z</time>
      </trkpt>
      <trkpt lat="44.36779" lon="5.25752">
        <ele>398.12</ele>
        <time>2011-08-19T07:27:54Z</time>
      </trkpt>
      <trkpt lat="44.36768" lon="5.25769">
        <ele>397.16</ele>
        <time>2011-08-19T07:27:56Z</time>
      </trkpt>
      <trkpt lat="44.36764" lon="5.25778">
        <ele>396.68</ele>
        <time>2011-08-19T07:27:57Z</time>
      </trkpt>
      <trkpt lat="44.36762" lon="5.25788">
        <ele>395.72</ele>
        <time>2011-08-19T07:27:58Z</time>
      </trkpt>
      <trkpt lat="44.36762" lon="5.25798">
        <ele>395.24</ele>
        <time>2011-08-19T07:27:59Z</time>
      </trkpt>
      <trkpt lat="44.36763" lon="5.25808">
        <ele>395.24</ele>
        <time>2011-08-19T07:28:00Z</time>
      </trkpt>
      <trkpt lat="44.36765" lon="5.25818">
        <ele>395.24</ele>
        <time>2011-08-19T07:28:01Z</time>
      </trkpt>
      <trkpt lat="44.36765" lon="5.25827">
        <ele>395.24</ele>
        <time>2011-08-19T07:28:02Z</time>
      </trkpt>
      <trkpt lat="44.36765" lon="5.25837">
        <ele>395.24</ele>
        <time>2011-08-19T07:28:03Z</time>
      </trkpt>
      <trkpt lat="44.36764" lon="5.25846">
        <ele>394.28</ele>
        <time>2011-08-19T07:28:04Z</time>
      </trkpt>
      <trkpt lat="44.36761" lon="5.25855">
        <ele>393.8</ele>
        <time>2011-08-19T07:28:05Z</time>
      </trkpt>
      <trkpt lat="44.36757" lon="5.25863">
        <ele>393.8</ele>
        <time>2011-08-19T07:28:06Z</time>
      </trkpt>
      <trkpt lat="44.36753" lon="5.25871">
        <ele>392.84</ele>
        <time>2011-08-19T07:28:07Z</time>
      </trkpt>
      <trkpt lat="44.36736" lon="5.25907">
        <ele>391.39</ele>
        <time>2011-08-19T07:28:11Z</time>
      </trkpt>
      <trkpt lat="44.36733" lon="5.25918">
        <ele>391.39</ele>
        <time>2011-08-19T07:28:12Z</time>
      </trkpt>
      <trkpt lat="44.36721" lon="5.25963">
        <ele>387.55</ele>
        <time>2011-08-19T07:28:16Z</time>
      </trkpt>
      <trkpt lat="44.36713" lon="5.25989">
        <ele>384.66</ele>
        <time>2011-08-19T07:28:18Z</time>
      </trkpt>
      <trkpt lat="44.36701" lon="5.2604">
        <ele>382.26</ele>
        <time>2011-08-19T07:28:22Z</time>
      </trkpt>
      <trkpt lat="44.36697" lon="5.26051">
        <ele>380.82</ele>
        <time>2011-08-19T07:28:23Z</time>
      </trkpt>
      <trkpt lat="44.36692" lon="5.26062">
        <ele>379.86</ele>
        <time>2011-08-19T07:28:24Z</time>
      </trkpt>
      <trkpt lat="44.36686" lon="5.26072">
        <ele>380.34</ele>
        <time>2011-08-19T07:28:25Z</time>
      </trkpt>
      <trkpt lat="44.36675" lon="5.2609">
        <ele>378.42</ele>
        <time>2011-08-19T07:28:27Z</time>
      </trkpt>
      <trkpt lat="44.36669" lon="5.26096">
        <ele>378.9</ele>
        <time>2011-08-19T07:28:28Z</time>
      </trkpt>
      <trkpt lat="44.36657" lon="5.26106">
        <ele>378.42</ele>
        <time>2011-08-19T07:28:30Z</time>
      </trkpt>
      <trkpt lat="44.36652" lon="5.26112">
        <ele>377.94</ele>
        <time>2011-08-19T07:28:31Z</time>
      </trkpt>
      <trkpt lat="44.3665" lon="5.26119">
        <ele>377.94</ele>
        <time>2011-08-19T07:28:32Z</time>
      </trkpt>
      <trkpt lat="44.3665" lon="5.26127">
        <ele>378.42</ele>
        <time>2011-08-19T07:28:33Z</time>
      </trkpt>
      <trkpt lat="44.36651" lon="5.26135">
        <ele>377.94</ele>
        <time>2011-08-19T07:28:34Z</time>
      </trkpt>
      <trkpt lat="44.36652" lon="5.26143">
        <ele>378.42</ele>
        <time>2011-08-19T07:28:35Z</time>
      </trkpt>
      <trkpt lat="44.36654" lon="5.26151">
        <ele>378.9</ele>
        <time>2011-08-19T07:28:36Z</time>
      </trkpt>
      <trkpt lat="44.36674" lon="5.26265">
        <ele>378.42</ele>
        <time>2011-08-19T07:28:50Z</time>
      </trkpt>
      <trkpt lat="44.36675" lon="5.26272">
        <ele>378.42</ele>
        <time>2011-08-19T07:28:51Z</time>
      </trkpt>
      <trkpt lat="44.36676" lon="5.26279">
        <ele>379.38</ele>
        <time>2011-08-19T07:28:52Z</time>
      </trkpt>
      <trkpt lat="44.36675" lon="5.26286">
        <ele>379.38</ele>
        <time>2011-08-19T07:28:53Z</time>
      </trkpt>
      <trkpt lat="44.36674" lon="5.26292">
        <ele>379.86</ele>
        <time>2011-08-19T07:28:54Z</time>
      </trkpt>
      <trkpt lat="44.36673" lon="5.26297">
        <ele>379.86</ele>
        <time>2011-08-19T07:28:55Z</time>
      </trkpt>
      <trkpt lat="44.36668" lon="5.26305">
        <ele>380.34</ele>
        <time>2011-08-19T07:28:57Z</time>
      </trkpt>
      <trkpt lat="44.36664" lon="5.26306">
        <ele>380.34</ele>
        <time>2011-08-19T07:28:58Z</time>
      </trkpt>
      <trkpt lat="44.36651" lon="5.26306">
        <ele>381.78</ele>
        <time>2011-08-19T07:29:01Z</time>
      </trkpt>
      <trkpt lat="44.36647" lon="5.26306">
        <ele>381.78</ele>
        <time>2011-08-19T07:29:02Z</time>
      </trkpt>
      <trkpt lat="44.36643" lon="5.26306">
        <ele>381.78</ele>
        <time>2011-08-19T07:29:03Z</time>
      </trkpt>
      <trkpt lat="44.36639" lon="5.26306">
        <ele>381.78</ele>
        <time>2011-08-19T07:29:04Z</time>
      </trkpt>
      <trkpt lat="44.36635" lon="5.26306">
        <ele>381.78</ele>
        <time>2011-08-19T07:29:05Z</time>
      </trkpt>
      <trkpt lat="44.36627" lon="5.26307">
        <ele>383.22</ele>
        <time>2011-08-19T07:29:07Z</time>
      </trkpt>
      <trkpt lat="44.36589" lon="5.26315">
        <ele>386.11</ele>
        <time>2011-08-19T07:29:19Z</time>
      </trkpt>
      <trkpt lat="44.36573" lon="5.26322">
        <ele>387.07</ele>
        <time>2011-08-19T07:29:25Z</time>
      </trkpt>
      <trkpt lat="44.36572" lon="5.26324">
        <ele>387.55</ele>
        <time>2011-08-19T07:29:26Z</time>
      </trkpt>
      <trkpt lat="44.36585" lon="5.26332">
        <ele>386.59</ele>
        <time>2011-08-19T07:29:32Z</time>
      </trkpt>
      <trkpt lat="44.36662" lon="5.26322">
        <ele>386.11</ele>
        <time>2011-08-19T07:29:48Z</time>
      </trkpt>
      <trkpt lat="44.3671" lon="5.26309">
        <ele>385.15</ele>
        <time>2011-08-19T07:29:57Z</time>
      </trkpt>
      <trkpt lat="44.36715" lon="5.26305">
        <ele>385.63</ele>
        <time>2011-08-19T07:29:58Z</time>
      </trkpt>
      <trkpt lat="44.3672" lon="5.26301">
        <ele>385.15</ele>
        <time>2011-08-19T07:29:59Z</time>
      </trkpt>
      <trkpt lat="44.36794" lon="5.26211">
        <ele>383.7</ele>
        <time>2011-08-19T07:30:15Z</time>
      </trkpt>
      <trkpt lat="44.36894" lon="5.26099">
        <ele>380.82</ele>
        <time>2011-08-19T07:30:34Z</time>
      </trkpt>
      <trkpt lat="44.36976" lon="5.25993">
        <ele>388.99</ele>
        <time>2011-08-19T07:30:50Z</time>
      </trkpt>
      <trkpt lat="44.36979" lon="5.25986">
        <ele>380.34</ele>
        <time>2011-08-19T07:30:51Z</time>
      </trkpt>
      <trkpt lat="44.36992" lon="5.2596">
        <ele>385.15</ele>
        <time>2011-08-19T07:30:55Z</time>
      </trkpt>
      <trkpt lat="44.36995" lon="5.25954">
        <ele>379.86</ele>
        <time>2011-08-19T07:30:56Z</time>
      </trkpt>
      <trkpt lat="44.37042" lon="5.25842">
        <ele>378.9</ele>
        <time>2011-08-19T07:31:12Z</time>
      </trkpt>
      <trkpt lat="44.37097" lon="5.25681">
        <ele>377.45</ele>
        <time>2011-08-19T07:31:33Z</time>
      </trkpt>
      <trkpt lat="44.37104" lon="5.25667">
        <ele>376.97</ele>
        <time>2011-08-19T07:31:35Z</time>
      </trkpt>
      <trkpt lat="44.37109" lon="5.25661">
        <ele>377.45</ele>
        <time>2011-08-19T07:31:36Z</time>
      </trkpt>
      <trkpt lat="44.37114" lon="5.25655">
        <ele>376.97</ele>
        <time>2011-08-19T07:31:37Z</time>
      </trkpt>
      <trkpt lat="44.37157" lon="5.25617">
        <ele>380.34</ele>
        <time>2011-08-19T07:31:46Z</time>
      </trkpt>
      <trkpt lat="44.37194" lon="5.25607">
        <ele>383.7</ele>
        <time>2011-08-19T07:31:57Z</time>
      </trkpt>
      <trkpt lat="44.3721" lon="5.25646">
        <ele>386.11</ele>
        <time>2011-08-19T07:32:08Z</time>
      </trkpt>
      <trkpt lat="44.3721" lon="5.25697">
        <ele>388.99</ele>
        <time>2011-08-19T07:32:21Z</time>
      </trkpt>
      <trkpt lat="44.37225" lon="5.25742">
        <ele>390.91</ele>
        <time>2011-08-19T07:32:34Z</time>
      </trkpt>
      <trkpt lat="44.37246" lon="5.25779">
        <ele>394.28</ele>
        <time>2011-08-19T07:32:47Z</time>
      </trkpt>
      <trkpt lat="44.37259" lon="5.25819">
        <ele>397.16</ele>
        <time>2011-08-19T07:33:01Z</time>
      </trkpt>
      <trkpt lat="44.37268" lon="5.25843">
        <ele>398.6</ele>
        <time>2011-08-19T07:33:10Z</time>
      </trkpt>
      <trkpt lat="44.37267" lon="5.25845">
        <ele>398.6</ele>
        <time>2011-08-19T07:33:11Z</time>
      </trkpt>
      <trkpt lat="44.37265" lon="5.25846">
        <ele>399.08</ele>
        <time>2011-08-19T07:33:12Z</time>
      </trkpt>
      <trkpt lat="44.37263" lon="5.25844">
        <ele>399.08</ele>
        <time>2011-08-19T07:33:13Z</time>
      </trkpt>
      <trkpt lat="44.37261" lon="5.25842">
        <ele>399.57</ele>
        <time>2011-08-19T07:33:14Z</time>
      </trkpt>
      <trkpt lat="44.3726" lon="5.2584">
        <ele>399.57</ele>
        <time>2011-08-19T07:33:15Z</time>
      </trkpt>
      <trkpt lat="44.37258" lon="5.25837">
        <ele>400.05</ele>
        <time>2011-08-19T07:33:16Z</time>
      </trkpt>
      <trkpt lat="44.37257" lon="5.25834">
        <ele>400.53</ele>
        <time>2011-08-19T07:33:17Z</time>
      </trkpt>
      <trkpt lat="44.3723" lon="5.25805">
        <ele>401.49</ele>
        <time>2011-08-19T07:33:29Z</time>
      </trkpt>
      <trkpt lat="44.3719" lon="5.25781">
        <ele>404.37</ele>
        <time>2011-08-19T07:33:44Z</time>
      </trkpt>
      <trkpt lat="44.37153" lon="5.25764">
        <ele>407.26</ele>
        <time>2011-08-19T07:33:59Z</time>
      </trkpt>
      <trkpt lat="44.3714" lon="5.25772">
        <ele>408.7</ele>
        <time>2011-08-19T07:34:05Z</time>
      </trkpt>
      <trkpt lat="44.3714" lon="5.25775">
        <ele>408.22</ele>
        <time>2011-08-19T07:34:06Z</time>
      </trkpt>
      <trkpt lat="44.37139" lon="5.25778">
        <ele>408.7</ele>
        <time>2011-08-19T07:34:07Z</time>
      </trkpt>
      <trkpt lat="44.37138" lon="5.25782">
        <ele>408.7</ele>
        <time>2011-08-19T07:34:08Z</time>
      </trkpt>
      <trkpt lat="44.37138" lon="5.25785">
        <ele>409.18</ele>
        <time>2011-08-19T07:34:09Z</time>
      </trkpt>
      <trkpt lat="44.37139" lon="5.25788">
        <ele>409.18</ele>
        <time>2011-08-19T07:34:10Z</time>
      </trkpt>
      <trkpt lat="44.3714" lon="5.25791">
        <ele>409.18</ele>
        <time>2011-08-19T07:34:11Z</time>
      </trkpt>
      <trkpt lat="44.37142" lon="5.25794">
        <ele>409.18</ele>
        <time>2011-08-19T07:34:12Z</time>
      </trkpt>
      <trkpt lat="44.37143" lon="5.25797">
        <ele>409.66</ele>
        <time>2011-08-19T07:34:13Z</time>
      </trkpt>
      <trkpt lat="44.3716" lon="5.25821">
        <ele>413.02</ele>
        <time>2011-08-19T07:34:24Z</time>
      </trkpt>
      <trkpt lat="44.37183" lon="5.25857">
        <ele>415.91</ele>
        <time>2011-08-19T07:34:41Z</time>
      </trkpt>
      <trkpt lat="44.37201" lon="5.25889">
        <ele>419.27</ele>
        <time>2011-08-19T07:34:56Z</time>
      </trkpt>
      <trkpt lat="44.37203" lon="5.25932">
        <ele>422.16</ele>
        <time>2011-08-19T07:35:11Z</time>
      </trkpt>
      <trkpt lat="44.3721" lon="5.25968">
        <ele>425.52</ele>
        <time>2011-08-19T07:35:25Z</time>
      </trkpt>
      <trkpt lat="44.37213" lon="5.25993">
        <ele>427.92</ele>
        <time>2011-08-19T07:35:37Z</time>
      </trkpt>
      <trkpt lat="44.37212" lon="5.25994">
        <ele>427.92</ele>
        <time>2011-08-19T07:35:38Z</time>
      </trkpt>
      <trkpt lat="44.37211" lon="5.25995">
        <ele>428.4</ele>
        <time>2011-08-19T07:35:39Z</time>
      </trkpt>
      <trkpt lat="44.3721" lon="5.25994">
        <ele>428.4</ele>
        <time>2011-08-19T07:35:40Z</time>
      </trkpt>
      <trkpt lat="44.37208" lon="5.25994">
        <ele>428.4</ele>
        <time>2011-08-19T07:35:41Z</time>
      </trkpt>
      <trkpt lat="44.37207" lon="5.25992">
        <ele>428.89</ele>
        <time>2011-08-19T07:35:42Z</time>
      </trkpt>
      <trkpt lat="44.37205" lon="5.2599">
        <ele>428.89</ele>
        <time>2011-08-19T07:35:43Z</time>
      </trkpt>
      <trkpt lat="44.37186" lon="5.25959">
        <ele>430.81</ele>
        <time>2011-08-19T07:35:57Z</time>
      </trkpt>
      <trkpt lat="44.37167" lon="5.25931">
        <ele>433.21</ele>
        <time>2011-08-19T07:36:10Z</time>
      </trkpt>
      <trkpt lat="44.37158" lon="5.25921">
        <ele>433.69</ele>
        <time>2011-08-19T07:36:16Z</time>
      </trkpt>
      <trkpt lat="44.3715" lon="5.25923">
        <ele>435.13</ele>
        <time>2011-08-19T07:36:20Z</time>
      </trkpt>
      <trkpt lat="44.37149" lon="5.25925">
        <ele>435.13</ele>
        <time>2011-08-19T07:36:21Z</time>
      </trkpt>
      <trkpt lat="44.37148" lon="5.25928">
        <ele>435.61</ele>
        <time>2011-08-19T07:36:22Z</time>
      </trkpt>
      <trkpt lat="44.37147" lon="5.25931">
        <ele>435.61</ele>
        <time>2011-08-19T07:36:23Z</time>
      </trkpt>
      <trkpt lat="44.37146" lon="5.25933">
        <ele>436.1</ele>
        <time>2011-08-19T07:36:24Z</time>
      </trkpt>
      <trkpt lat="44.37146" lon="5.25936">
        <ele>435.61</ele>
        <time>2011-08-19T07:36:25Z</time>
      </trkpt>
      <trkpt lat="44.37146" lon="5.25939">
        <ele>436.1</ele>
        <time>2011-08-19T07:36:26Z</time>
      </trkpt>
      <trkpt lat="44.37146" lon="5.25942">
        <ele>436.1</ele>
        <time>2011-08-19T07:36:27Z</time>
      </trkpt>
      <trkpt lat="44.37146" lon="5.25945">
        <ele>436.58</ele>
        <time>2011-08-19T07:36:28Z</time>
      </trkpt>
      <trkpt lat="44.37147" lon="5.25948">
        <ele>436.58</ele>
        <time>2011-08-19T07:36:29Z</time>
      </trkpt>
      <trkpt lat="44.37151" lon="5.2599">
        <ele>439.94</ele>
        <time>2011-08-19T07:36:44Z</time>
      </trkpt>
      <trkpt lat="44.37156" lon="5.26037">
        <ele>443.31</ele>
        <time>2011-08-19T07:37:01Z</time>
      </trkpt>
      <trkpt lat="44.37154" lon="5.26078">
        <ele>446.19</ele>
        <time>2011-08-19T07:37:16Z</time>
      </trkpt>
      <trkpt lat="44.37154" lon="5.26117">
        <ele>449.55</ele>
        <time>2011-08-19T07:37:32Z</time>
      </trkpt>
      <trkpt lat="44.37154" lon="5.26155">
        <ele>453.4</ele>
        <time>2011-08-19T07:37:48Z</time>
      </trkpt>
      <trkpt lat="44.37158" lon="5.26184">
        <ele>456.28</ele>
        <time>2011-08-19T07:38:02Z</time>
      </trkpt>
      <trkpt lat="44.3718" lon="5.26188">
        <ele>458.69</ele>
        <time>2011-08-19T07:38:16Z</time>
      </trkpt>
      <trkpt lat="44.37215" lon="5.26194">
        <ele>462.05</ele>
        <time>2011-08-19T07:38:33Z</time>
      </trkpt>
      <trkpt lat="44.37215" lon="5.26229">
        <ele>464.93</ele>
        <time>2011-08-19T07:38:47Z</time>
      </trkpt>
      <trkpt lat="44.37192" lon="5.26261">
        <ele>467.82</ele>
        <time>2011-08-19T07:39:04Z</time>
      </trkpt>
      <trkpt lat="44.37173" lon="5.26294">
        <ele>470.7</ele>
        <time>2011-08-19T07:39:21Z</time>
      </trkpt>
      <trkpt lat="44.37157" lon="5.26319">
        <ele>474.07</ele>
        <time>2011-08-19T07:39:35Z</time>
      </trkpt>
      <trkpt lat="44.37142" lon="5.26359">
        <ele>476.47</ele>
        <time>2011-08-19T07:39:54Z</time>
      </trkpt>
      <trkpt lat="44.37127" lon="5.26396">
        <ele>479.84</ele>
        <time>2011-08-19T07:40:12Z</time>
      </trkpt>
      <trkpt lat="44.37115" lon="5.26426">
        <ele>483.2</ele>
        <time>2011-08-19T07:40:27Z</time>
      </trkpt>
      <trkpt lat="44.37104" lon="5.26458">
        <ele>486.56</ele>
        <time>2011-08-19T07:40:43Z</time>
      </trkpt>
      <trkpt lat="44.37086" lon="5.2649">
        <ele>489.45</ele>
        <time>2011-08-19T07:41:01Z</time>
      </trkpt>
      <trkpt lat="44.37068" lon="5.26517">
        <ele>491.85</ele>
        <time>2011-08-19T07:41:17Z</time>
      </trkpt>
      <trkpt lat="44.37044" lon="5.26545">
        <ele>494.74</ele>
        <time>2011-08-19T07:41:34Z</time>
      </trkpt>
      <trkpt lat="44.37013" lon="5.26574">
        <ele>497.14</ele>
        <time>2011-08-19T07:41:52Z</time>
      </trkpt>
      <trkpt lat="44.37005" lon="5.26628">
        <ele>498.1</ele>
        <time>2011-08-19T07:42:06Z</time>
      </trkpt>
      <trkpt lat="44.37002" lon="5.26695">
        <ele>500.5</ele>
        <time>2011-08-19T07:42:22Z</time>
      </trkpt>
      <trkpt lat="44.36995" lon="5.26745">
        <ele>503.39</ele>
        <time>2011-08-19T07:42:37Z</time>
      </trkpt>
      <trkpt lat="44.36999" lon="5.26781">
        <ele>506.75</ele>
        <time>2011-08-19T07:42:49Z</time>
      </trkpt>
      <trkpt lat="44.37004" lon="5.26824">
        <ele>509.64</ele>
        <time>2011-08-19T07:43:05Z</time>
      </trkpt>
      <trkpt lat="44.37007" lon="5.26857">
        <ele>513</ele>
        <time>2011-08-19T07:43:19Z</time>
      </trkpt>
      <trkpt lat="44.37016" lon="5.26879">
        <ele>515.4</ele>
        <time>2011-08-19T07:43:30Z</time>
      </trkpt>
      <trkpt lat="44.37026" lon="5.269">
        <ele>517.81</ele>
        <time>2011-08-19T07:43:45Z</time>
      </trkpt>
      <trkpt lat="44.37026" lon="5.269">
        <ele>513.96</ele>
        <time>2011-08-19T07:43:53Z</time>
      </trkpt>
      <trkpt lat="44.37026" lon="5.269">
        <ele>523.09</ele>
        <time>2011-08-19T07:43:54Z</time>
      </trkpt>
      <trkpt lat="44.37026" lon="5.269">
        <ele>516.85</ele>
        <time>2011-08-19T07:43:56Z</time>
      </trkpt>
      <trkpt lat="44.37026" lon="5.269">
        <ele>521.65</ele>
        <time>2011-08-19T07:43:57Z</time>
      </trkpt>
      <trkpt lat="44.37026" lon="5.269">
        <ele>516.37</ele>
        <time>2011-08-19T07:43:58Z</time>
      </trkpt>
      <trkpt lat="44.37026" lon="5.269">
        <ele>521.65</ele>
        <time>2011-08-19T07:44:02Z</time>
      </trkpt>
      <trkpt lat="44.37026" lon="5.269">
        <ele>516.85</ele>
        <time>2011-08-19T07:44:03Z</time>
      </trkpt>
      <trkpt lat="44.37025" lon="5.26901">
        <ele>518.29</ele>
        <time>2011-08-19T07:44:26Z</time>
      </trkpt>
      <trkpt lat="44.37024" lon="5.26903">
        <ele>517.81</ele>
        <time>2011-08-19T07:44:27Z</time>
      </trkpt>
      <trkpt lat="44.37024" lon="5.26905">
        <ele>517.33</ele>
        <time>2011-08-19T07:44:40Z</time>
      </trkpt>
      <trkpt lat="44.37024" lon="5.26906">
        <ele>517.33</ele>
        <time>2011-08-19T07:44:58Z</time>
      </trkpt>
      <trkpt lat="44.37024" lon="5.26905">
        <ele>517.33</ele>
        <time>2011-08-19T07:45:33Z</time>
      </trkpt>
      <trkpt lat="44.37024" lon="5.26905">
        <ele>517.33</ele>
        <time>2011-08-19T07:46:06Z</time>
      </trkpt>
      <trkpt lat="44.37024" lon="5.26905">
        <ele>517.33</ele>
        <time>2011-08-19T07:46:38Z</time>
      </trkpt>
      <trkpt lat="44.37024" lon="5.26905">
        <ele>517.81</ele>
        <time>2011-08-19T07:47:14Z</time>
      </trkpt>
      <trkpt lat="44.37024" lon="5.26905">
        <ele>517.33</ele>
        <time>2011-08-19T07:47:49Z</time>
      </trkpt>
      <trkpt lat="44.37024" lon="5.26905">
        <ele>517.81</ele>
        <time>2011-08-19T07:48:24Z</time>
      </trkpt>
      <trkpt lat="44.37024" lon="5.26905">
        <ele>517.33</ele>
        <time>2011-08-19T07:49:03Z</time>
      </trkpt>
      <trkpt lat="44.37026" lon="5.26903">
        <ele>518.77</ele>
        <time>2011-08-19T07:49:41Z</time>
      </trkpt>
      <trkpt lat="44.37027" lon="5.26904">
        <ele>522.13</ele>
        <time>2011-08-19T07:49:50Z</time>
      </trkpt>
      <trkpt lat="44.37027" lon="5.26904">
        <ele>515.88</ele>
        <time>2011-08-19T07:49:51Z</time>
      </trkpt>
      <trkpt lat="44.37027" lon="5.26904">
        <ele>519.25</ele>
        <time>2011-08-19T07:49:52Z</time>
      </trkpt>
      <trkpt lat="44.37028" lon="5.26904">
        <ele>518.29</ele>
        <time>2011-08-19T07:49:57Z</time>
      </trkpt>
      <trkpt lat="44.37029" lon="5.26905">
        <ele>518.29</ele>
        <time>2011-08-19T07:49:58Z</time>
      </trkpt>
      <trkpt lat="44.37029" lon="5.26907">
        <ele>518.29</ele>
        <time>2011-08-19T07:49:59Z</time>
      </trkpt>
      <trkpt lat="44.3703" lon="5.26909">
        <ele>518.29</ele>
        <time>2011-08-19T07:50:00Z</time>
      </trkpt>
      <trkpt lat="44.3703" lon="5.26911">
        <ele>518.77</ele>
        <time>2011-08-19T07:50:01Z</time>
      </trkpt>
      <trkpt lat="44.37031" lon="5.26918">
        <ele>518.29</ele>
        <time>2011-08-19T07:50:11Z</time>
      </trkpt>
      <trkpt lat="44.37033" lon="5.26949">
        <ele>516.37</ele>
        <time>2011-08-19T07:50:25Z</time>
      </trkpt>
      <trkpt lat="44.37036" lon="5.27004">
        <ele>512.52</ele>
        <time>2011-08-19T07:50:31Z</time>
      </trkpt>
      <trkpt lat="44.37037" lon="5.27026">
        <ele>512.04</ele>
        <time>2011-08-19T07:50:33Z</time>
      </trkpt>
      <trkpt lat="44.37037" lon="5.2706">
        <ele>510.12</ele>
        <time>2011-08-19T07:50:36Z</time>
      </trkpt>
      <trkpt lat="44.37036" lon="5.27091">
        <ele>508.19</ele>
        <time>2011-08-19T07:50:39Z</time>
      </trkpt>
      <trkpt lat="44.37037" lon="5.27101">
        <ele>507.71</ele>
        <time>2011-08-19T07:50:40Z</time>
      </trkpt>
      <trkpt lat="44.3704" lon="5.2711">
        <ele>507.23</ele>
        <time>2011-08-19T07:50:41Z</time>
      </trkpt>
      <trkpt lat="44.37044" lon="5.27119">
        <ele>505.79</ele>
        <time>2011-08-19T07:50:42Z</time>
      </trkpt>
      <trkpt lat="44.37048" lon="5.27128">
        <ele>505.79</ele>
        <time>2011-08-19T07:50:43Z</time>
      </trkpt>
      <trkpt lat="44.37069" lon="5.27177">
        <ele>502.91</ele>
        <time>2011-08-19T07:50:48Z</time>
      </trkpt>
      <trkpt lat="44.37076" lon="5.27196">
        <ele>501.46</ele>
        <time>2011-08-19T07:50:50Z</time>
      </trkpt>
      <trkpt lat="44.37084" lon="5.27214">
        <ele>500.5</ele>
        <time>2011-08-19T07:50:52Z</time>
      </trkpt>
      <trkpt lat="44.37107" lon="5.27255">
        <ele>497.14</ele>
        <time>2011-08-19T07:50:57Z</time>
      </trkpt>
      <trkpt lat="44.3711" lon="5.27265">
        <ele>496.66</ele>
        <time>2011-08-19T07:50:58Z</time>
      </trkpt>
      <trkpt lat="44.37111" lon="5.27275">
        <ele>496.18</ele>
        <time>2011-08-19T07:50:59Z</time>
      </trkpt>
      <trkpt lat="44.37113" lon="5.27305">
        <ele>494.26</ele>
        <time>2011-08-19T07:51:02Z</time>
      </trkpt>
      <trkpt lat="44.37112" lon="5.27314">
        <ele>494.26</ele>
        <time>2011-08-19T07:51:03Z</time>
      </trkpt>
      <trkpt lat="44.3711" lon="5.27323">
        <ele>493.77</ele>
        <time>2011-08-19T07:51:04Z</time>
      </trkpt>
      <trkpt lat="44.37107" lon="5.27332">
        <ele>493.77</ele>
        <time>2011-08-19T07:51:05Z</time>
      </trkpt>
      <trkpt lat="44.37104" lon="5.27341">
        <ele>493.29</ele>
        <time>2011-08-19T07:51:06Z</time>
      </trkpt>
      <trkpt lat="44.37098" lon="5.2736">
        <ele>492.81</ele>
        <time>2011-08-19T07:51:08Z</time>
      </trkpt>
      <trkpt lat="44.37097" lon="5.2737">
        <ele>491.85</ele>
        <time>2011-08-19T07:51:09Z</time>
      </trkpt>
      <trkpt lat="44.37097" lon="5.27381">
        <ele>491.37</ele>
        <time>2011-08-19T07:51:10Z</time>
      </trkpt>
      <trkpt lat="44.37098" lon="5.27393">
        <ele>490.41</ele>
        <time>2011-08-19T07:51:11Z</time>
      </trkpt>
      <trkpt lat="44.37101" lon="5.27406">
        <ele>488.97</ele>
        <time>2011-08-19T07:51:12Z</time>
      </trkpt>
      <trkpt lat="44.37105" lon="5.27418">
        <ele>488.49</ele>
        <time>2011-08-19T07:51:13Z</time>
      </trkpt>
      <trkpt lat="44.37125" lon="5.27464">
        <ele>485.12</ele>
        <time>2011-08-19T07:51:17Z</time>
      </trkpt>
      <trkpt lat="44.37129" lon="5.27474">
        <ele>484.64</ele>
        <time>2011-08-19T07:51:18Z</time>
      </trkpt>
      <trkpt lat="44.37134" lon="5.27483">
        <ele>484.16</ele>
        <time>2011-08-19T07:51:19Z</time>
      </trkpt>
      <trkpt lat="44.3714" lon="5.2749">
        <ele>484.16</ele>
        <time>2011-08-19T07:51:20Z</time>
      </trkpt>
      <trkpt lat="44.37147" lon="5.27494">
        <ele>483.2</ele>
        <time>2011-08-19T07:51:21Z</time>
      </trkpt>
      <trkpt lat="44.37153" lon="5.27495">
        <ele>483.68</ele>
        <time>2011-08-19T07:51:22Z</time>
      </trkpt>
      <trkpt lat="44.3716" lon="5.27491">
        <ele>484.64</ele>
        <time>2011-08-19T07:51:23Z</time>
      </trkpt>
      <trkpt lat="44.37165" lon="5.27486">
        <ele>484.64</ele>
        <time>2011-08-19T07:51:24Z</time>
      </trkpt>
      <trkpt lat="44.37169" lon="5.27479">
        <ele>485.12</ele>
        <time>2011-08-19T07:51:25Z</time>
      </trkpt>
      <trkpt lat="44.37173" lon="5.27471">
        <ele>486.08</ele>
        <time>2011-08-19T07:51:26Z</time>
      </trkpt>
      <trkpt lat="44.37176" lon="5.27464">
        <ele>486.08</ele>
        <time>2011-08-19T07:51:27Z</time>
      </trkpt>
      <trkpt lat="44.37178" lon="5.27456">
        <ele>486.56</ele>
        <time>2011-08-19T07:51:28Z</time>
      </trkpt>
      <trkpt lat="44.37179" lon="5.27449">
        <ele>487.05</ele>
        <time>2011-08-19T07:51:29Z</time>
      </trkpt>
      <trkpt lat="44.37207" lon="5.27403">
        <ele>489.93</ele>
        <time>2011-08-19T07:51:40Z</time>
      </trkpt>
      <trkpt lat="44.3724" lon="5.27383">
        <ele>492.81</ele>
        <time>2011-08-19T07:51:52Z</time>
      </trkpt>
      <trkpt lat="44.37249" lon="5.27346">
        <ele>494.74</ele>
        <time>2011-08-19T07:52:02Z</time>
      </trkpt>
      <trkpt lat="44.37262" lon="5.27289">
        <ele>497.14</ele>
        <time>2011-08-19T07:52:18Z</time>
      </trkpt>
      <trkpt lat="44.37289" lon="5.27262">
        <ele>500.02</ele>
        <time>2011-08-19T07:52:32Z</time>
      </trkpt>
      <trkpt lat="44.37325" lon="5.27245">
        <ele>502.43</ele>
        <time>2011-08-19T07:52:47Z</time>
      </trkpt>
      <trkpt lat="44.37361" lon="5.27214">
        <ele>505.31</ele>
        <time>2011-08-19T07:53:04Z</time>
      </trkpt>
      <trkpt lat="44.37356" lon="5.27175">
        <ele>507.71</ele>
        <time>2011-08-19T07:53:16Z</time>
      </trkpt>
      <trkpt lat="44.37357" lon="5.27133">
        <ele>509.64</ele>
        <time>2011-08-19T07:53:28Z</time>
      </trkpt>
      <trkpt lat="44.37384" lon="5.27119">
        <ele>511.56</ele>
        <time>2011-08-19T07:53:40Z</time>
      </trkpt>
      <trkpt lat="44.37414" lon="5.27102">
        <ele>514.92</ele>
        <time>2011-08-19T07:53:54Z</time>
      </trkpt>
      <trkpt lat="44.37448" lon="5.27074">
        <ele>518.29</ele>
        <time>2011-08-19T07:54:11Z</time>
      </trkpt>
      <trkpt lat="44.37478" lon="5.27051">
        <ele>521.17</ele>
        <time>2011-08-19T07:54:27Z</time>
      </trkpt>
      <trkpt lat="44.37508" lon="5.2704">
        <ele>524.54</ele>
        <time>2011-08-19T07:54:43Z</time>
      </trkpt>
      <trkpt lat="44.37532" lon="5.27004">
        <ele>527.42</ele>
        <time>2011-08-19T07:55:00Z</time>
      </trkpt>
      <trkpt lat="44.3755" lon="5.26961">
        <ele>530.3</ele>
        <time>2011-08-19T07:55:18Z</time>
      </trkpt>
      <trkpt lat="44.37574" lon="5.26937">
        <ele>533.19</ele>
        <time>2011-08-19T07:55:33Z</time>
      </trkpt>
      <trkpt lat="44.37599" lon="5.26944">
        <ele>536.07</ele>
        <time>2011-08-19T07:55:47Z</time>
      </trkpt>
      <trkpt lat="44.37612" lon="5.26979">
        <ele>538.48</ele>
        <time>2011-08-19T07:56:01Z</time>
      </trkpt>
      <trkpt lat="44.3761" lon="5.27015">
        <ele>541.84</ele>
        <time>2011-08-19T07:56:14Z</time>
      </trkpt>
      <trkpt lat="44.3759" lon="5.27047">
        <ele>544.72</ele>
        <time>2011-08-19T07:56:29Z</time>
      </trkpt>
      <trkpt lat="44.3757" lon="5.27077">
        <ele>547.13</ele>
        <time>2011-08-19T07:56:43Z</time>
      </trkpt>
      <trkpt lat="44.37545" lon="5.27118">
        <ele>550.01</ele>
        <time>2011-08-19T07:57:01Z</time>
      </trkpt>
      <trkpt lat="44.37517" lon="5.27159">
        <ele>553.38</ele>
        <time>2011-08-19T07:57:20Z</time>
      </trkpt>
      <trkpt lat="44.37517" lon="5.2718">
        <ele>553.86</ele>
        <time>2011-08-19T07:57:28Z</time>
      </trkpt>
      <trkpt lat="44.37519" lon="5.27181">
        <ele>553.86</ele>
        <time>2011-08-19T07:57:29Z</time>
      </trkpt>
      <trkpt lat="44.37521" lon="5.27181">
        <ele>554.82</ele>
        <time>2011-08-19T07:57:30Z</time>
      </trkpt>
      <trkpt lat="44.37523" lon="5.27181">
        <ele>554.82</ele>
        <time>2011-08-19T07:57:31Z</time>
      </trkpt>
      <trkpt lat="44.37525" lon="5.2718">
        <ele>555.3</ele>
        <time>2011-08-19T07:57:32Z</time>
      </trkpt>
      <trkpt lat="44.37527" lon="5.27179">
        <ele>555.3</ele>
        <time>2011-08-19T07:57:33Z</time>
      </trkpt>
      <trkpt lat="44.37556" lon="5.27164">
        <ele>558.18</ele>
        <time>2011-08-19T07:57:48Z</time>
      </trkpt>
      <trkpt lat="44.37583" lon="5.27198">
        <ele>561.55</ele>
        <time>2011-08-19T07:58:05Z</time>
      </trkpt>
      <trkpt lat="44.37618" lon="5.27236">
        <ele>564.43</ele>
        <time>2011-08-19T07:58:24Z</time>
      </trkpt>
      <trkpt lat="44.3765" lon="5.2726">
        <ele>567.32</ele>
        <time>2011-08-19T07:58:40Z</time>
      </trkpt>
      <trkpt lat="44.37678" lon="5.27276">
        <ele>570.68</ele>
        <time>2011-08-19T07:58:55Z</time>
      </trkpt>
      <trkpt lat="44.37709" lon="5.27239">
        <ele>572.6</ele>
        <time>2011-08-19T07:59:13Z</time>
      </trkpt>
      <trkpt lat="44.3774" lon="5.27226">
        <ele>575.49</ele>
        <time>2011-08-19T07:59:29Z</time>
      </trkpt>
      <trkpt lat="44.37769" lon="5.27242">
        <ele>578.85</ele>
        <time>2011-08-19T07:59:46Z</time>
      </trkpt>
      <trkpt lat="44.37769" lon="5.27244">
        <ele>579.33</ele>
        <time>2011-08-19T07:59:47Z</time>
      </trkpt>
      <trkpt lat="44.37749" lon="5.2728">
        <ele>581.73</ele>
        <time>2011-08-19T08:00:04Z</time>
      </trkpt>
      <trkpt lat="44.37732" lon="5.27317">
        <ele>584.62</ele>
        <time>2011-08-19T08:00:18Z</time>
      </trkpt>
      <trkpt lat="44.37709" lon="5.27365">
        <ele>586.06</ele>
        <time>2011-08-19T08:00:35Z</time>
      </trkpt>
      <trkpt lat="44.37676" lon="5.27385">
        <ele>589.43</ele>
        <time>2011-08-19T08:00:50Z</time>
      </trkpt>
      <trkpt lat="44.37648" lon="5.27428">
        <ele>592.31</ele>
        <time>2011-08-19T08:01:09Z</time>
      </trkpt>
      <trkpt lat="44.37634" lon="5.27476">
        <ele>595.19</ele>
        <time>2011-08-19T08:01:26Z</time>
      </trkpt>
      <trkpt lat="44.37629" lon="5.27519">
        <ele>598.56</ele>
        <time>2011-08-19T08:01:41Z</time>
      </trkpt>
      <trkpt lat="44.3761" lon="5.27549">
        <ele>600.96</ele>
        <time>2011-08-19T08:01:56Z</time>
      </trkpt>
      <trkpt lat="44.37595" lon="5.2758">
        <ele>603.85</ele>
        <time>2011-08-19T08:02:11Z</time>
      </trkpt>
      <trkpt lat="44.37594" lon="5.27625">
        <ele>606.73</ele>
        <time>2011-08-19T08:02:29Z</time>
      </trkpt>
      <trkpt lat="44.37606" lon="5.27664">
        <ele>610.09</ele>
        <time>2011-08-19T08:02:45Z</time>
      </trkpt>
      <trkpt lat="44.3762" lon="5.27703">
        <ele>612.02</ele>
        <time>2011-08-19T08:03:01Z</time>
      </trkpt>
      <trkpt lat="44.37631" lon="5.27722">
        <ele>613.94</ele>
        <time>2011-08-19T08:03:10Z</time>
      </trkpt>
      <trkpt lat="44.37633" lon="5.27722">
        <ele>614.42</ele>
        <time>2011-08-19T08:03:11Z</time>
      </trkpt>
      <trkpt lat="44.37634" lon="5.27723">
        <ele>614.42</ele>
        <time>2011-08-19T08:03:12Z</time>
      </trkpt>
      <trkpt lat="44.37636" lon="5.27724">
        <ele>614.42</ele>
        <time>2011-08-19T08:03:13Z</time>
      </trkpt>
      <trkpt lat="44.37638" lon="5.27723">
        <ele>614.42</ele>
        <time>2011-08-19T08:03:14Z</time>
      </trkpt>
      <trkpt lat="44.37639" lon="5.27722">
        <ele>614.9</ele>
        <time>2011-08-19T08:03:15Z</time>
      </trkpt>
      <trkpt lat="44.3764" lon="5.27721">
        <ele>615.38</ele>
        <time>2011-08-19T08:03:16Z</time>
      </trkpt>
      <trkpt lat="44.37642" lon="5.2772">
        <ele>615.38</ele>
        <time>2011-08-19T08:03:17Z</time>
      </trkpt>
      <trkpt lat="44.37643" lon="5.27719">
        <ele>615.86</ele>
        <time>2011-08-19T08:03:18Z</time>
      </trkpt>
      <trkpt lat="44.37655" lon="5.27685">
        <ele>618.26</ele>
        <time>2011-08-19T08:03:33Z</time>
      </trkpt>
      <trkpt lat="44.37671" lon="5.27645">
        <ele>621.15</ele>
        <time>2011-08-19T08:03:50Z</time>
      </trkpt>
      <trkpt lat="44.37696" lon="5.27618">
        <ele>624.51</ele>
        <time>2011-08-19T08:04:07Z</time>
      </trkpt>
      <trkpt lat="44.37722" lon="5.2761">
        <ele>627.4</ele>
        <time>2011-08-19T08:04:22Z</time>
      </trkpt>
      <trkpt lat="44.37753" lon="5.27601">
        <ele>630.28</ele>
        <time>2011-08-19T08:04:40Z</time>
      </trkpt>
      <trkpt lat="44.37787" lon="5.27594">
        <ele>632.68</ele>
        <time>2011-08-19T08:04:59Z</time>
      </trkpt>
      <trkpt lat="44.37821" lon="5.27584">
        <ele>635.57</ele>
        <time>2011-08-19T08:05:15Z</time>
      </trkpt>
      <trkpt lat="44.37855" lon="5.27568">
        <ele>638.93</ele>
        <time>2011-08-19T08:05:32Z</time>
      </trkpt>
      <trkpt lat="44.37877" lon="5.27565">
        <ele>640.86</ele>
        <time>2011-08-19T08:05:43Z</time>
      </trkpt>
      <trkpt lat="44.379" lon="5.2755">
        <ele>643.74</ele>
        <time>2011-08-19T08:05:56Z</time>
      </trkpt>
      <trkpt lat="44.37907" lon="5.27541">
        <ele>643.74</ele>
        <time>2011-08-19T08:06:08Z</time>
      </trkpt>
      <trkpt lat="44.37907" lon="5.27541">
        <ele>639.89</ele>
        <time>2011-08-19T08:06:13Z</time>
      </trkpt>
      <trkpt lat="44.37907" lon="5.27541">
        <ele>644.7</ele>
        <time>2011-08-19T08:06:14Z</time>
      </trkpt>
      <trkpt lat="44.37907" lon="5.27541">
        <ele>644.22</ele>
        <time>2011-08-19T08:06:15Z</time>
      </trkpt>
      <trkpt lat="44.37907" lon="5.27541">
        <ele>646.62</ele>
        <time>2011-08-19T08:06:18Z</time>
      </trkpt>
      <trkpt lat="44.37906" lon="5.27541">
        <ele>639.89</ele>
        <time>2011-08-19T08:06:23Z</time>
      </trkpt>
      <trkpt lat="44.37906" lon="5.27541">
        <ele>643.26</ele>
        <time>2011-08-19T08:06:24Z</time>
      </trkpt>
      <trkpt lat="44.37906" lon="5.27541">
        <ele>646.14</ele>
        <time>2011-08-19T08:06:31Z</time>
      </trkpt>
      <trkpt lat="44.37906" lon="5.27541">
        <ele>643.26</ele>
        <time>2011-08-19T08:06:33Z</time>
      </trkpt>
      <trkpt lat="44.37906" lon="5.27541">
        <ele>647.1</ele>
        <time>2011-08-19T08:06:49Z</time>
      </trkpt>
      <trkpt lat="44.37906" lon="5.27541">
        <ele>644.7</ele>
        <time>2011-08-19T08:06:55Z</time>
      </trkpt>
      <trkpt lat="44.37907" lon="5.27542">
        <ele>644.7</ele>
        <time>2011-08-19T08:07:16Z</time>
      </trkpt>
      <trkpt lat="44.37907" lon="5.27542">
        <ele>644.7</ele>
        <time>2011-08-19T08:07:41Z</time>
      </trkpt>
      <trkpt lat="44.37907" lon="5.27542">
        <ele>644.7</ele>
        <time>2011-08-19T08:07:59Z</time>
      </trkpt>
      <trkpt lat="44.37908" lon="5.27537">
        <ele>644.7</ele>
        <time>2011-08-19T08:08:17Z</time>
      </trkpt>
      <trkpt lat="44.37909" lon="5.27534">
        <ele>644.22</ele>
        <time>2011-08-19T08:08:18Z</time>
      </trkpt>
      <trkpt lat="44.3791" lon="5.27532">
        <ele>645.18</ele>
        <time>2011-08-19T08:08:19Z</time>
      </trkpt>
      <trkpt lat="44.37911" lon="5.2753">
        <ele>644.7</ele>
        <time>2011-08-19T08:08:20Z</time>
      </trkpt>
      <trkpt lat="44.37912" lon="5.27528">
        <ele>644.7</ele>
        <time>2011-08-19T08:08:21Z</time>
      </trkpt>
      <trkpt lat="44.37914" lon="5.27526">
        <ele>645.66</ele>
        <time>2011-08-19T08:08:22Z</time>
      </trkpt>
      <trkpt lat="44.37916" lon="5.27525">
        <ele>645.66</ele>
        <time>2011-08-19T08:08:23Z</time>
      </trkpt>
      <trkpt lat="44.37917" lon="5.27525">
        <ele>645.66</ele>
        <time>2011-08-19T08:08:24Z</time>
      </trkpt>
      <trkpt lat="44.37919" lon="5.27526">
        <ele>645.66</ele>
        <time>2011-08-19T08:08:25Z</time>
      </trkpt>
      <trkpt lat="44.3792" lon="5.27528">
        <ele>646.14</ele>
        <time>2011-08-19T08:08:26Z</time>
      </trkpt>
      <trkpt lat="44.3792" lon="5.27531">
        <ele>646.14</ele>
        <time>2011-08-19T08:08:27Z</time>
      </trkpt>
      <trkpt lat="44.3792" lon="5.27534">
        <ele>646.14</ele>
        <time>2011-08-19T08:08:28Z</time>
      </trkpt>
      <trkpt lat="44.3792" lon="5.27536">
        <ele>646.14</ele>
        <time>2011-08-19T08:08:29Z</time>
      </trkpt>
      <trkpt lat="44.37919" lon="5.27539">
        <ele>646.62</ele>
        <time>2011-08-19T08:08:30Z</time>
      </trkpt>
      <trkpt lat="44.37915" lon="5.2758">
        <ele>649.03</ele>
        <time>2011-08-19T08:08:44Z</time>
      </trkpt>
      <trkpt lat="44.3794" lon="5.27621">
        <ele>650.47</ele>
        <time>2011-08-19T08:09:00Z</time>
      </trkpt>
      <trkpt lat="44.37954" lon="5.27638">
        <ele>650.47</ele>
        <time>2011-08-19T08:09:05Z</time>
      </trkpt>
      <trkpt lat="44.37957" lon="5.27643">
        <ele>650.47</ele>
        <time>2011-08-19T08:09:06Z</time>
      </trkpt>
      <trkpt lat="44.37958" lon="5.27648">
        <ele>649.99</ele>
        <time>2011-08-19T08:09:07Z</time>
      </trkpt>
      <trkpt lat="44.3796" lon="5.27654">
        <ele>649.99</ele>
        <time>2011-08-19T08:09:08Z</time>
      </trkpt>
      <trkpt lat="44.37961" lon="5.27659">
        <ele>650.47</ele>
        <time>2011-08-19T08:09:09Z</time>
      </trkpt>
      <trkpt lat="44.37963" lon="5.27664">
        <ele>649.99</ele>
        <time>2011-08-19T08:09:10Z</time>
      </trkpt>
      <trkpt lat="44.37965" lon="5.27668">
        <ele>650.47</ele>
        <time>2011-08-19T08:09:11Z</time>
      </trkpt>
      <trkpt lat="44.37968" lon="5.27673">
        <ele>649.99</ele>
        <time>2011-08-19T08:09:12Z</time>
      </trkpt>
      <trkpt lat="44.37971" lon="5.27678">
        <ele>649.51</ele>
        <time>2011-08-19T08:09:13Z</time>
      </trkpt>
      <trkpt lat="44.37974" lon="5.27683">
        <ele>649.03</ele>
        <time>2011-08-19T08:09:14Z</time>
      </trkpt>
      <trkpt lat="44.37991" lon="5.2771">
        <ele>649.51</ele>
        <time>2011-08-19T08:09:19Z</time>
      </trkpt>
      <trkpt lat="44.37994" lon="5.27715">
        <ele>649.51</ele>
        <time>2011-08-19T08:09:20Z</time>
      </trkpt>
      <trkpt lat="44.3802" lon="5.27749">
        <ele>652.87</ele>
        <time>2011-08-19T08:09:30Z</time>
      </trkpt>
      <trkpt lat="44.38031" lon="5.27773">
        <ele>655.76</ele>
        <time>2011-08-19T08:09:39Z</time>
      </trkpt>
      <trkpt lat="44.38041" lon="5.27806">
        <ele>658.64</ele>
        <time>2011-08-19T08:09:52Z</time>
      </trkpt>
      <trkpt lat="44.38057" lon="5.27833">
        <ele>662.01</ele>
        <time>2011-08-19T08:10:06Z</time>
      </trkpt>
      <trkpt lat="44.38074" lon="5.27857">
        <ele>665.37</ele>
        <time>2011-08-19T08:10:20Z</time>
      </trkpt>
      <trkpt lat="44.38082" lon="5.27867">
        <ele>667.29</ele>
        <time>2011-08-19T08:10:27Z</time>
      </trkpt>
      <trkpt lat="44.38098" lon="5.27862">
        <ele>669.22</ele>
        <time>2011-08-19T08:10:39Z</time>
      </trkpt>
      <trkpt lat="44.38098" lon="5.27859">
        <ele>669.22</ele>
        <time>2011-08-19T08:10:40Z</time>
      </trkpt>
      <trkpt lat="44.38099" lon="5.27857">
        <ele>669.22</ele>
        <time>2011-08-19T08:10:41Z</time>
      </trkpt>
      <trkpt lat="44.38109" lon="5.27819">
        <ele>671.62</ele>
        <time>2011-08-19T08:10:57Z</time>
      </trkpt>
      <trkpt lat="44.38139" lon="5.27801">
        <ele>671.62</ele>
        <time>2011-08-19T08:11:09Z</time>
      </trkpt>
      <trkpt lat="44.38173" lon="5.27783">
        <ele>674.98</ele>
        <time>2011-08-19T08:11:23Z</time>
      </trkpt>
      <trkpt lat="44.38195" lon="5.27765">
        <ele>677.39</ele>
        <time>2011-08-19T08:11:36Z</time>
      </trkpt>
      <trkpt lat="44.38215" lon="5.27748">
        <ele>680.27</ele>
        <time>2011-08-19T08:11:48Z</time>
      </trkpt>
      <trkpt lat="44.38238" lon="5.2773">
        <ele>683.63</ele>
        <time>2011-08-19T08:12:03Z</time>
      </trkpt>
      <trkpt lat="44.38242" lon="5.27729">
        <ele>683.63</ele>
        <time>2011-08-19T08:12:05Z</time>
      </trkpt>
      <trkpt lat="44.38243" lon="5.27727">
        <ele>683.63</ele>
        <time>2011-08-19T08:12:06Z</time>
      </trkpt>
      <trkpt lat="44.38245" lon="5.27726">
        <ele>683.63</ele>
        <time>2011-08-19T08:12:07Z</time>
      </trkpt>
      <trkpt lat="44.38271" lon="5.27698">
        <ele>686.52</ele>
        <time>2011-08-19T08:12:25Z</time>
      </trkpt>
      <trkpt lat="44.3831" lon="5.27683">
        <ele>688.92</ele>
        <time>2011-08-19T08:12:43Z</time>
      </trkpt>
      <trkpt lat="44.38338" lon="5.27665">
        <ele>692.29</ele>
        <time>2011-08-19T08:12:59Z</time>
      </trkpt>
      <trkpt lat="44.38367" lon="5.27656">
        <ele>694.69</ele>
        <time>2011-08-19T08:13:15Z</time>
      </trkpt>
      <trkpt lat="44.38386" lon="5.27681">
        <ele>697.57</ele>
        <time>2011-08-19T08:13:30Z</time>
      </trkpt>
      <trkpt lat="44.38405" lon="5.27702">
        <ele>700.94</ele>
        <time>2011-08-19T08:13:44Z</time>
      </trkpt>
      <trkpt lat="44.38433" lon="5.27703">
        <ele>703.34</ele>
        <time>2011-08-19T08:14:00Z</time>
      </trkpt>
      <trkpt lat="44.38453" lon="5.27695">
        <ele>706.71</ele>
        <time>2011-08-19T08:14:12Z</time>
      </trkpt>
      <trkpt lat="44.38474" lon="5.27689">
        <ele>708.63</ele>
        <time>2011-08-19T08:14:26Z</time>
      </trkpt>
      <trkpt lat="44.38474" lon="5.27689">
        <ele>704.3</ele>
        <time>2011-08-19T08:14:30Z</time>
      </trkpt>
      <trkpt lat="44.38474" lon="5.27689">
        <ele>712.47</ele>
        <time>2011-08-19T08:14:31Z</time>
      </trkpt>
      <trkpt lat="44.38474" lon="5.27689">
        <ele>706.23</ele>
        <time>2011-08-19T08:14:33Z</time>
      </trkpt>
      <trkpt lat="44.38474" lon="5.27689">
        <ele>708.63</ele>
        <time>2011-08-19T08:14:34Z</time>
      </trkpt>
      <trkpt lat="44.38474" lon="5.27689">
        <ele>703.34</ele>
        <time>2011-08-19T08:14:35Z</time>
      </trkpt>
      <trkpt lat="44.38474" lon="5.27689">
        <ele>710.55</ele>
        <time>2011-08-19T08:14:36Z</time>
      </trkpt>
      <trkpt lat="44.38474" lon="5.27689">
        <ele>708.15</ele>
        <time>2011-08-19T08:14:57Z</time>
      </trkpt>
      <trkpt lat="44.38475" lon="5.27689">
        <ele>708.63</ele>
        <time>2011-08-19T08:15:12Z</time>
      </trkpt>
      <trkpt lat="44.38502" lon="5.27692">
        <ele>710.07</ele>
        <time>2011-08-19T08:15:26Z</time>
      </trkpt>
      <trkpt lat="44.38514" lon="5.27663">
        <ele>711.51</ele>
        <time>2011-08-19T08:15:36Z</time>
      </trkpt>
      <trkpt lat="44.38541" lon="5.27647">
        <ele>711.03</ele>
        <time>2011-08-19T08:15:45Z</time>
      </trkpt>
      <trkpt lat="44.38544" lon="5.27643">
        <ele>711.51</ele>
        <time>2011-08-19T08:15:46Z</time>
      </trkpt>
      <trkpt lat="44.38546" lon="5.27638">
        <ele>711.99</ele>
        <time>2011-08-19T08:15:47Z</time>
      </trkpt>
      <trkpt lat="44.38546" lon="5.27633">
        <ele>711.99</ele>
        <time>2011-08-19T08:15:48Z</time>
      </trkpt>
      <trkpt lat="44.38546" lon="5.27628">
        <ele>712.47</ele>
        <time>2011-08-19T08:15:49Z</time>
      </trkpt>
      <trkpt lat="44.38545" lon="5.27623">
        <ele>712.95</ele>
        <time>2011-08-19T08:15:50Z</time>
      </trkpt>
      <trkpt lat="44.38544" lon="5.27618">
        <ele>713.44</ele>
        <time>2011-08-19T08:15:51Z</time>
      </trkpt>
      <trkpt lat="44.38535" lon="5.27573">
        <ele>716.8</ele>
        <time>2011-08-19T08:16:03Z</time>
      </trkpt>
      <trkpt lat="44.3856" lon="5.27559">
        <ele>718.72</ele>
        <time>2011-08-19T08:16:15Z</time>
      </trkpt>
      <trkpt lat="44.38583" lon="5.2756">
        <ele>721.61</ele>
        <time>2011-08-19T08:16:26Z</time>
      </trkpt>
      <trkpt lat="44.38603" lon="5.27537">
        <ele>724.01</ele>
        <time>2011-08-19T08:16:41Z</time>
      </trkpt>
      <trkpt lat="44.38628" lon="5.2752">
        <ele>725.93</ele>
        <time>2011-08-19T08:16:54Z</time>
      </trkpt>
      <trkpt lat="44.38681" lon="5.27512">
        <ele>727.86</ele>
        <time>2011-08-19T08:17:13Z</time>
      </trkpt>
      <trkpt lat="44.38743" lon="5.27515">
        <ele>728.82</ele>
        <time>2011-08-19T08:17:30Z</time>
      </trkpt>
      <trkpt lat="44.38799" lon="5.2751">
        <ele>730.74</ele>
        <time>2011-08-19T08:17:46Z</time>
      </trkpt>
      <trkpt lat="44.38842" lon="5.27489">
        <ele>733.62</ele>
        <time>2011-08-19T08:17:59Z</time>
      </trkpt>
      <trkpt lat="44.38887" lon="5.27487">
        <ele>736.03</ele>
        <time>2011-08-19T08:18:16Z</time>
      </trkpt>
      <trkpt lat="44.38925" lon="5.27492">
        <ele>737.95</ele>
        <time>2011-08-19T08:18:30Z</time>
      </trkpt>
      <trkpt lat="44.38958" lon="5.27496">
        <ele>740.35</ele>
        <time>2011-08-19T08:18:43Z</time>
      </trkpt>
      <trkpt lat="44.38985" lon="5.27485">
        <ele>742.76</ele>
        <time>2011-08-19T08:18:55Z</time>
      </trkpt>
      <trkpt lat="44.39017" lon="5.2747">
        <ele>745.64</ele>
        <time>2011-08-19T08:19:11Z</time>
      </trkpt>
      <trkpt lat="44.39039" lon="5.27469">
        <ele>749</ele>
        <time>2011-08-19T08:19:24Z</time>
      </trkpt>
      <trkpt lat="44.39061" lon="5.27444">
        <ele>751.89</ele>
        <time>2011-08-19T08:19:39Z</time>
      </trkpt>
      <trkpt lat="44.39085" lon="5.27436">
        <ele>753.33</ele>
        <time>2011-08-19T08:19:51Z</time>
      </trkpt>
      <trkpt lat="44.39118" lon="5.27425">
        <ele>753.81</ele>
        <time>2011-08-19T08:20:05Z</time>
      </trkpt>
      <trkpt lat="44.3914" lon="5.27393">
        <ele>755.73</ele>
        <time>2011-08-19T08:20:16Z</time>
      </trkpt>
      <trkpt lat="44.39164" lon="5.27363">
        <ele>757.66</ele>
        <time>2011-08-19T08:20:29Z</time>
      </trkpt>
      <trkpt lat="44.39184" lon="5.27354">
        <ele>757.66</ele>
        <time>2011-08-19T08:20:36Z</time>
      </trkpt>
      <trkpt lat="44.39186" lon="5.27356">
        <ele>758.14</ele>
        <time>2011-08-19T08:20:37Z</time>
      </trkpt>
      <trkpt lat="44.39188" lon="5.27358">
        <ele>758.14</ele>
        <time>2011-08-19T08:20:38Z</time>
      </trkpt>
      <trkpt lat="44.39191" lon="5.2736">
        <ele>757.66</ele>
        <time>2011-08-19T08:20:39Z</time>
      </trkpt>
      <trkpt lat="44.39193" lon="5.27363">
        <ele>757.66</ele>
        <time>2011-08-19T08:20:40Z</time>
      </trkpt>
      <trkpt lat="44.39196" lon="5.27367">
        <ele>757.66</ele>
        <time>2011-08-19T08:20:41Z</time>
      </trkpt>
      <trkpt lat="44.39198" lon="5.27369">
        <ele>758.14</ele>
        <time>2011-08-19T08:20:42Z</time>
      </trkpt>
      <trkpt lat="44.39201" lon="5.27371">
        <ele>758.62</ele>
        <time>2011-08-19T08:20:43Z</time>
      </trkpt>
      <trkpt lat="44.39236" lon="5.27389">
        <ele>758.14</ele>
        <time>2011-08-19T08:20:54Z</time>
      </trkpt>
      <trkpt lat="44.39239" lon="5.27386">
        <ele>758.14</ele>
        <time>2011-08-19T08:20:55Z</time>
      </trkpt>
      <trkpt lat="44.39241" lon="5.27382">
        <ele>758.14</ele>
        <time>2011-08-19T08:20:56Z</time>
      </trkpt>
      <trkpt lat="44.39241" lon="5.27378">
        <ele>758.14</ele>
        <time>2011-08-19T08:20:57Z</time>
      </trkpt>
      <trkpt lat="44.3924" lon="5.27373">
        <ele>759.1</ele>
        <time>2011-08-19T08:20:58Z</time>
      </trkpt>
      <trkpt lat="44.39238" lon="5.27369">
        <ele>759.1</ele>
        <time>2011-08-19T08:20:59Z</time>
      </trkpt>
      <trkpt lat="44.39237" lon="5.27365">
        <ele>759.58</ele>
        <time>2011-08-19T08:21:00Z</time>
      </trkpt>
      <trkpt lat="44.39234" lon="5.27327">
        <ele>762.46</ele>
        <time>2011-08-19T08:21:10Z</time>
      </trkpt>
      <trkpt lat="44.39236" lon="5.27303">
        <ele>764.87</ele>
        <time>2011-08-19T08:21:18Z</time>
      </trkpt>
      <trkpt lat="44.39237" lon="5.27301">
        <ele>764.87</ele>
        <time>2011-08-19T08:21:19Z</time>
      </trkpt>
      <trkpt lat="44.39237" lon="5.27298">
        <ele>765.35</ele>
        <time>2011-08-19T08:21:20Z</time>
      </trkpt>
      <trkpt lat="44.39255" lon="5.27269">
        <ele>766.79</ele>
        <time>2011-08-19T08:21:36Z</time>
      </trkpt>
      <trkpt lat="44.39259" lon="5.27267">
        <ele>770.15</ele>
        <time>2011-08-19T08:21:46Z</time>
      </trkpt>
      <trkpt lat="44.39259" lon="5.27267">
        <ele>766.79</ele>
        <time>2011-08-19T08:21:47Z</time>
      </trkpt>
      <trkpt lat="44.39259" lon="5.27267">
        <ele>773.52</ele>
        <time>2011-08-19T08:21:48Z</time>
      </trkpt>
      <trkpt lat="44.39259" lon="5.27267">
        <ele>767.27</ele>
        <time>2011-08-19T08:21:49Z</time>
      </trkpt>
      <trkpt lat="44.39259" lon="5.27267">
        <ele>761.02</ele>
        <time>2011-08-19T08:21:50Z</time>
      </trkpt>
      <trkpt lat="44.39259" lon="5.27267">
        <ele>772.08</ele>
        <time>2011-08-19T08:21:51Z</time>
      </trkpt>
      <trkpt lat="44.39259" lon="5.27267">
        <ele>767.27</ele>
        <time>2011-08-19T08:21:52Z</time>
      </trkpt>
      <trkpt lat="44.39259" lon="5.27268">
        <ele>766.79</ele>
        <time>2011-08-19T08:22:10Z</time>
      </trkpt>
      <trkpt lat="44.39259" lon="5.27268">
        <ele>766.31</ele>
        <time>2011-08-19T08:22:49Z</time>
      </trkpt>
      <trkpt lat="44.39259" lon="5.27269">
        <ele>766.79</ele>
        <time>2011-08-19T08:23:33Z</time>
      </trkpt>
      <trkpt lat="44.39258" lon="5.27268">
        <ele>766.79</ele>
        <time>2011-08-19T08:24:13Z</time>
      </trkpt>
      <trkpt lat="44.39258" lon="5.27268">
        <ele>761.02</ele>
        <time>2011-08-19T08:24:16Z</time>
      </trkpt>
      <trkpt lat="44.39258" lon="5.27268">
        <ele>768.23</ele>
        <time>2011-08-19T08:24:17Z</time>
      </trkpt>
      <trkpt lat="44.39258" lon="5.27268">
        <ele>764.39</ele>
        <time>2011-08-19T08:24:24Z</time>
      </trkpt>
      <trkpt lat="44.39258" lon="5.27268">
        <ele>768.23</ele>
        <time>2011-08-19T08:24:25Z</time>
      </trkpt>
      <trkpt lat="44.39258" lon="5.27268">
        <ele>767.27</ele>
        <time>2011-08-19T08:24:36Z</time>
      </trkpt>
      <trkpt lat="44.39271" lon="5.27261">
        <ele>766.79</ele>
        <time>2011-08-19T08:24:48Z</time>
      </trkpt>
      <trkpt lat="44.39279" lon="5.2726">
        <ele>766.31</ele>
        <time>2011-08-19T08:24:50Z</time>
      </trkpt>
      <trkpt lat="44.39284" lon="5.27262">
        <ele>765.83</ele>
        <time>2011-08-19T08:24:51Z</time>
      </trkpt>
      <trkpt lat="44.39288" lon="5.27264">
        <ele>765.35</ele>
        <time>2011-08-19T08:24:52Z</time>
      </trkpt>
      <trkpt lat="44.39298" lon="5.27271">
        <ele>764.39</ele>
        <time>2011-08-19T08:24:54Z</time>
      </trkpt>
      <trkpt lat="44.39303" lon="5.27274">
        <ele>763.9</ele>
        <time>2011-08-19T08:24:55Z</time>
      </trkpt>
      <trkpt lat="44.39318" lon="5.27283">
        <ele>762.46</ele>
        <time>2011-08-19T08:24:58Z</time>
      </trkpt>
      <trkpt lat="44.39323" lon="5.27287">
        <ele>762.46</ele>
        <time>2011-08-19T08:24:59Z</time>
      </trkpt>
      <trkpt lat="44.39328" lon="5.2729">
        <ele>761.5</ele>
        <time>2011-08-19T08:25:00Z</time>
      </trkpt>
      <trkpt lat="44.39333" lon="5.27291">
        <ele>761.5</ele>
        <time>2011-08-19T08:25:01Z</time>
      </trkpt>
      <trkpt lat="44.39339" lon="5.27289">
        <ele>761.98</ele>
        <time>2011-08-19T08:25:02Z</time>
      </trkpt>
      <trkpt lat="44.39343" lon="5.27285">
        <ele>761.5</ele>
        <time>2011-08-19T08:25:03Z</time>
      </trkpt>
      <trkpt lat="44.39347" lon="5.2728">
        <ele>761.02</ele>
        <time>2011-08-19T08:25:04Z</time>
      </trkpt>
      <trkpt lat="44.39352" lon="5.27276">
        <ele>760.54</ele>
        <time>2011-08-19T08:25:05Z</time>
      </trkpt>
      <trkpt lat="44.39378" lon="5.2725">
        <ele>757.66</ele>
        <time>2011-08-19T08:25:10Z</time>
      </trkpt>
      <trkpt lat="44.39383" lon="5.27246">
        <ele>757.18</ele>
        <time>2011-08-19T08:25:11Z</time>
      </trkpt>
      <trkpt lat="44.39402" lon="5.27236">
        <ele>754.77</ele>
        <time>2011-08-19T08:25:14Z</time>
      </trkpt>
      <trkpt lat="44.39407" lon="5.27231">
        <ele>754.77</ele>
        <time>2011-08-19T08:25:15Z</time>
      </trkpt>
      <trkpt lat="44.39445" lon="5.27199">
        <ele>753.33</ele>
        <time>2011-08-19T08:25:22Z</time>
      </trkpt>
      <trkpt lat="44.39451" lon="5.27195">
        <ele>753.33</ele>
        <time>2011-08-19T08:25:23Z</time>
      </trkpt>
      <trkpt lat="44.39457" lon="5.27191">
        <ele>753.33</ele>
        <time>2011-08-19T08:25:24Z</time>
      </trkpt>
      <trkpt lat="44.39462" lon="5.27185">
        <ele>752.85</ele>
        <time>2011-08-19T08:25:25Z</time>
      </trkpt>
      <trkpt lat="44.39465" lon="5.27178">
        <ele>753.33</ele>
        <time>2011-08-19T08:25:26Z</time>
      </trkpt>
      <trkpt lat="44.39467" lon="5.2717">
        <ele>752.85</ele>
        <time>2011-08-19T08:25:27Z</time>
      </trkpt>
      <trkpt lat="44.39468" lon="5.27162">
        <ele>752.85</ele>
        <time>2011-08-19T08:25:28Z</time>
      </trkpt>
      <trkpt lat="44.39469" lon="5.27154">
        <ele>752.37</ele>
        <time>2011-08-19T08:25:29Z</time>
      </trkpt>
      <trkpt lat="44.39469" lon="5.27138">
        <ele>751.41</ele>
        <time>2011-08-19T08:25:31Z</time>
      </trkpt>
      <trkpt lat="44.39473" lon="5.27103">
        <ele>750.45</ele>
        <time>2011-08-19T08:25:35Z</time>
      </trkpt>
      <trkpt lat="44.39473" lon="5.27094">
        <ele>749.97</ele>
        <time>2011-08-19T08:25:36Z</time>
      </trkpt>
      <trkpt lat="44.39472" lon="5.27085">
        <ele>749.97</ele>
        <time>2011-08-19T08:25:37Z</time>
      </trkpt>
      <trkpt lat="44.39471" lon="5.27076">
        <ele>749.97</ele>
        <time>2011-08-19T08:25:38Z</time>
      </trkpt>
      <trkpt lat="44.39469" lon="5.27067">
        <ele>749.49</ele>
        <time>2011-08-19T08:25:39Z</time>
      </trkpt>
      <trkpt lat="44.39468" lon="5.27058">
        <ele>749</ele>
        <time>2011-08-19T08:25:40Z</time>
      </trkpt>
      <trkpt lat="44.39468" lon="5.27048">
        <ele>749.49</ele>
        <time>2011-08-19T08:25:41Z</time>
      </trkpt>
      <trkpt lat="44.39469" lon="5.2702">
        <ele>749</ele>
        <time>2011-08-19T08:25:44Z</time>
      </trkpt>
      <trkpt lat="44.39474" lon="5.26995">
        <ele>748.52</ele>
        <time>2011-08-19T08:25:47Z</time>
      </trkpt>
      <trkpt lat="44.39476" lon="5.26987">
        <ele>749</ele>
        <time>2011-08-19T08:25:48Z</time>
      </trkpt>
      <trkpt lat="44.39478" lon="5.26973">
        <ele>750.45</ele>
        <time>2011-08-19T08:25:50Z</time>
      </trkpt>
      <trkpt lat="44.39484" lon="5.26945">
        <ele>751.89</ele>
        <time>2011-08-19T08:25:56Z</time>
      </trkpt>
      <trkpt lat="44.39491" lon="5.26928">
        <ele>752.85</ele>
        <time>2011-08-19T08:26:01Z</time>
      </trkpt>
      <trkpt lat="44.39494" lon="5.26927">
        <ele>753.33</ele>
        <time>2011-08-19T08:26:02Z</time>
      </trkpt>
      <trkpt lat="44.39496" lon="5.26926">
        <ele>753.33</ele>
        <time>2011-08-19T08:26:03Z</time>
      </trkpt>
      <trkpt lat="44.39532" lon="5.26912">
        <ele>756.21</ele>
        <time>2011-08-19T08:26:16Z</time>
      </trkpt>
      <trkpt lat="44.3954" lon="5.26871">
        <ele>758.14</ele>
        <time>2011-08-19T08:26:28Z</time>
      </trkpt>
      <trkpt lat="44.39529" lon="5.26808">
        <ele>759.58</ele>
        <time>2011-08-19T08:26:43Z</time>
      </trkpt>
      <trkpt lat="44.3953" lon="5.26805">
        <ele>759.1</ele>
        <time>2011-08-19T08:26:44Z</time>
      </trkpt>
      <trkpt lat="44.39532" lon="5.26802">
        <ele>759.58</ele>
        <time>2011-08-19T08:26:45Z</time>
      </trkpt>
      <trkpt lat="44.39533" lon="5.26801">
        <ele>759.1</ele>
        <time>2011-08-19T08:26:46Z</time>
      </trkpt>
      <trkpt lat="44.39536" lon="5.26802">
        <ele>758.62</ele>
        <time>2011-08-19T08:26:47Z</time>
      </trkpt>
      <trkpt lat="44.39538" lon="5.26805">
        <ele>759.1</ele>
        <time>2011-08-19T08:26:48Z</time>
      </trkpt>
      <trkpt lat="44.39568" lon="5.26836">
        <ele>759.1</ele>
        <time>2011-08-19T08:26:59Z</time>
      </trkpt>
      <trkpt lat="44.39587" lon="5.26839">
        <ele>759.58</ele>
        <time>2011-08-19T08:27:04Z</time>
      </trkpt>
      <trkpt lat="44.3959" lon="5.26838">
        <ele>759.58</ele>
        <time>2011-08-19T08:27:05Z</time>
      </trkpt>
      <trkpt lat="44.3964" lon="5.26834">
        <ele>760.54</ele>
        <time>2011-08-19T08:27:18Z</time>
      </trkpt>
      <trkpt lat="44.39655" lon="5.26848">
        <ele>759.58</ele>
        <time>2011-08-19T08:27:23Z</time>
      </trkpt>
      <trkpt lat="44.3966" lon="5.26851">
        <ele>760.06</ele>
        <time>2011-08-19T08:27:24Z</time>
      </trkpt>
      <trkpt lat="44.39664" lon="5.26852">
        <ele>759.58</ele>
        <time>2011-08-19T08:27:25Z</time>
      </trkpt>
      <trkpt lat="44.39682" lon="5.26853">
        <ele>759.1</ele>
        <time>2011-08-19T08:27:29Z</time>
      </trkpt>
      <trkpt lat="44.39692" lon="5.26856">
        <ele>759.1</ele>
        <time>2011-08-19T08:27:31Z</time>
      </trkpt>
      <trkpt lat="44.39696" lon="5.26858">
        <ele>759.58</ele>
        <time>2011-08-19T08:27:32Z</time>
      </trkpt>
      <trkpt lat="44.39734" lon="5.26885">
        <ele>761.5</ele>
        <time>2011-08-19T08:27:43Z</time>
      </trkpt>
      <trkpt lat="44.39777" lon="5.269">
        <ele>762.46</ele>
        <time>2011-08-19T08:27:55Z</time>
      </trkpt>
      <trkpt lat="44.39809" lon="5.26905">
        <ele>760.54</ele>
        <time>2011-08-19T08:28:02Z</time>
      </trkpt>
      <trkpt lat="44.39814" lon="5.26904">
        <ele>760.54</ele>
        <time>2011-08-19T08:28:03Z</time>
      </trkpt>
      <trkpt lat="44.39833" lon="5.26903">
        <ele>758.62</ele>
        <time>2011-08-19T08:28:08Z</time>
      </trkpt>
      <trkpt lat="44.39833" lon="5.26903">
        <ele>759.1</ele>
        <time>2011-08-19T08:28:21Z</time>
      </trkpt>
      <trkpt lat="44.39834" lon="5.26903">
        <ele>758.62</ele>
        <time>2011-08-19T08:28:53Z</time>
      </trkpt>
      <trkpt lat="44.39834" lon="5.26903">
        <ele>760.06</ele>
        <time>2011-08-19T08:29:23Z</time>
      </trkpt>
      <trkpt lat="44.39835" lon="5.26903">
        <ele>759.58</ele>
        <time>2011-08-19T08:29:39Z</time>
      </trkpt>
      <trkpt lat="44.39841" lon="5.26902">
        <ele>759.1</ele>
        <time>2011-08-19T08:29:42Z</time>
      </trkpt>
      <trkpt lat="44.39844" lon="5.26902">
        <ele>759.1</ele>
        <time>2011-08-19T08:29:43Z</time>
      </trkpt>
      <trkpt lat="44.39847" lon="5.26902">
        <ele>759.1</ele>
        <time>2011-08-19T08:29:44Z</time>
      </trkpt>
      <trkpt lat="44.39851" lon="5.26901">
        <ele>758.62</ele>
        <time>2011-08-19T08:29:45Z</time>
      </trkpt>
      <trkpt lat="44.39855" lon="5.269">
        <ele>758.14</ele>
        <time>2011-08-19T08:29:46Z</time>
      </trkpt>
      <trkpt lat="44.39864" lon="5.26899">
        <ele>757.66</ele>
        <time>2011-08-19T08:29:48Z</time>
      </trkpt>
      <trkpt lat="44.39882" lon="5.26902">
        <ele>756.69</ele>
        <time>2011-08-19T08:29:52Z</time>
      </trkpt>
      <trkpt lat="44.39916" lon="5.26923">
        <ele>755.25</ele>
        <time>2011-08-19T08:30:00Z</time>
      </trkpt>
      <trkpt lat="44.39944" lon="5.26959">
        <ele>755.25</ele>
        <time>2011-08-19T08:30:10Z</time>
      </trkpt>
      <trkpt lat="44.39949" lon="5.2701">
        <ele>755.25</ele>
        <time>2011-08-19T08:30:19Z</time>
      </trkpt>
      <trkpt lat="44.39952" lon="5.27018">
        <ele>755.73</ele>
        <time>2011-08-19T08:30:20Z</time>
      </trkpt>
      <trkpt lat="44.39984" lon="5.27092">
        <ele>757.18</ele>
        <time>2011-08-19T08:30:33Z</time>
      </trkpt>
      <trkpt lat="44.3999" lon="5.27116">
        <ele>757.66</ele>
        <time>2011-08-19T08:30:37Z</time>
      </trkpt>
      <trkpt lat="44.39992" lon="5.27121">
        <ele>758.14</ele>
        <time>2011-08-19T08:30:38Z</time>
      </trkpt>
      <trkpt lat="44.39995" lon="5.27124">
        <ele>757.66</ele>
        <time>2011-08-19T08:30:39Z</time>
      </trkpt>
      <trkpt lat="44.39998" lon="5.27125">
        <ele>758.14</ele>
        <time>2011-08-19T08:30:40Z</time>
      </trkpt>
      <trkpt lat="44.40002" lon="5.27125">
        <ele>758.62</ele>
        <time>2011-08-19T08:30:41Z</time>
      </trkpt>
      <trkpt lat="44.40006" lon="5.27126">
        <ele>758.62</ele>
        <time>2011-08-19T08:30:42Z</time>
      </trkpt>
      <trkpt lat="44.40013" lon="5.27127">
        <ele>760.06</ele>
        <time>2011-08-19T08:30:44Z</time>
      </trkpt>
      <trkpt lat="44.40037" lon="5.27143">
        <ele>762.94</ele>
        <time>2011-08-19T08:30:54Z</time>
      </trkpt>
      <trkpt lat="44.40044" lon="5.27196">
        <ele>765.35</ele>
        <time>2011-08-19T08:31:09Z</time>
      </trkpt>
      <trkpt lat="44.40061" lon="5.27256">
        <ele>764.87</ele>
        <time>2011-08-19T08:31:23Z</time>
      </trkpt>
      <trkpt lat="44.4008" lon="5.27282">
        <ele>762.46</ele>
        <time>2011-08-19T08:31:28Z</time>
      </trkpt>
      <trkpt lat="44.40085" lon="5.27286">
        <ele>761.5</ele>
        <time>2011-08-19T08:31:29Z</time>
      </trkpt>
      <trkpt lat="44.40092" lon="5.27288">
        <ele>761.5</ele>
        <time>2011-08-19T08:31:30Z</time>
      </trkpt>
      <trkpt lat="44.40098" lon="5.27288">
        <ele>761.98</ele>
        <time>2011-08-19T08:31:31Z</time>
      </trkpt>
      <trkpt lat="44.40103" lon="5.27286">
        <ele>761.98</ele>
        <time>2011-08-19T08:31:32Z</time>
      </trkpt>
      <trkpt lat="44.40109" lon="5.27285">
        <ele>762.46</ele>
        <time>2011-08-19T08:31:33Z</time>
      </trkpt>
      <trkpt lat="44.40128" lon="5.27282">
        <ele>762.46</ele>
        <time>2011-08-19T08:31:37Z</time>
      </trkpt>
      <trkpt lat="44.40136" lon="5.27282">
        <ele>763.42</ele>
        <time>2011-08-19T08:31:39Z</time>
      </trkpt>
      <trkpt lat="44.40175" lon="5.2729">
        <ele>764.39</ele>
        <time>2011-08-19T08:31:50Z</time>
      </trkpt>
      <trkpt lat="44.40179" lon="5.27293">
        <ele>764.39</ele>
        <time>2011-08-19T08:31:51Z</time>
      </trkpt>
      <trkpt lat="44.40183" lon="5.27297">
        <ele>764.39</ele>
        <time>2011-08-19T08:31:52Z</time>
      </trkpt>
      <trkpt lat="44.40186" lon="5.27301">
        <ele>764.39</ele>
        <time>2011-08-19T08:31:53Z</time>
      </trkpt>
      <trkpt lat="44.40189" lon="5.27306">
        <ele>764.39</ele>
        <time>2011-08-19T08:31:54Z</time>
      </trkpt>
      <trkpt lat="44.40191" lon="5.2731">
        <ele>764.87</ele>
        <time>2011-08-19T08:31:55Z</time>
      </trkpt>
      <trkpt lat="44.40193" lon="5.27315">
        <ele>764.87</ele>
        <time>2011-08-19T08:31:56Z</time>
      </trkpt>
      <trkpt lat="44.40216" lon="5.2733">
        <ele>768.23</ele>
        <time>2011-08-19T08:32:06Z</time>
      </trkpt>
      <trkpt lat="44.40231" lon="5.27336">
        <ele>770.15</ele>
        <time>2011-08-19T08:32:14Z</time>
      </trkpt>
      <trkpt lat="44.40232" lon="5.27336">
        <ele>770.63</ele>
        <time>2011-08-19T08:32:15Z</time>
      </trkpt>
      <trkpt lat="44.40259" lon="5.27349">
        <ele>773.52</ele>
        <time>2011-08-19T08:32:29Z</time>
      </trkpt>
      <trkpt lat="44.40281" lon="5.27361">
        <ele>776.4</ele>
        <time>2011-08-19T08:32:41Z</time>
      </trkpt>
      <trkpt lat="44.40282" lon="5.27386">
        <ele>778.32</ele>
        <time>2011-08-19T08:32:52Z</time>
      </trkpt>
      <trkpt lat="44.40254" lon="5.27394">
        <ele>780.73</ele>
        <time>2011-08-19T08:33:08Z</time>
      </trkpt>
      <trkpt lat="44.40225" lon="5.27403">
        <ele>783.61</ele>
        <time>2011-08-19T08:33:24Z</time>
      </trkpt>
      <trkpt lat="44.40195" lon="5.27404">
        <ele>786.5</ele>
        <time>2011-08-19T08:33:40Z</time>
      </trkpt>
      <trkpt lat="44.40168" lon="5.274">
        <ele>788.9</ele>
        <time>2011-08-19T08:33:55Z</time>
      </trkpt>
      <trkpt lat="44.40133" lon="5.27396">
        <ele>791.78</ele>
        <time>2011-08-19T08:34:14Z</time>
      </trkpt>
      <trkpt lat="44.40102" lon="5.2739">
        <ele>794.67</ele>
        <time>2011-08-19T08:34:31Z</time>
      </trkpt>
      <trkpt lat="44.40071" lon="5.27386">
        <ele>798.03</ele>
        <time>2011-08-19T08:34:48Z</time>
      </trkpt>
      <trkpt lat="44.40044" lon="5.2738">
        <ele>799.95</ele>
        <time>2011-08-19T08:35:03Z</time>
      </trkpt>
      <trkpt lat="44.4002" lon="5.27366">
        <ele>803.32</ele>
        <time>2011-08-19T08:35:17Z</time>
      </trkpt>
      <trkpt lat="44.4" lon="5.27341">
        <ele>805.24</ele>
        <time>2011-08-19T08:35:32Z</time>
      </trkpt>
      <trkpt lat="44.3998" lon="5.27311">
        <ele>807.64</ele>
        <time>2011-08-19T08:35:47Z</time>
      </trkpt>
      <trkpt lat="44.39974" lon="5.27304">
        <ele>808.13</ele>
        <time>2011-08-19T08:35:51Z</time>
      </trkpt>
      <trkpt lat="44.39972" lon="5.27303">
        <ele>808.13</ele>
        <time>2011-08-19T08:35:52Z</time>
      </trkpt>
      <trkpt lat="44.3997" lon="5.27302">
        <ele>808.61</ele>
        <time>2011-08-19T08:35:53Z</time>
      </trkpt>
      <trkpt lat="44.39949" lon="5.27317">
        <ele>811.01</ele>
        <time>2011-08-19T08:36:06Z</time>
      </trkpt>
      <trkpt lat="44.39931" lon="5.27353">
        <ele>813.89</ele>
        <time>2011-08-19T08:36:22Z</time>
      </trkpt>
      <trkpt lat="44.39909" lon="5.27342">
        <ele>816.78</ele>
        <time>2011-08-19T08:36:35Z</time>
      </trkpt>
      <trkpt lat="44.3989" lon="5.27324">
        <ele>819.66</ele>
        <time>2011-08-19T08:36:49Z</time>
      </trkpt>
      <trkpt lat="44.39887" lon="5.27329">
        <ele>819.66</ele>
        <time>2011-08-19T08:36:52Z</time>
      </trkpt>
      <trkpt lat="44.39901" lon="5.27359">
        <ele>822.06</ele>
        <time>2011-08-19T08:37:06Z</time>
      </trkpt>
      <trkpt lat="44.39915" lon="5.27398">
        <ele>824.47</ele>
        <time>2011-08-19T08:37:23Z</time>
      </trkpt>
      <trkpt lat="44.39935" lon="5.2743">
        <ele>827.35</ele>
        <time>2011-08-19T08:37:39Z</time>
      </trkpt>
      <trkpt lat="44.39957" lon="5.27445">
        <ele>829.76</ele>
        <time>2011-08-19T08:37:54Z</time>
      </trkpt>
      <trkpt lat="44.39965" lon="5.27446">
        <ele>830.72</ele>
        <time>2011-08-19T08:38:06Z</time>
      </trkpt>
      <trkpt lat="44.39965" lon="5.27446">
        <ele>836.96</ele>
        <time>2011-08-19T08:38:25Z</time>
      </trkpt>
      <trkpt lat="44.39965" lon="5.27446">
        <ele>831.2</ele>
        <time>2011-08-19T08:38:26Z</time>
      </trkpt>
      <trkpt lat="44.39965" lon="5.27446">
        <ele>826.39</ele>
        <time>2011-08-19T08:38:28Z</time>
      </trkpt>
      <trkpt lat="44.39965" lon="5.27446">
        <ele>830.72</ele>
        <time>2011-08-19T08:38:29Z</time>
      </trkpt>
      <trkpt lat="44.39965" lon="5.27446">
        <ele>826.87</ele>
        <time>2011-08-19T08:38:32Z</time>
      </trkpt>
      <trkpt lat="44.39965" lon="5.27446">
        <ele>830.72</ele>
        <time>2011-08-19T08:38:33Z</time>
      </trkpt>
      <trkpt lat="44.39965" lon="5.27447">
        <ele>831.2</ele>
        <time>2011-08-19T08:39:02Z</time>
      </trkpt>
      <trkpt lat="44.39967" lon="5.27446">
        <ele>831.2</ele>
        <time>2011-08-19T08:39:08Z</time>
      </trkpt>
      <trkpt lat="44.39969" lon="5.27445">
        <ele>830.72</ele>
        <time>2011-08-19T08:39:09Z</time>
      </trkpt>
      <trkpt lat="44.3997" lon="5.27446">
        <ele>831.2</ele>
        <time>2011-08-19T08:39:10Z</time>
      </trkpt>
      <trkpt lat="44.39972" lon="5.27453">
        <ele>831.68</ele>
        <time>2011-08-19T08:39:13Z</time>
      </trkpt>
      <trkpt lat="44.39972" lon="5.27455">
        <ele>831.68</ele>
        <time>2011-08-19T08:39:14Z</time>
      </trkpt>
      <trkpt lat="44.39972" lon="5.27458">
        <ele>832.16</ele>
        <time>2011-08-19T08:39:15Z</time>
      </trkpt>
      <trkpt lat="44.39971" lon="5.2746">
        <ele>832.64</ele>
        <time>2011-08-19T08:39:16Z</time>
      </trkpt>
      <trkpt lat="44.39971" lon="5.27463">
        <ele>833.12</ele>
        <time>2011-08-19T08:39:17Z</time>
      </trkpt>
      <trkpt lat="44.39951" lon="5.27479">
        <ele>834.56</ele>
        <time>2011-08-19T08:39:30Z</time>
      </trkpt>
      <trkpt lat="44.39929" lon="5.27474">
        <ele>836.96</ele>
        <time>2011-08-19T08:39:43Z</time>
      </trkpt>
      <trkpt lat="44.39913" lon="5.27448">
        <ele>837.93</ele>
        <time>2011-08-19T08:39:54Z</time>
      </trkpt>
      <trkpt lat="44.39911" lon="5.27449">
        <ele>838.41</ele>
        <time>2011-08-19T08:39:55Z</time>
      </trkpt>
      <trkpt lat="44.39909" lon="5.2745">
        <ele>838.89</ele>
        <time>2011-08-19T08:39:56Z</time>
      </trkpt>
      <trkpt lat="44.39908" lon="5.27452">
        <ele>838.89</ele>
        <time>2011-08-19T08:39:57Z</time>
      </trkpt>
      <trkpt lat="44.39907" lon="5.27455">
        <ele>839.37</ele>
        <time>2011-08-19T08:39:58Z</time>
      </trkpt>
      <trkpt lat="44.39907" lon="5.27457">
        <ele>839.37</ele>
        <time>2011-08-19T08:39:59Z</time>
      </trkpt>
      <trkpt lat="44.39907" lon="5.2746">
        <ele>839.37</ele>
        <time>2011-08-19T08:40:00Z</time>
      </trkpt>
      <trkpt lat="44.39908" lon="5.27463">
        <ele>839.85</ele>
        <time>2011-08-19T08:40:01Z</time>
      </trkpt>
      <trkpt lat="44.39908" lon="5.27465">
        <ele>840.33</ele>
        <time>2011-08-19T08:40:02Z</time>
      </trkpt>
      <trkpt lat="44.39909" lon="5.27468">
        <ele>840.33</ele>
        <time>2011-08-19T08:40:03Z</time>
      </trkpt>
      <trkpt lat="44.39929" lon="5.27508">
        <ele>842.25</ele>
        <time>2011-08-19T08:40:19Z</time>
      </trkpt>
      <trkpt lat="44.39947" lon="5.27542">
        <ele>843.69</ele>
        <time>2011-08-19T08:40:32Z</time>
      </trkpt>
      <trkpt lat="44.39958" lon="5.27572">
        <ele>845.14</ele>
        <time>2011-08-19T08:40:44Z</time>
      </trkpt>
      <trkpt lat="44.39957" lon="5.27575">
        <ele>845.62</ele>
        <time>2011-08-19T08:40:45Z</time>
      </trkpt>
      <trkpt lat="44.39956" lon="5.27577">
        <ele>845.62</ele>
        <time>2011-08-19T08:40:46Z</time>
      </trkpt>
      <trkpt lat="44.39953" lon="5.27581">
        <ele>846.1</ele>
        <time>2011-08-19T08:40:48Z</time>
      </trkpt>
      <trkpt lat="44.3995" lon="5.27581">
        <ele>846.58</ele>
        <time>2011-08-19T08:40:50Z</time>
      </trkpt>
      <trkpt lat="44.39931" lon="5.27556">
        <ele>848.02</ele>
        <time>2011-08-19T08:41:02Z</time>
      </trkpt>
      <trkpt lat="44.39907" lon="5.27519">
        <ele>849.94</ele>
        <time>2011-08-19T08:41:15Z</time>
      </trkpt>
      <trkpt lat="44.39885" lon="5.27482">
        <ele>851.38</ele>
        <time>2011-08-19T08:41:28Z</time>
      </trkpt>
      <trkpt lat="44.39865" lon="5.27455">
        <ele>853.79</ele>
        <time>2011-08-19T08:41:38Z</time>
      </trkpt>
      <trkpt lat="44.39838" lon="5.27414">
        <ele>855.71</ele>
        <time>2011-08-19T08:41:53Z</time>
      </trkpt>
      <trkpt lat="44.39809" lon="5.27411">
        <ele>856.67</ele>
        <time>2011-08-19T08:42:04Z</time>
      </trkpt>
      <trkpt lat="44.3979" lon="5.27382">
        <ele>858.11</ele>
        <time>2011-08-19T08:42:15Z</time>
      </trkpt>
      <trkpt lat="44.39768" lon="5.27338">
        <ele>859.56</ele>
        <time>2011-08-19T08:42:29Z</time>
      </trkpt>
      <trkpt lat="44.39737" lon="5.27279">
        <ele>861.48</ele>
        <time>2011-08-19T08:42:48Z</time>
      </trkpt>
      <trkpt lat="44.39714" lon="5.27248">
        <ele>862.92</ele>
        <time>2011-08-19T08:43:00Z</time>
      </trkpt>
      <trkpt lat="44.39668" lon="5.27233">
        <ele>864.84</ele>
        <time>2011-08-19T08:43:17Z</time>
      </trkpt>
      <trkpt lat="44.39644" lon="5.27248">
        <ele>866.77</ele>
        <time>2011-08-19T08:43:28Z</time>
      </trkpt>
      <trkpt lat="44.39634" lon="5.27283">
        <ele>869.17</ele>
        <time>2011-08-19T08:43:39Z</time>
      </trkpt>
      <trkpt lat="44.39615" lon="5.27317">
        <ele>871.09</ele>
        <time>2011-08-19T08:43:51Z</time>
      </trkpt>
      <trkpt lat="44.3959" lon="5.27347">
        <ele>873.01</ele>
        <time>2011-08-19T08:44:04Z</time>
      </trkpt>
      <trkpt lat="44.39567" lon="5.27383">
        <ele>874.94</ele>
        <time>2011-08-19T08:44:17Z</time>
      </trkpt>
      <trkpt lat="44.39535" lon="5.27392">
        <ele>877.34</ele>
        <time>2011-08-19T08:44:30Z</time>
      </trkpt>
      <trkpt lat="44.39518" lon="5.27418">
        <ele>879.74</ele>
        <time>2011-08-19T08:44:41Z</time>
      </trkpt>
      <trkpt lat="44.39512" lon="5.27431">
        <ele>880.22</ele>
        <time>2011-08-19T08:44:46Z</time>
      </trkpt>
      <trkpt lat="44.3951" lon="5.27432">
        <ele>880.71</ele>
        <time>2011-08-19T08:44:47Z</time>
      </trkpt>
      <trkpt lat="44.39477" lon="5.2745">
        <ele>883.59</ele>
        <time>2011-08-19T08:45:03Z</time>
      </trkpt>
      <trkpt lat="44.39477" lon="5.27452">
        <ele>883.59</ele>
        <time>2011-08-19T08:45:15Z</time>
      </trkpt>
      <trkpt lat="44.39477" lon="5.27452">
        <ele>884.55</ele>
        <time>2011-08-19T08:45:40Z</time>
      </trkpt>
      <trkpt lat="44.39466" lon="5.27477">
        <ele>883.59</ele>
        <time>2011-08-19T08:45:52Z</time>
      </trkpt>
      <trkpt lat="44.39459" lon="5.275">
        <ele>882.15</ele>
        <time>2011-08-19T08:45:57Z</time>
      </trkpt>
      <trkpt lat="44.39454" lon="5.27535">
        <ele>881.67</ele>
        <time>2011-08-19T08:46:03Z</time>
      </trkpt>
      <trkpt lat="44.39452" lon="5.27546">
        <ele>880.71</ele>
        <time>2011-08-19T08:46:05Z</time>
      </trkpt>
      <trkpt lat="44.39449" lon="5.27551">
        <ele>880.71</ele>
        <time>2011-08-19T08:46:06Z</time>
      </trkpt>
      <trkpt lat="44.39447" lon="5.27556">
        <ele>880.71</ele>
        <time>2011-08-19T08:46:07Z</time>
      </trkpt>
      <trkpt lat="44.39413" lon="5.2765">
        <ele>877.82</ele>
        <time>2011-08-19T08:46:21Z</time>
      </trkpt>
      <trkpt lat="44.39408" lon="5.27664">
        <ele>877.34</ele>
        <time>2011-08-19T08:46:23Z</time>
      </trkpt>
      <trkpt lat="44.39405" lon="5.27671">
        <ele>876.38</ele>
        <time>2011-08-19T08:46:24Z</time>
      </trkpt>
      <trkpt lat="44.39387" lon="5.2772">
        <ele>873.5</ele>
        <time>2011-08-19T08:46:31Z</time>
      </trkpt>
      <trkpt lat="44.39384" lon="5.27728">
        <ele>873.01</ele>
        <time>2011-08-19T08:46:32Z</time>
      </trkpt>
      <trkpt lat="44.39383" lon="5.27765">
        <ele>870.61</ele>
        <time>2011-08-19T08:46:38Z</time>
      </trkpt>
      <trkpt lat="44.3939" lon="5.27815">
        <ele>866.77</ele>
        <time>2011-08-19T08:46:43Z</time>
      </trkpt>
      <trkpt lat="44.39398" lon="5.27852">
        <ele>864.36</ele>
        <time>2011-08-19T08:46:46Z</time>
      </trkpt>
      <trkpt lat="44.39402" lon="5.27877">
        <ele>864.84</ele>
        <time>2011-08-19T08:46:48Z</time>
      </trkpt>
      <trkpt lat="44.39404" lon="5.27899">
        <ele>868.21</ele>
        <time>2011-08-19T08:46:51Z</time>
      </trkpt>
      <trkpt lat="44.39404" lon="5.27902">
        <ele>869.17</ele>
        <time>2011-08-19T08:46:53Z</time>
      </trkpt>
      <trkpt lat="44.39404" lon="5.27902">
        <ele>868.69</ele>
        <time>2011-08-19T08:47:07Z</time>
      </trkpt>
      <trkpt lat="44.39404" lon="5.27902">
        <ele>872.05</ele>
        <time>2011-08-19T08:47:12Z</time>
      </trkpt>
      <trkpt lat="44.39404" lon="5.27902">
        <ele>866.77</ele>
        <time>2011-08-19T08:47:13Z</time>
      </trkpt>
      <trkpt lat="44.39404" lon="5.27902">
        <ele>871.09</ele>
        <time>2011-08-19T08:47:14Z</time>
      </trkpt>
      <trkpt lat="44.39404" lon="5.27902">
        <ele>866.77</ele>
        <time>2011-08-19T08:47:19Z</time>
      </trkpt>
      <trkpt lat="44.39404" lon="5.27902">
        <ele>870.13</ele>
        <time>2011-08-19T08:47:20Z</time>
      </trkpt>
      <trkpt lat="44.39404" lon="5.27905">
        <ele>870.61</ele>
        <time>2011-08-19T08:47:29Z</time>
      </trkpt>
      <trkpt lat="44.39403" lon="5.27913">
        <ele>872.53</ele>
        <time>2011-08-19T08:47:34Z</time>
      </trkpt>
      <trkpt lat="44.39397" lon="5.27932">
        <ele>874.94</ele>
        <time>2011-08-19T08:47:48Z</time>
      </trkpt>
      <trkpt lat="44.39395" lon="5.27936">
        <ele>874.94</ele>
        <time>2011-08-19T08:47:58Z</time>
      </trkpt>
      <trkpt lat="44.39394" lon="5.27938">
        <ele>875.42</ele>
        <time>2011-08-19T08:47:59Z</time>
      </trkpt>
      <trkpt lat="44.39394" lon="5.27939">
        <ele>875.42</ele>
        <time>2011-08-19T08:48:00Z</time>
      </trkpt>
      <trkpt lat="44.3939" lon="5.27947">
        <ele>876.86</ele>
        <time>2011-08-19T08:48:05Z</time>
      </trkpt>
      <trkpt lat="44.39389" lon="5.27949">
        <ele>877.82</ele>
        <time>2011-08-19T08:48:06Z</time>
      </trkpt>
      <trkpt lat="44.39389" lon="5.27951">
        <ele>877.34</ele>
        <time>2011-08-19T08:48:07Z</time>
      </trkpt>
      <trkpt lat="44.39387" lon="5.27956">
        <ele>878.3</ele>
        <time>2011-08-19T08:48:10Z</time>
      </trkpt>
      <trkpt lat="44.39386" lon="5.27957">
        <ele>878.3</ele>
        <time>2011-08-19T08:48:11Z</time>
      </trkpt>
      <trkpt lat="44.39386" lon="5.27959">
        <ele>878.78</ele>
        <time>2011-08-19T08:48:12Z</time>
      </trkpt>
      <trkpt lat="44.39385" lon="5.27963">
        <ele>879.26</ele>
        <time>2011-08-19T08:48:14Z</time>
      </trkpt>
      <trkpt lat="44.39386" lon="5.27965">
        <ele>879.26</ele>
        <time>2011-08-19T08:48:15Z</time>
      </trkpt>
      <trkpt lat="44.39382" lon="5.2799">
        <ele>880.22</ele>
        <time>2011-08-19T08:48:26Z</time>
      </trkpt>
      <trkpt lat="44.39382" lon="5.27993">
        <ele>879.74</ele>
        <time>2011-08-19T08:48:27Z</time>
      </trkpt>
      <trkpt lat="44.39382" lon="5.27995">
        <ele>880.71</ele>
        <time>2011-08-19T08:48:28Z</time>
      </trkpt>
      <trkpt lat="44.39381" lon="5.27998">
        <ele>879.74</ele>
        <time>2011-08-19T08:48:29Z</time>
      </trkpt>
      <trkpt lat="44.39382" lon="5.28001">
        <ele>880.22</ele>
        <time>2011-08-19T08:48:30Z</time>
      </trkpt>
      <trkpt lat="44.39382" lon="5.28002">
        <ele>880.22</ele>
        <time>2011-08-19T08:48:31Z</time>
      </trkpt>
      <trkpt lat="44.39382" lon="5.28005">
        <ele>880.71</ele>
        <time>2011-08-19T08:48:32Z</time>
      </trkpt>
      <trkpt lat="44.39382" lon="5.28008">
        <ele>880.71</ele>
        <time>2011-08-19T08:48:33Z</time>
      </trkpt>
      <trkpt lat="44.39381" lon="5.2801">
        <ele>880.71</ele>
        <time>2011-08-19T08:48:34Z</time>
      </trkpt>
      <trkpt lat="44.39381" lon="5.28013">
        <ele>881.19</ele>
        <time>2011-08-19T08:48:35Z</time>
      </trkpt>
      <trkpt lat="44.39381" lon="5.28016">
        <ele>881.19</ele>
        <time>2011-08-19T08:48:36Z</time>
      </trkpt>
      <trkpt lat="44.39381" lon="5.28018">
        <ele>881.67</ele>
        <time>2011-08-19T08:48:37Z</time>
      </trkpt>
      <trkpt lat="44.3938" lon="5.2802">
        <ele>882.63</ele>
        <time>2011-08-19T08:48:38Z</time>
      </trkpt>
      <trkpt lat="44.39379" lon="5.28023">
        <ele>882.15</ele>
        <time>2011-08-19T08:48:39Z</time>
      </trkpt>
      <trkpt lat="44.39376" lon="5.28049">
        <ele>885.03</ele>
        <time>2011-08-19T08:48:52Z</time>
      </trkpt>
      <trkpt lat="44.3937" lon="5.28079">
        <ele>888.88</ele>
        <time>2011-08-19T08:49:08Z</time>
      </trkpt>
      <trkpt lat="44.3937" lon="5.28084">
        <ele>888.88</ele>
        <time>2011-08-19T08:49:10Z</time>
      </trkpt>
      <trkpt lat="44.39369" lon="5.28086">
        <ele>889.36</ele>
        <time>2011-08-19T08:49:11Z</time>
      </trkpt>
      <trkpt lat="44.39369" lon="5.28088">
        <ele>889.36</ele>
        <time>2011-08-19T08:49:12Z</time>
      </trkpt>
      <trkpt lat="44.39369" lon="5.2809">
        <ele>889.36</ele>
        <time>2011-08-19T08:49:13Z</time>
      </trkpt>
      <trkpt lat="44.39369" lon="5.28093">
        <ele>889.84</ele>
        <time>2011-08-19T08:49:14Z</time>
      </trkpt>
      <trkpt lat="44.39366" lon="5.28118">
        <ele>893.2</ele>
        <time>2011-08-19T08:49:27Z</time>
      </trkpt>
      <trkpt lat="44.39366" lon="5.2812">
        <ele>893.2</ele>
        <time>2011-08-19T08:49:28Z</time>
      </trkpt>
      <trkpt lat="44.39367" lon="5.28122">
        <ele>893.68</ele>
        <time>2011-08-19T08:49:29Z</time>
      </trkpt>
      <trkpt lat="44.39367" lon="5.28123">
        <ele>894.16</ele>
        <time>2011-08-19T08:49:30Z</time>
      </trkpt>
      <trkpt lat="44.39367" lon="5.28155">
        <ele>896.57</ele>
        <time>2011-08-19T08:49:47Z</time>
      </trkpt>
      <trkpt lat="44.39365" lon="5.28169">
        <ele>898.97</ele>
        <time>2011-08-19T08:49:55Z</time>
      </trkpt>
      <trkpt lat="44.39364" lon="5.2817">
        <ele>898.97</ele>
        <time>2011-08-19T08:49:56Z</time>
      </trkpt>
      <trkpt lat="44.39363" lon="5.28172">
        <ele>899.45</ele>
        <time>2011-08-19T08:49:57Z</time>
      </trkpt>
      <trkpt lat="44.39362" lon="5.28173">
        <ele>898.97</ele>
        <time>2011-08-19T08:49:58Z</time>
      </trkpt>
      <trkpt lat="44.3936" lon="5.28173">
        <ele>899.45</ele>
        <time>2011-08-19T08:49:59Z</time>
      </trkpt>
      <trkpt lat="44.39358" lon="5.28174">
        <ele>903.3</ele>
        <time>2011-08-19T08:50:07Z</time>
      </trkpt>
      <trkpt lat="44.39358" lon="5.28174">
        <ele>907.14</ele>
        <time>2011-08-19T08:50:09Z</time>
      </trkpt>
      <trkpt lat="44.39358" lon="5.28174">
        <ele>900.41</ele>
        <time>2011-08-19T08:50:10Z</time>
      </trkpt>
      <trkpt lat="44.39358" lon="5.28174">
        <ele>899.93</ele>
        <time>2011-08-19T08:50:27Z</time>
      </trkpt>
      <trkpt lat="44.39358" lon="5.28174">
        <ele>899.93</ele>
        <time>2011-08-19T08:50:54Z</time>
      </trkpt>
      <trkpt lat="44.39358" lon="5.28174">
        <ele>899.93</ele>
        <time>2011-08-19T08:51:19Z</time>
      </trkpt>
      <trkpt lat="44.39357" lon="5.28173">
        <ele>899.93</ele>
        <time>2011-08-19T08:51:27Z</time>
      </trkpt>
      <trkpt lat="44.39356" lon="5.28172">
        <ele>899.93</ele>
        <time>2011-08-19T08:51:28Z</time>
      </trkpt>
      <trkpt lat="44.39335" lon="5.28164">
        <ele>901.85</ele>
        <time>2011-08-19T08:51:40Z</time>
      </trkpt>
      <trkpt lat="44.39321" lon="5.28153">
        <ele>903.3</ele>
        <time>2011-08-19T08:51:50Z</time>
      </trkpt>
      <trkpt lat="44.3932" lon="5.28151">
        <ele>903.78</ele>
        <time>2011-08-19T08:51:51Z</time>
      </trkpt>
      <trkpt lat="44.39319" lon="5.28149">
        <ele>903.78</ele>
        <time>2011-08-19T08:51:52Z</time>
      </trkpt>
      <trkpt lat="44.3931" lon="5.2813">
        <ele>905.7</ele>
        <time>2011-08-19T08:52:03Z</time>
      </trkpt>
      <trkpt lat="44.39298" lon="5.28108">
        <ele>909.06</ele>
        <time>2011-08-19T08:52:15Z</time>
      </trkpt>
      <trkpt lat="44.39297" lon="5.28106">
        <ele>909.54</ele>
        <time>2011-08-19T08:52:16Z</time>
      </trkpt>
      <trkpt lat="44.39296" lon="5.28105">
        <ele>909.06</ele>
        <time>2011-08-19T08:52:17Z</time>
      </trkpt>
      <trkpt lat="44.39294" lon="5.28104">
        <ele>909.06</ele>
        <time>2011-08-19T08:52:18Z</time>
      </trkpt>
      <trkpt lat="44.39292" lon="5.28103">
        <ele>909.06</ele>
        <time>2011-08-19T08:52:19Z</time>
      </trkpt>
      <trkpt lat="44.39291" lon="5.28102">
        <ele>909.54</ele>
        <time>2011-08-19T08:52:20Z</time>
      </trkpt>
      <trkpt lat="44.39268" lon="5.28101">
        <ele>909.54</ele>
        <time>2011-08-19T08:52:29Z</time>
      </trkpt>
      <trkpt lat="44.39258" lon="5.28102">
        <ele>910.51</ele>
        <time>2011-08-19T08:52:35Z</time>
      </trkpt>
      <trkpt lat="44.39257" lon="5.28103">
        <ele>910.51</ele>
        <time>2011-08-19T08:52:36Z</time>
      </trkpt>
      <trkpt lat="44.39255" lon="5.28104">
        <ele>911.47</ele>
        <time>2011-08-19T08:52:37Z</time>
      </trkpt>
      <trkpt lat="44.39253" lon="5.28105">
        <ele>911.95</ele>
        <time>2011-08-19T08:52:38Z</time>
      </trkpt>
      <trkpt lat="44.39251" lon="5.28105">
        <ele>911.47</ele>
        <time>2011-08-19T08:52:39Z</time>
      </trkpt>
      <trkpt lat="44.39249" lon="5.28106">
        <ele>912.43</ele>
        <time>2011-08-19T08:52:40Z</time>
      </trkpt>
      <trkpt lat="44.39247" lon="5.28107">
        <ele>911.95</ele>
        <time>2011-08-19T08:52:41Z</time>
      </trkpt>
      <trkpt lat="44.39246" lon="5.28108">
        <ele>912.91</ele>
        <time>2011-08-19T08:52:42Z</time>
      </trkpt>
      <trkpt lat="44.39244" lon="5.28109">
        <ele>913.39</ele>
        <time>2011-08-19T08:52:43Z</time>
      </trkpt>
      <trkpt lat="44.39242" lon="5.28108">
        <ele>914.35</ele>
        <time>2011-08-19T08:52:45Z</time>
      </trkpt>
      <trkpt lat="44.39236" lon="5.28105">
        <ele>914.83</ele>
        <time>2011-08-19T08:52:49Z</time>
      </trkpt>
      <trkpt lat="44.39234" lon="5.28105">
        <ele>914.83</ele>
        <time>2011-08-19T08:52:50Z</time>
      </trkpt>
      <trkpt lat="44.39233" lon="5.28104">
        <ele>914.83</ele>
        <time>2011-08-19T08:52:51Z</time>
      </trkpt>
      <trkpt lat="44.39231" lon="5.28104">
        <ele>914.83</ele>
        <time>2011-08-19T08:52:52Z</time>
      </trkpt>
      <trkpt lat="44.39225" lon="5.28099">
        <ele>915.31</ele>
        <time>2011-08-19T08:53:05Z</time>
      </trkpt>
      <trkpt lat="44.39208" lon="5.28099">
        <ele>914.83</ele>
        <time>2011-08-19T08:53:17Z</time>
      </trkpt>
      <trkpt lat="44.39174" lon="5.28107">
        <ele>918.2</ele>
        <time>2011-08-19T08:53:29Z</time>
      </trkpt>
      <trkpt lat="44.3917" lon="5.28111">
        <ele>917.72</ele>
        <time>2011-08-19T08:53:41Z</time>
      </trkpt>
      <trkpt lat="44.3917" lon="5.28111">
        <ele>917.72</ele>
        <time>2011-08-19T08:54:19Z</time>
      </trkpt>
      <trkpt lat="44.3917" lon="5.28112">
        <ele>918.2</ele>
        <time>2011-08-19T08:55:01Z</time>
      </trkpt>
      <trkpt lat="44.3917" lon="5.28111">
        <ele>918.68</ele>
        <time>2011-08-19T08:55:39Z</time>
      </trkpt>
      <trkpt lat="44.39169" lon="5.28112">
        <ele>918.68</ele>
        <time>2011-08-19T08:56:19Z</time>
      </trkpt>
      <trkpt lat="44.39169" lon="5.28112">
        <ele>918.68</ele>
        <time>2011-08-19T08:56:58Z</time>
      </trkpt>
      <trkpt lat="44.39168" lon="5.28112">
        <ele>912.91</ele>
        <time>2011-08-19T08:57:17Z</time>
      </trkpt>
      <trkpt lat="44.39168" lon="5.28112">
        <ele>920.6</ele>
        <time>2011-08-19T08:57:18Z</time>
      </trkpt>
      <trkpt lat="44.39168" lon="5.28112">
        <ele>915.31</ele>
        <time>2011-08-19T08:57:21Z</time>
      </trkpt>
      <trkpt lat="44.39168" lon="5.28112">
        <ele>921.08</ele>
        <time>2011-08-19T08:57:22Z</time>
      </trkpt>
      <trkpt lat="44.39168" lon="5.28112">
        <ele>915.79</ele>
        <time>2011-08-19T08:57:23Z</time>
      </trkpt>
      <trkpt lat="44.39168" lon="5.28112">
        <ele>922.52</ele>
        <time>2011-08-19T08:57:24Z</time>
      </trkpt>
      <trkpt lat="44.39168" lon="5.28112">
        <ele>917.72</ele>
        <time>2011-08-19T08:57:25Z</time>
      </trkpt>
      <trkpt lat="44.39168" lon="5.28112">
        <ele>914.35</ele>
        <time>2011-08-19T08:57:28Z</time>
      </trkpt>
      <trkpt lat="44.39168" lon="5.28112">
        <ele>924.45</ele>
        <time>2011-08-19T08:57:29Z</time>
      </trkpt>
      <trkpt lat="44.39168" lon="5.28112">
        <ele>917.24</ele>
        <time>2011-08-19T08:57:30Z</time>
      </trkpt>
      <trkpt lat="44.39168" lon="5.28112">
        <ele>923.48</ele>
        <time>2011-08-19T08:57:31Z</time>
      </trkpt>
      <trkpt lat="44.39168" lon="5.28112">
        <ele>916.75</ele>
        <time>2011-08-19T08:57:32Z</time>
      </trkpt>
      <trkpt lat="44.39168" lon="5.28112">
        <ele>922.52</ele>
        <time>2011-08-19T08:57:33Z</time>
      </trkpt>
      <trkpt lat="44.39168" lon="5.28112">
        <ele>919.16</ele>
        <time>2011-08-19T08:57:36Z</time>
      </trkpt>
      <trkpt lat="44.39167" lon="5.28113">
        <ele>919.16</ele>
        <time>2011-08-19T08:57:46Z</time>
      </trkpt>
      <trkpt lat="44.39165" lon="5.28114">
        <ele>918.68</ele>
        <time>2011-08-19T08:57:47Z</time>
      </trkpt>
      <trkpt lat="44.39162" lon="5.28117">
        <ele>918.2</ele>
        <time>2011-08-19T08:57:48Z</time>
      </trkpt>
      <trkpt lat="44.39159" lon="5.2812">
        <ele>918.2</ele>
        <time>2011-08-19T08:57:49Z</time>
      </trkpt>
      <trkpt lat="44.39156" lon="5.28124">
        <ele>918.2</ele>
        <time>2011-08-19T08:57:50Z</time>
      </trkpt>
      <trkpt lat="44.39154" lon="5.28129">
        <ele>917.24</ele>
        <time>2011-08-19T08:57:51Z</time>
      </trkpt>
      <trkpt lat="44.39141" lon="5.28147">
        <ele>915.79</ele>
        <time>2011-08-19T08:57:54Z</time>
      </trkpt>
      <trkpt lat="44.39136" lon="5.28151">
        <ele>915.79</ele>
        <time>2011-08-19T08:57:55Z</time>
      </trkpt>
      <trkpt lat="44.39132" lon="5.28153">
        <ele>915.79</ele>
        <time>2011-08-19T08:57:56Z</time>
      </trkpt>
      <trkpt lat="44.39127" lon="5.28155">
        <ele>915.79</ele>
        <time>2011-08-19T08:57:57Z</time>
      </trkpt>
      <trkpt lat="44.39122" lon="5.28154">
        <ele>915.31</ele>
        <time>2011-08-19T08:57:58Z</time>
      </trkpt>
      <trkpt lat="44.39117" lon="5.28153">
        <ele>915.31</ele>
        <time>2011-08-19T08:57:59Z</time>
      </trkpt>
      <trkpt lat="44.39112" lon="5.28151">
        <ele>914.83</ele>
        <time>2011-08-19T08:58:00Z</time>
      </trkpt>
      <trkpt lat="44.39096" lon="5.28147">
        <ele>914.35</ele>
        <time>2011-08-19T08:58:03Z</time>
      </trkpt>
      <trkpt lat="44.39091" lon="5.28147">
        <ele>914.35</ele>
        <time>2011-08-19T08:58:04Z</time>
      </trkpt>
      <trkpt lat="44.39086" lon="5.28149">
        <ele>914.83</ele>
        <time>2011-08-19T08:58:05Z</time>
      </trkpt>
      <trkpt lat="44.39081" lon="5.28151">
        <ele>914.83</ele>
        <time>2011-08-19T08:58:06Z</time>
      </trkpt>
      <trkpt lat="44.39077" lon="5.28155">
        <ele>914.83</ele>
        <time>2011-08-19T08:58:07Z</time>
      </trkpt>
      <trkpt lat="44.39073" lon="5.28159">
        <ele>915.79</ele>
        <time>2011-08-19T08:58:08Z</time>
      </trkpt>
      <trkpt lat="44.39071" lon="5.28165">
        <ele>915.79</ele>
        <time>2011-08-19T08:58:09Z</time>
      </trkpt>
      <trkpt lat="44.39069" lon="5.2817">
        <ele>916.27</ele>
        <time>2011-08-19T08:58:10Z</time>
      </trkpt>
      <trkpt lat="44.39059" lon="5.28194">
        <ele>918.68</ele>
        <time>2011-08-19T08:58:16Z</time>
      </trkpt>
      <trkpt lat="44.39048" lon="5.28225">
        <ele>922.04</ele>
        <time>2011-08-19T08:58:25Z</time>
      </trkpt>
      <trkpt lat="44.39035" lon="5.28269">
        <ele>924.45</ele>
        <time>2011-08-19T08:58:37Z</time>
      </trkpt>
      <trkpt lat="44.39013" lon="5.28314">
        <ele>924.45</ele>
        <time>2011-08-19T08:58:50Z</time>
      </trkpt>
      <trkpt lat="44.39011" lon="5.28319">
        <ele>924.45</ele>
        <time>2011-08-19T08:58:51Z</time>
      </trkpt>
      <trkpt lat="44.38996" lon="5.28349">
        <ele>921.56</ele>
        <time>2011-08-19T08:58:56Z</time>
      </trkpt>
      <trkpt lat="44.38989" lon="5.2836">
        <ele>919.64</ele>
        <time>2011-08-19T08:58:58Z</time>
      </trkpt>
      <trkpt lat="44.3897" lon="5.28382">
        <ele>915.79</ele>
        <time>2011-08-19T08:59:02Z</time>
      </trkpt>
      <trkpt lat="44.38965" lon="5.28386">
        <ele>915.31</ele>
        <time>2011-08-19T08:59:03Z</time>
      </trkpt>
      <trkpt lat="44.3896" lon="5.28391">
        <ele>914.83</ele>
        <time>2011-08-19T08:59:04Z</time>
      </trkpt>
      <trkpt lat="44.38941" lon="5.28419">
        <ele>911.95</ele>
        <time>2011-08-19T08:59:08Z</time>
      </trkpt>
      <trkpt lat="44.38936" lon="5.28427">
        <ele>911.47</ele>
        <time>2011-08-19T08:59:09Z</time>
      </trkpt>
      <trkpt lat="44.38927" lon="5.28442">
        <ele>910.03</ele>
        <time>2011-08-19T08:59:11Z</time>
      </trkpt>
      <trkpt lat="44.38914" lon="5.2846">
        <ele>909.06</ele>
        <time>2011-08-19T08:59:14Z</time>
      </trkpt>
      <trkpt lat="44.38909" lon="5.28465">
        <ele>908.1</ele>
        <time>2011-08-19T08:59:15Z</time>
      </trkpt>
      <trkpt lat="44.38905" lon="5.2847">
        <ele>908.1</ele>
        <time>2011-08-19T08:59:16Z</time>
      </trkpt>
      <trkpt lat="44.38901" lon="5.28476">
        <ele>907.62</ele>
        <time>2011-08-19T08:59:17Z</time>
      </trkpt>
      <trkpt lat="44.38898" lon="5.28483">
        <ele>908.1</ele>
        <time>2011-08-19T08:59:18Z</time>
      </trkpt>
      <trkpt lat="44.38897" lon="5.28492">
        <ele>908.1</ele>
        <time>2011-08-19T08:59:19Z</time>
      </trkpt>
      <trkpt lat="44.38897" lon="5.285">
        <ele>908.1</ele>
        <time>2011-08-19T08:59:20Z</time>
      </trkpt>
      <trkpt lat="44.38897" lon="5.28507">
        <ele>908.58</ele>
        <time>2011-08-19T08:59:21Z</time>
      </trkpt>
      <trkpt lat="44.38898" lon="5.28515">
        <ele>908.58</ele>
        <time>2011-08-19T08:59:22Z</time>
      </trkpt>
      <trkpt lat="44.38901" lon="5.28534">
        <ele>910.03</ele>
        <time>2011-08-19T08:59:25Z</time>
      </trkpt>
      <trkpt lat="44.38903" lon="5.28566">
        <ele>912.43</ele>
        <time>2011-08-19T08:59:31Z</time>
      </trkpt>
      <trkpt lat="44.38891" lon="5.28615">
        <ele>915.79</ele>
        <time>2011-08-19T08:59:43Z</time>
      </trkpt>
      <trkpt lat="44.38848" lon="5.28656">
        <ele>915.31</ele>
        <time>2011-08-19T08:59:57Z</time>
      </trkpt>
      <trkpt lat="44.38843" lon="5.28659">
        <ele>915.31</ele>
        <time>2011-08-19T08:59:58Z</time>
      </trkpt>
      <trkpt lat="44.38828" lon="5.28666">
        <ele>912.91</ele>
        <time>2011-08-19T09:00:01Z</time>
      </trkpt>
      <trkpt lat="44.38823" lon="5.28669">
        <ele>912.43</ele>
        <time>2011-08-19T09:00:02Z</time>
      </trkpt>
      <trkpt lat="44.38818" lon="5.2867">
        <ele>911.47</ele>
        <time>2011-08-19T09:00:03Z</time>
      </trkpt>
      <trkpt lat="44.38795" lon="5.28677">
        <ele>908.1</ele>
        <time>2011-08-19T09:00:08Z</time>
      </trkpt>
      <trkpt lat="44.38791" lon="5.28678">
        <ele>906.66</ele>
        <time>2011-08-19T09:00:09Z</time>
      </trkpt>
      <trkpt lat="44.38787" lon="5.28678">
        <ele>906.18</ele>
        <time>2011-08-19T09:00:10Z</time>
      </trkpt>
      <trkpt lat="44.38778" lon="5.28677">
        <ele>904.26</ele>
        <time>2011-08-19T09:00:12Z</time>
      </trkpt>
      <trkpt lat="44.38774" lon="5.28678">
        <ele>903.78</ele>
        <time>2011-08-19T09:00:13Z</time>
      </trkpt>
      <trkpt lat="44.38772" lon="5.2868">
        <ele>902.82</ele>
        <time>2011-08-19T09:00:14Z</time>
      </trkpt>
      <trkpt lat="44.3877" lon="5.28681">
        <ele>902.33</ele>
        <time>2011-08-19T09:00:15Z</time>
      </trkpt>
      <trkpt lat="44.3877" lon="5.28681">
        <ele>895.12</ele>
        <time>2011-08-19T09:00:23Z</time>
      </trkpt>
      <trkpt lat="44.3877" lon="5.28681">
        <ele>898.49</ele>
        <time>2011-08-19T09:00:24Z</time>
      </trkpt>
      <trkpt lat="44.3877" lon="5.28681">
        <ele>909.06</ele>
        <time>2011-08-19T09:00:25Z</time>
      </trkpt>
      <trkpt lat="44.3877" lon="5.28681">
        <ele>902.82</ele>
        <time>2011-08-19T09:00:26Z</time>
      </trkpt>
      <trkpt lat="44.3877" lon="5.28681">
        <ele>907.14</ele>
        <time>2011-08-19T09:00:27Z</time>
      </trkpt>
      <trkpt lat="44.3877" lon="5.28681">
        <ele>900.89</ele>
        <time>2011-08-19T09:00:28Z</time>
      </trkpt>
      <trkpt lat="44.3877" lon="5.28681">
        <ele>907.14</ele>
        <time>2011-08-19T09:00:29Z</time>
      </trkpt>
      <trkpt lat="44.3877" lon="5.28681">
        <ele>903.3</ele>
        <time>2011-08-19T09:00:30Z</time>
      </trkpt>
      <trkpt lat="44.38771" lon="5.28685">
        <ele>903.3</ele>
        <time>2011-08-19T09:00:41Z</time>
      </trkpt>
      <trkpt lat="44.3877" lon="5.28682">
        <ele>902.82</ele>
        <time>2011-08-19T09:00:54Z</time>
      </trkpt>
      <trkpt lat="44.3877" lon="5.28682">
        <ele>902.82</ele>
        <time>2011-08-19T09:01:09Z</time>
      </trkpt>
      <trkpt lat="44.38771" lon="5.28682">
        <ele>903.3</ele>
        <time>2011-08-19T09:01:30Z</time>
      </trkpt>
      <trkpt lat="44.38771" lon="5.28686">
        <ele>903.3</ele>
        <time>2011-08-19T09:01:46Z</time>
      </trkpt>
      <trkpt lat="44.3877" lon="5.28688">
        <ele>903.78</ele>
        <time>2011-08-19T09:01:47Z</time>
      </trkpt>
      <trkpt lat="44.3877" lon="5.2869">
        <ele>904.26</ele>
        <time>2011-08-19T09:01:48Z</time>
      </trkpt>
      <trkpt lat="44.38769" lon="5.28692">
        <ele>904.26</ele>
        <time>2011-08-19T09:01:49Z</time>
      </trkpt>
      <trkpt lat="44.38768" lon="5.28695">
        <ele>904.26</ele>
        <time>2011-08-19T09:01:50Z</time>
      </trkpt>
      <trkpt lat="44.38768" lon="5.28697">
        <ele>904.74</ele>
        <time>2011-08-19T09:01:51Z</time>
      </trkpt>
      <trkpt lat="44.38767" lon="5.287">
        <ele>904.74</ele>
        <time>2011-08-19T09:01:52Z</time>
      </trkpt>
      <trkpt lat="44.38767" lon="5.28702">
        <ele>905.22</ele>
        <time>2011-08-19T09:01:53Z</time>
      </trkpt>
      <trkpt lat="44.38766" lon="5.28704">
        <ele>906.18</ele>
        <time>2011-08-19T09:01:54Z</time>
      </trkpt>
      <trkpt lat="44.38766" lon="5.28706">
        <ele>906.18</ele>
        <time>2011-08-19T09:01:55Z</time>
      </trkpt>
      <trkpt lat="44.38766" lon="5.28709">
        <ele>906.66</ele>
        <time>2011-08-19T09:01:56Z</time>
      </trkpt>
      <trkpt lat="44.38765" lon="5.28711">
        <ele>906.66</ele>
        <time>2011-08-19T09:01:57Z</time>
      </trkpt>
      <trkpt lat="44.3876" lon="5.28739">
        <ele>909.54</ele>
        <time>2011-08-19T09:02:08Z</time>
      </trkpt>
      <trkpt lat="44.38763" lon="5.28765">
        <ele>912.91</ele>
        <time>2011-08-19T09:02:20Z</time>
      </trkpt>
      <trkpt lat="44.38764" lon="5.28782">
        <ele>915.31</ele>
        <time>2011-08-19T09:02:29Z</time>
      </trkpt>
      <trkpt lat="44.38764" lon="5.28784">
        <ele>915.31</ele>
        <time>2011-08-19T09:02:30Z</time>
      </trkpt>
      <trkpt lat="44.38764" lon="5.28786">
        <ele>915.79</ele>
        <time>2011-08-19T09:02:31Z</time>
      </trkpt>
      <trkpt lat="44.38763" lon="5.28796">
        <ele>916.27</ele>
        <time>2011-08-19T09:02:44Z</time>
      </trkpt>
      <trkpt lat="44.38763" lon="5.28799">
        <ele>917.72</ele>
        <time>2011-08-19T09:02:47Z</time>
      </trkpt>
      <trkpt lat="44.38767" lon="5.28823">
        <ele>920.6</ele>
        <time>2011-08-19T09:03:03Z</time>
      </trkpt>
      <trkpt lat="44.38766" lon="5.28836">
        <ele>922.04</ele>
        <time>2011-08-19T09:03:16Z</time>
      </trkpt>
      <trkpt lat="44.38764" lon="5.28843">
        <ele>922.52</ele>
        <time>2011-08-19T09:03:28Z</time>
      </trkpt>
      <trkpt lat="44.38764" lon="5.28845">
        <ele>923</ele>
        <time>2011-08-19T09:03:29Z</time>
      </trkpt>
      <trkpt lat="44.38764" lon="5.28847">
        <ele>923</ele>
        <time>2011-08-19T09:03:30Z</time>
      </trkpt>
      <trkpt lat="44.38764" lon="5.28849">
        <ele>923</ele>
        <time>2011-08-19T09:03:31Z</time>
      </trkpt>
      <trkpt lat="44.38764" lon="5.28851">
        <ele>923</ele>
        <time>2011-08-19T09:03:32Z</time>
      </trkpt>
      <trkpt lat="44.38764" lon="5.28853">
        <ele>923.48</ele>
        <time>2011-08-19T09:03:33Z</time>
      </trkpt>
      <trkpt lat="44.38765" lon="5.28854">
        <ele>923.96</ele>
        <time>2011-08-19T09:03:34Z</time>
      </trkpt>
      <trkpt lat="44.38766" lon="5.28856">
        <ele>923.96</ele>
        <time>2011-08-19T09:03:35Z</time>
      </trkpt>
      <trkpt lat="44.38767" lon="5.28857">
        <ele>923.96</ele>
        <time>2011-08-19T09:03:36Z</time>
      </trkpt>
      <trkpt lat="44.38768" lon="5.28858">
        <ele>924.45</ele>
        <time>2011-08-19T09:03:37Z</time>
      </trkpt>
      <trkpt lat="44.3877" lon="5.28859">
        <ele>924.45</ele>
        <time>2011-08-19T09:03:38Z</time>
      </trkpt>
      <trkpt lat="44.38771" lon="5.2886">
        <ele>925.41</ele>
        <time>2011-08-19T09:03:39Z</time>
      </trkpt>
      <trkpt lat="44.38786" lon="5.28861">
        <ele>926.85</ele>
        <time>2011-08-19T09:03:50Z</time>
      </trkpt>
      <trkpt lat="44.38788" lon="5.28862">
        <ele>927.33</ele>
        <time>2011-08-19T09:03:51Z</time>
      </trkpt>
      <trkpt lat="44.38795" lon="5.28886">
        <ele>930.69</ele>
        <time>2011-08-19T09:04:05Z</time>
      </trkpt>
      <trkpt lat="44.38794" lon="5.28916">
        <ele>933.58</ele>
        <time>2011-08-19T09:04:20Z</time>
      </trkpt>
      <trkpt lat="44.38787" lon="5.28957">
        <ele>935.98</ele>
        <time>2011-08-19T09:04:39Z</time>
      </trkpt>
      <trkpt lat="44.38782" lon="5.2899">
        <ele>939.35</ele>
        <time>2011-08-19T09:04:53Z</time>
      </trkpt>
      <trkpt lat="44.38783" lon="5.29026">
        <ele>942.23</ele>
        <time>2011-08-19T09:05:08Z</time>
      </trkpt>
      <trkpt lat="44.38786" lon="5.29061">
        <ele>944.63</ele>
        <time>2011-08-19T09:05:24Z</time>
      </trkpt>
      <trkpt lat="44.38785" lon="5.29061">
        <ele>938.86</ele>
        <time>2011-08-19T09:05:29Z</time>
      </trkpt>
      <trkpt lat="44.38785" lon="5.29061">
        <ele>945.11</ele>
        <time>2011-08-19T09:05:30Z</time>
      </trkpt>
      <trkpt lat="44.38785" lon="5.29061">
        <ele>935.98</ele>
        <time>2011-08-19T09:05:32Z</time>
      </trkpt>
      <trkpt lat="44.38785" lon="5.29061">
        <ele>951.36</ele>
        <time>2011-08-19T09:05:33Z</time>
      </trkpt>
      <trkpt lat="44.38785" lon="5.29061">
        <ele>945.59</ele>
        <time>2011-08-19T09:05:34Z</time>
      </trkpt>
      <trkpt lat="44.38785" lon="5.29061">
        <ele>949.92</ele>
        <time>2011-08-19T09:05:35Z</time>
      </trkpt>
      <trkpt lat="44.38785" lon="5.29061">
        <ele>942.23</ele>
        <time>2011-08-19T09:05:36Z</time>
      </trkpt>
      <trkpt lat="44.38785" lon="5.29061">
        <ele>945.59</ele>
        <time>2011-08-19T09:05:37Z</time>
      </trkpt>
      <trkpt lat="44.38785" lon="5.29061">
        <ele>950.4</ele>
        <time>2011-08-19T09:05:38Z</time>
      </trkpt>
      <trkpt lat="44.38785" lon="5.29061">
        <ele>945.59</ele>
        <time>2011-08-19T09:05:39Z</time>
      </trkpt>
      <trkpt lat="44.38785" lon="5.29061">
        <ele>945.59</ele>
        <time>2011-08-19T09:05:57Z</time>
      </trkpt>
      <trkpt lat="44.38785" lon="5.29063">
        <ele>945.59</ele>
        <time>2011-08-19T09:05:58Z</time>
      </trkpt>
      <trkpt lat="44.38784" lon="5.29065">
        <ele>945.59</ele>
        <time>2011-08-19T09:05:59Z</time>
      </trkpt>
      <trkpt lat="44.38783" lon="5.29068">
        <ele>945.11</ele>
        <time>2011-08-19T09:06:00Z</time>
      </trkpt>
      <trkpt lat="44.38781" lon="5.29071">
        <ele>945.59</ele>
        <time>2011-08-19T09:06:01Z</time>
      </trkpt>
      <trkpt lat="44.38751" lon="5.29117">
        <ele>946.07</ele>
        <time>2011-08-19T09:06:15Z</time>
      </trkpt>
      <trkpt lat="44.38721" lon="5.29167">
        <ele>948.48</ele>
        <time>2011-08-19T09:06:28Z</time>
      </trkpt>
      <trkpt lat="44.38715" lon="5.29205">
        <ele>951.84</ele>
        <time>2011-08-19T09:06:38Z</time>
      </trkpt>
      <trkpt lat="44.38696" lon="5.29243">
        <ele>953.28</ele>
        <time>2011-08-19T09:06:51Z</time>
      </trkpt>
      <trkpt lat="44.38684" lon="5.29273">
        <ele>954.73</ele>
        <time>2011-08-19T09:07:05Z</time>
      </trkpt>
      <trkpt lat="44.38684" lon="5.29273">
        <ele>950.88</ele>
        <time>2011-08-19T09:07:07Z</time>
      </trkpt>
      <trkpt lat="44.38684" lon="5.29273">
        <ele>962.9</ele>
        <time>2011-08-19T09:07:08Z</time>
      </trkpt>
      <trkpt lat="44.38684" lon="5.29273">
        <ele>952.8</ele>
        <time>2011-08-19T09:07:09Z</time>
      </trkpt>
      <trkpt lat="44.38684" lon="5.29273">
        <ele>963.86</ele>
        <time>2011-08-19T09:07:10Z</time>
      </trkpt>
      <trkpt lat="44.38684" lon="5.29273">
        <ele>955.21</ele>
        <time>2011-08-19T09:07:11Z</time>
      </trkpt>
      <trkpt lat="44.38684" lon="5.29273">
        <ele>962.9</ele>
        <time>2011-08-19T09:07:12Z</time>
      </trkpt>
      <trkpt lat="44.38684" lon="5.29273">
        <ele>955.21</ele>
        <time>2011-08-19T09:07:13Z</time>
      </trkpt>
      <trkpt lat="44.38684" lon="5.29275">
        <ele>955.21</ele>
        <time>2011-08-19T09:07:15Z</time>
      </trkpt>
      <trkpt lat="44.38683" lon="5.29277">
        <ele>954.73</ele>
        <time>2011-08-19T09:07:16Z</time>
      </trkpt>
      <trkpt lat="44.38682" lon="5.29281">
        <ele>954.25</ele>
        <time>2011-08-19T09:07:17Z</time>
      </trkpt>
      <trkpt lat="44.38681" lon="5.29285">
        <ele>953.77</ele>
        <time>2011-08-19T09:07:18Z</time>
      </trkpt>
      <trkpt lat="44.38679" lon="5.29291">
        <ele>952.8</ele>
        <time>2011-08-19T09:07:19Z</time>
      </trkpt>
      <trkpt lat="44.38676" lon="5.29298">
        <ele>951.84</ele>
        <time>2011-08-19T09:07:20Z</time>
      </trkpt>
      <trkpt lat="44.3867" lon="5.29314">
        <ele>949.92</ele>
        <time>2011-08-19T09:07:22Z</time>
      </trkpt>
      <trkpt lat="44.38663" lon="5.29347">
        <ele>950.4</ele>
        <time>2011-08-19T09:07:26Z</time>
      </trkpt>
      <trkpt lat="44.38656" lon="5.29367">
        <ele>949.44</ele>
        <time>2011-08-19T09:07:29Z</time>
      </trkpt>
      <trkpt lat="44.38651" lon="5.29374">
        <ele>948.96</ele>
        <time>2011-08-19T09:07:30Z</time>
      </trkpt>
      <trkpt lat="44.38642" lon="5.29389">
        <ele>948</ele>
        <time>2011-08-19T09:07:32Z</time>
      </trkpt>
      <trkpt lat="44.38637" lon="5.29397">
        <ele>946.56</ele>
        <time>2011-08-19T09:07:33Z</time>
      </trkpt>
      <trkpt lat="44.38629" lon="5.29414">
        <ele>946.07</ele>
        <time>2011-08-19T09:07:35Z</time>
      </trkpt>
      <trkpt lat="44.38618" lon="5.29438">
        <ele>942.71</ele>
        <time>2011-08-19T09:07:38Z</time>
      </trkpt>
      <trkpt lat="44.38604" lon="5.29475">
        <ele>938.38</ele>
        <time>2011-08-19T09:07:42Z</time>
      </trkpt>
      <trkpt lat="44.38596" lon="5.29494">
        <ele>936.46</ele>
        <time>2011-08-19T09:07:44Z</time>
      </trkpt>
      <trkpt lat="44.38591" lon="5.29502">
        <ele>935.02</ele>
        <time>2011-08-19T09:07:45Z</time>
      </trkpt>
      <trkpt lat="44.38569" lon="5.29531">
        <ele>933.1</ele>
        <time>2011-08-19T09:07:49Z</time>
      </trkpt>
      <trkpt lat="44.38563" lon="5.29535">
        <ele>931.65</ele>
        <time>2011-08-19T09:07:50Z</time>
      </trkpt>
      <trkpt lat="44.38556" lon="5.29538">
        <ele>931.65</ele>
        <time>2011-08-19T09:07:51Z</time>
      </trkpt>
      <trkpt lat="44.38542" lon="5.29542">
        <ele>931.17</ele>
        <time>2011-08-19T09:07:53Z</time>
      </trkpt>
      <trkpt lat="44.38537" lon="5.29545">
        <ele>931.65</ele>
        <time>2011-08-19T09:07:54Z</time>
      </trkpt>
      <trkpt lat="44.38532" lon="5.29549">
        <ele>931.17</ele>
        <time>2011-08-19T09:07:55Z</time>
      </trkpt>
      <trkpt lat="44.38497" lon="5.29609">
        <ele>930.21</ele>
        <time>2011-08-19T09:08:04Z</time>
      </trkpt>
      <trkpt lat="44.3849" lon="5.29633">
        <ele>929.73</ele>
        <time>2011-08-19T09:08:07Z</time>
      </trkpt>
      <trkpt lat="44.38481" lon="5.29654">
        <ele>929.73</ele>
        <time>2011-08-19T09:08:11Z</time>
      </trkpt>
      <trkpt lat="44.3848" lon="5.29655">
        <ele>922.52</ele>
        <time>2011-08-19T09:08:16Z</time>
      </trkpt>
      <trkpt lat="44.3848" lon="5.29655">
        <ele>932.62</ele>
        <time>2011-08-19T09:08:17Z</time>
      </trkpt>
      <trkpt lat="44.3848" lon="5.29655">
        <ele>940.79</ele>
        <time>2011-08-19T09:08:18Z</time>
      </trkpt>
      <trkpt lat="44.3848" lon="5.29655">
        <ele>930.21</ele>
        <time>2011-08-19T09:08:19Z</time>
      </trkpt>
      <trkpt lat="44.3848" lon="5.29655">
        <ele>939.83</ele>
        <time>2011-08-19T09:08:20Z</time>
      </trkpt>
      <trkpt lat="44.3848" lon="5.29655">
        <ele>930.21</ele>
        <time>2011-08-19T09:08:21Z</time>
      </trkpt>
      <trkpt lat="44.38479" lon="5.29655">
        <ele>929.73</ele>
        <time>2011-08-19T09:08:23Z</time>
      </trkpt>
      <trkpt lat="44.38477" lon="5.29656">
        <ele>929.25</ele>
        <time>2011-08-19T09:08:24Z</time>
      </trkpt>
      <trkpt lat="44.38474" lon="5.29658">
        <ele>929.25</ele>
        <time>2011-08-19T09:08:25Z</time>
      </trkpt>
      <trkpt lat="44.38471" lon="5.29661">
        <ele>928.29</ele>
        <time>2011-08-19T09:08:26Z</time>
      </trkpt>
      <trkpt lat="44.38469" lon="5.29665">
        <ele>927.33</ele>
        <time>2011-08-19T09:08:27Z</time>
      </trkpt>
      <trkpt lat="44.38466" lon="5.29671">
        <ele>926.85</ele>
        <time>2011-08-19T09:08:28Z</time>
      </trkpt>
      <trkpt lat="44.38463" lon="5.29679">
        <ele>925.89</ele>
        <time>2011-08-19T09:08:29Z</time>
      </trkpt>
      <trkpt lat="44.38461" lon="5.29686">
        <ele>924.93</ele>
        <time>2011-08-19T09:08:30Z</time>
      </trkpt>
      <trkpt lat="44.38451" lon="5.29709">
        <ele>922.04</ele>
        <time>2011-08-19T09:08:33Z</time>
      </trkpt>
      <trkpt lat="44.38446" lon="5.29716">
        <ele>921.56</ele>
        <time>2011-08-19T09:08:34Z</time>
      </trkpt>
      <trkpt lat="44.38424" lon="5.29744">
        <ele>918.2</ele>
        <time>2011-08-19T09:08:38Z</time>
      </trkpt>
      <trkpt lat="44.38407" lon="5.29762">
        <ele>916.27</ele>
        <time>2011-08-19T09:08:41Z</time>
      </trkpt>
      <trkpt lat="44.38399" lon="5.29771">
        <ele>914.83</ele>
        <time>2011-08-19T09:08:43Z</time>
      </trkpt>
      <trkpt lat="44.38396" lon="5.29778">
        <ele>913.39</ele>
        <time>2011-08-19T09:08:44Z</time>
      </trkpt>
      <trkpt lat="44.38388" lon="5.29801">
        <ele>910.51</ele>
        <time>2011-08-19T09:08:47Z</time>
      </trkpt>
      <trkpt lat="44.38385" lon="5.29807">
        <ele>910.03</ele>
        <time>2011-08-19T09:08:48Z</time>
      </trkpt>
      <trkpt lat="44.3838" lon="5.2981">
        <ele>909.54</ele>
        <time>2011-08-19T09:08:49Z</time>
      </trkpt>
      <trkpt lat="44.38376" lon="5.29812">
        <ele>908.1</ele>
        <time>2011-08-19T09:08:50Z</time>
      </trkpt>
      <trkpt lat="44.38371" lon="5.29813">
        <ele>907.62</ele>
        <time>2011-08-19T09:08:51Z</time>
      </trkpt>
      <trkpt lat="44.38366" lon="5.29813">
        <ele>906.66</ele>
        <time>2011-08-19T09:08:52Z</time>
      </trkpt>
      <trkpt lat="44.38361" lon="5.29812">
        <ele>905.7</ele>
        <time>2011-08-19T09:08:53Z</time>
      </trkpt>
      <trkpt lat="44.38356" lon="5.29811">
        <ele>904.74</ele>
        <time>2011-08-19T09:08:54Z</time>
      </trkpt>
      <trkpt lat="44.38351" lon="5.29808">
        <ele>903.78</ele>
        <time>2011-08-19T09:08:55Z</time>
      </trkpt>
      <trkpt lat="44.38347" lon="5.29803">
        <ele>902.33</ele>
        <time>2011-08-19T09:08:56Z</time>
      </trkpt>
      <trkpt lat="44.38345" lon="5.29797">
        <ele>902.33</ele>
        <time>2011-08-19T09:08:57Z</time>
      </trkpt>
      <trkpt lat="44.38343" lon="5.2979">
        <ele>902.33</ele>
        <time>2011-08-19T09:08:58Z</time>
      </trkpt>
      <trkpt lat="44.38342" lon="5.29783">
        <ele>902.33</ele>
        <time>2011-08-19T09:08:59Z</time>
      </trkpt>
      <trkpt lat="44.38342" lon="5.29777">
        <ele>901.85</ele>
        <time>2011-08-19T09:09:00Z</time>
      </trkpt>
      <trkpt lat="44.38343" lon="5.29769">
        <ele>901.37</ele>
        <time>2011-08-19T09:09:01Z</time>
      </trkpt>
      <trkpt lat="44.38345" lon="5.29761">
        <ele>900.41</ele>
        <time>2011-08-19T09:09:02Z</time>
      </trkpt>
      <trkpt lat="44.38347" lon="5.29753">
        <ele>899.45</ele>
        <time>2011-08-19T09:09:03Z</time>
      </trkpt>
      <trkpt lat="44.38351" lon="5.29734">
        <ele>897.53</ele>
        <time>2011-08-19T09:09:05Z</time>
      </trkpt>
      <trkpt lat="44.38352" lon="5.29724">
        <ele>896.57</ele>
        <time>2011-08-19T09:09:06Z</time>
      </trkpt>
      <trkpt lat="44.38351" lon="5.29714">
        <ele>896.57</ele>
        <time>2011-08-19T09:09:07Z</time>
      </trkpt>
      <trkpt lat="44.3835" lon="5.29679">
        <ele>894.64</ele>
        <time>2011-08-19T09:09:10Z</time>
      </trkpt>
      <trkpt lat="44.38351" lon="5.29632">
        <ele>891.28</ele>
        <time>2011-08-19T09:09:14Z</time>
      </trkpt>
      <trkpt lat="44.38348" lon="5.29588">
        <ele>887.43</ele>
        <time>2011-08-19T09:09:18Z</time>
      </trkpt>
      <trkpt lat="44.38344" lon="5.29556">
        <ele>884.07</ele>
        <time>2011-08-19T09:09:21Z</time>
      </trkpt>
      <trkpt lat="44.38342" lon="5.29546">
        <ele>882.15</ele>
        <time>2011-08-19T09:09:22Z</time>
      </trkpt>
      <trkpt lat="44.3834" lon="5.29538">
        <ele>881.67</ele>
        <time>2011-08-19T09:09:23Z</time>
      </trkpt>
      <trkpt lat="44.38337" lon="5.29532">
        <ele>880.71</ele>
        <time>2011-08-19T09:09:24Z</time>
      </trkpt>
      <trkpt lat="44.38335" lon="5.29529">
        <ele>880.22</ele>
        <time>2011-08-19T09:09:25Z</time>
      </trkpt>
      <trkpt lat="44.38333" lon="5.29526">
        <ele>880.22</ele>
        <time>2011-08-19T09:09:26Z</time>
      </trkpt>
      <trkpt lat="44.38332" lon="5.29523">
        <ele>880.22</ele>
        <time>2011-08-19T09:09:27Z</time>
      </trkpt>
      <trkpt lat="44.38328" lon="5.29516">
        <ele>874.94</ele>
        <time>2011-08-19T09:09:35Z</time>
      </trkpt>
      <trkpt lat="44.38328" lon="5.29516">
        <ele>882.63</ele>
        <time>2011-08-19T09:09:36Z</time>
      </trkpt>
      <trkpt lat="44.38328" lon="5.29516">
        <ele>879.74</ele>
        <time>2011-08-19T09:09:37Z</time>
      </trkpt>
      <trkpt lat="44.38329" lon="5.29521">
        <ele>879.74</ele>
        <time>2011-08-19T09:09:42Z</time>
      </trkpt>
      <trkpt lat="44.38339" lon="5.2954">
        <ele>881.19</ele>
        <time>2011-08-19T09:09:52Z</time>
      </trkpt>
      <trkpt lat="44.38338" lon="5.29543">
        <ele>880.71</ele>
        <time>2011-08-19T09:09:53Z</time>
      </trkpt>
      <trkpt lat="44.38337" lon="5.29547">
        <ele>880.22</ele>
        <time>2011-08-19T09:09:54Z</time>
      </trkpt>
      <trkpt lat="44.38336" lon="5.2955">
        <ele>880.22</ele>
        <time>2011-08-19T09:09:55Z</time>
      </trkpt>
      <trkpt lat="44.38334" lon="5.29554">
        <ele>880.22</ele>
        <time>2011-08-19T09:09:56Z</time>
      </trkpt>
      <trkpt lat="44.38332" lon="5.29559">
        <ele>879.74</ele>
        <time>2011-08-19T09:09:57Z</time>
      </trkpt>
      <trkpt lat="44.38331" lon="5.29564">
        <ele>880.22</ele>
        <time>2011-08-19T09:09:58Z</time>
      </trkpt>
      <trkpt lat="44.38307" lon="5.29639">
        <ele>877.34</ele>
        <time>2011-08-19T09:10:10Z</time>
      </trkpt>
      <trkpt lat="44.38285" lon="5.29688">
        <ele>876.38</ele>
        <time>2011-08-19T09:10:18Z</time>
      </trkpt>
      <trkpt lat="44.38283" lon="5.29695">
        <ele>876.38</ele>
        <time>2011-08-19T09:10:19Z</time>
      </trkpt>
      <trkpt lat="44.38277" lon="5.2972">
        <ele>877.82</ele>
        <time>2011-08-19T09:10:23Z</time>
      </trkpt>
      <trkpt lat="44.38277" lon="5.29725">
        <ele>877.82</ele>
        <time>2011-08-19T09:10:24Z</time>
      </trkpt>
      <trkpt lat="44.38276" lon="5.29731">
        <ele>877.82</ele>
        <time>2011-08-19T09:10:25Z</time>
      </trkpt>
      <trkpt lat="44.38276" lon="5.29735">
        <ele>878.78</ele>
        <time>2011-08-19T09:10:26Z</time>
      </trkpt>
      <trkpt lat="44.38276" lon="5.2974">
        <ele>879.26</ele>
        <time>2011-08-19T09:10:27Z</time>
      </trkpt>
      <trkpt lat="44.38275" lon="5.29743">
        <ele>879.26</ele>
        <time>2011-08-19T09:10:28Z</time>
      </trkpt>
      <trkpt lat="44.38273" lon="5.29746">
        <ele>879.26</ele>
        <time>2011-08-19T09:10:29Z</time>
      </trkpt>
      <trkpt lat="44.3827" lon="5.29749">
        <ele>878.78</ele>
        <time>2011-08-19T09:10:30Z</time>
      </trkpt>
      <trkpt lat="44.38267" lon="5.29752">
        <ele>878.78</ele>
        <time>2011-08-19T09:10:31Z</time>
      </trkpt>
      <trkpt lat="44.38245" lon="5.29762">
        <ele>879.26</ele>
        <time>2011-08-19T09:10:39Z</time>
      </trkpt>
      <trkpt lat="44.38235" lon="5.29747">
        <ele>876.86</ele>
        <time>2011-08-19T09:10:44Z</time>
      </trkpt>
      <trkpt lat="44.38233" lon="5.29748">
        <ele>875.9</ele>
        <time>2011-08-19T09:10:45Z</time>
      </trkpt>
      <trkpt lat="44.38231" lon="5.2975">
        <ele>875.9</ele>
        <time>2011-08-19T09:10:46Z</time>
      </trkpt>
      <trkpt lat="44.38231" lon="5.29753">
        <ele>875.9</ele>
        <time>2011-08-19T09:10:47Z</time>
      </trkpt>
      <trkpt lat="44.38231" lon="5.29757">
        <ele>876.38</ele>
        <time>2011-08-19T09:10:48Z</time>
      </trkpt>
      <trkpt lat="44.38233" lon="5.29773">
        <ele>877.82</ele>
        <time>2011-08-19T09:10:52Z</time>
      </trkpt>
      <trkpt lat="44.38243" lon="5.29825">
        <ele>879.26</ele>
        <time>2011-08-19T09:11:04Z</time>
      </trkpt>
      <trkpt lat="44.38248" lon="5.29873">
        <ele>880.22</ele>
        <time>2011-08-19T09:11:14Z</time>
      </trkpt>
      <trkpt lat="44.38247" lon="5.29879">
        <ele>879.74</ele>
        <time>2011-08-19T09:11:15Z</time>
      </trkpt>
      <trkpt lat="44.38246" lon="5.29883">
        <ele>880.22</ele>
        <time>2011-08-19T09:11:16Z</time>
      </trkpt>
      <trkpt lat="44.38245" lon="5.29886">
        <ele>881.19</ele>
        <time>2011-08-19T09:11:17Z</time>
      </trkpt>
      <trkpt lat="44.38243" lon="5.29888">
        <ele>881.19</ele>
        <time>2011-08-19T09:11:18Z</time>
      </trkpt>
      <trkpt lat="44.38239" lon="5.29922">
        <ele>882.63</ele>
        <time>2011-08-19T09:11:28Z</time>
      </trkpt>
      <trkpt lat="44.38239" lon="5.29922">
        <ele>882.63</ele>
        <time>2011-08-19T09:11:31Z</time>
      </trkpt>
      <trkpt lat="44.38238" lon="5.29922">
        <ele>882.15</ele>
        <time>2011-08-19T09:11:32Z</time>
      </trkpt>
      <trkpt lat="44.38236" lon="5.29922">
        <ele>882.63</ele>
        <time>2011-08-19T09:11:33Z</time>
      </trkpt>
      <trkpt lat="44.38235" lon="5.29922">
        <ele>882.63</ele>
        <time>2011-08-19T09:11:34Z</time>
      </trkpt>
      <trkpt lat="44.38234" lon="5.29922">
        <ele>883.11</ele>
        <time>2011-08-19T09:11:35Z</time>
      </trkpt>
      <trkpt lat="44.38233" lon="5.29922">
        <ele>883.11</ele>
        <time>2011-08-19T09:11:36Z</time>
      </trkpt>
      <trkpt lat="44.38231" lon="5.29921">
        <ele>883.59</ele>
        <time>2011-08-19T09:11:37Z</time>
      </trkpt>
      <trkpt lat="44.3823" lon="5.29921">
        <ele>883.59</ele>
        <time>2011-08-19T09:11:38Z</time>
      </trkpt>
      <trkpt lat="44.38229" lon="5.29919">
        <ele>883.59</ele>
        <time>2011-08-19T09:11:39Z</time>
      </trkpt>
      <trkpt lat="44.38228" lon="5.29918">
        <ele>883.59</ele>
        <time>2011-08-19T09:11:40Z</time>
      </trkpt>
      <trkpt lat="44.38227" lon="5.29917">
        <ele>884.07</ele>
        <time>2011-08-19T09:11:41Z</time>
      </trkpt>
      <trkpt lat="44.38219" lon="5.29908">
        <ele>885.51</ele>
        <time>2011-08-19T09:11:55Z</time>
      </trkpt>
      <trkpt lat="44.38211" lon="5.29887">
        <ele>884.07</ele>
        <time>2011-08-19T09:12:03Z</time>
      </trkpt>
      <trkpt lat="44.38209" lon="5.29883">
        <ele>882.63</ele>
        <time>2011-08-19T09:12:04Z</time>
      </trkpt>
      <trkpt lat="44.382" lon="5.2987">
        <ele>880.71</ele>
        <time>2011-08-19T09:12:08Z</time>
      </trkpt>
      <trkpt lat="44.38196" lon="5.2987">
        <ele>880.22</ele>
        <time>2011-08-19T09:12:09Z</time>
      </trkpt>
      <trkpt lat="44.38193" lon="5.29871">
        <ele>879.74</ele>
        <time>2011-08-19T09:12:10Z</time>
      </trkpt>
      <trkpt lat="44.3819" lon="5.29873">
        <ele>879.26</ele>
        <time>2011-08-19T09:12:11Z</time>
      </trkpt>
      <trkpt lat="44.38178" lon="5.29881">
        <ele>876.38</ele>
        <time>2011-08-19T09:12:14Z</time>
      </trkpt>
      <trkpt lat="44.38159" lon="5.2989">
        <ele>873.98</ele>
        <time>2011-08-19T09:12:18Z</time>
      </trkpt>
      <trkpt lat="44.38155" lon="5.29893">
        <ele>873.01</ele>
        <time>2011-08-19T09:12:19Z</time>
      </trkpt>
      <trkpt lat="44.38152" lon="5.29896">
        <ele>872.53</ele>
        <time>2011-08-19T09:12:20Z</time>
      </trkpt>
      <trkpt lat="44.38139" lon="5.29906">
        <ele>870.61</ele>
        <time>2011-08-19T09:12:24Z</time>
      </trkpt>
      <trkpt lat="44.38139" lon="5.2991">
        <ele>870.13</ele>
        <time>2011-08-19T09:12:25Z</time>
      </trkpt>
      <trkpt lat="44.38138" lon="5.29916">
        <ele>869.65</ele>
        <time>2011-08-19T09:12:26Z</time>
      </trkpt>
      <trkpt lat="44.38139" lon="5.29922">
        <ele>869.17</ele>
        <time>2011-08-19T09:12:27Z</time>
      </trkpt>
      <trkpt lat="44.38139" lon="5.29929">
        <ele>869.17</ele>
        <time>2011-08-19T09:12:28Z</time>
      </trkpt>
      <trkpt lat="44.38145" lon="5.30008">
        <ele>866.29</ele>
        <time>2011-08-19T09:12:40Z</time>
      </trkpt>
      <trkpt lat="44.38144" lon="5.3001">
        <ele>866.29</ele>
        <time>2011-08-19T09:12:41Z</time>
      </trkpt>
      <trkpt lat="44.38142" lon="5.30011">
        <ele>866.29</ele>
        <time>2011-08-19T09:12:42Z</time>
      </trkpt>
      <trkpt lat="44.3814" lon="5.30011">
        <ele>865.8</ele>
        <time>2011-08-19T09:12:43Z</time>
      </trkpt>
      <trkpt lat="44.38137" lon="5.3001">
        <ele>865.32</ele>
        <time>2011-08-19T09:12:44Z</time>
      </trkpt>
      <trkpt lat="44.38125" lon="5.30001">
        <ele>864.84</ele>
        <time>2011-08-19T09:12:48Z</time>
      </trkpt>
      <trkpt lat="44.38097" lon="5.29982">
        <ele>861.96</ele>
        <time>2011-08-19T09:12:55Z</time>
      </trkpt>
      <trkpt lat="44.38094" lon="5.29978">
        <ele>861.96</ele>
        <time>2011-08-19T09:12:56Z</time>
      </trkpt>
      <trkpt lat="44.38053" lon="5.2994">
        <ele>859.08</ele>
        <time>2011-08-19T09:13:06Z</time>
      </trkpt>
      <trkpt lat="44.38048" lon="5.29936">
        <ele>858.59</ele>
        <time>2011-08-19T09:13:07Z</time>
      </trkpt>
      <trkpt lat="44.38041" lon="5.29927">
        <ele>857.15</ele>
        <time>2011-08-19T09:13:09Z</time>
      </trkpt>
      <trkpt lat="44.3803" lon="5.29917">
        <ele>856.19</ele>
        <time>2011-08-19T09:13:12Z</time>
      </trkpt>
      <trkpt lat="44.38005" lon="5.2989">
        <ele>853.31</ele>
        <time>2011-08-19T09:13:19Z</time>
      </trkpt>
      <trkpt lat="44.38002" lon="5.29886">
        <ele>852.83</ele>
        <time>2011-08-19T09:13:20Z</time>
      </trkpt>
      <trkpt lat="44.37998" lon="5.29883">
        <ele>852.35</ele>
        <time>2011-08-19T09:13:21Z</time>
      </trkpt>
      <trkpt lat="44.37995" lon="5.29879">
        <ele>851.87</ele>
        <time>2011-08-19T09:13:22Z</time>
      </trkpt>
      <trkpt lat="44.37993" lon="5.29875">
        <ele>851.38</ele>
        <time>2011-08-19T09:13:23Z</time>
      </trkpt>
      <trkpt lat="44.37989" lon="5.29871">
        <ele>850.9</ele>
        <time>2011-08-19T09:13:24Z</time>
      </trkpt>
      <trkpt lat="44.37985" lon="5.29868">
        <ele>850.42</ele>
        <time>2011-08-19T09:13:25Z</time>
      </trkpt>
      <trkpt lat="44.37981" lon="5.29865">
        <ele>849.94</ele>
        <time>2011-08-19T09:13:26Z</time>
      </trkpt>
      <trkpt lat="44.37977" lon="5.29862">
        <ele>849.46</ele>
        <time>2011-08-19T09:13:27Z</time>
      </trkpt>
      <trkpt lat="44.37956" lon="5.29847">
        <ele>846.1</ele>
        <time>2011-08-19T09:13:33Z</time>
      </trkpt>
      <trkpt lat="44.37952" lon="5.29844">
        <ele>845.14</ele>
        <time>2011-08-19T09:13:34Z</time>
      </trkpt>
      <trkpt lat="44.3794" lon="5.29836">
        <ele>842.73</ele>
        <time>2011-08-19T09:13:37Z</time>
      </trkpt>
      <trkpt lat="44.37936" lon="5.29833">
        <ele>841.77</ele>
        <time>2011-08-19T09:13:38Z</time>
      </trkpt>
      <trkpt lat="44.37932" lon="5.29829">
        <ele>841.77</ele>
        <time>2011-08-19T09:13:39Z</time>
      </trkpt>
      <trkpt lat="44.37919" lon="5.29819">
        <ele>838.41</ele>
        <time>2011-08-19T09:13:42Z</time>
      </trkpt>
      <trkpt lat="44.37915" lon="5.29815">
        <ele>837.45</ele>
        <time>2011-08-19T09:13:43Z</time>
      </trkpt>
      <trkpt lat="44.37911" lon="5.29811">
        <ele>837.45</ele>
        <time>2011-08-19T09:13:44Z</time>
      </trkpt>
      <trkpt lat="44.37907" lon="5.29808">
        <ele>836.48</ele>
        <time>2011-08-19T09:13:45Z</time>
      </trkpt>
      <trkpt lat="44.37903" lon="5.29807">
        <ele>836.48</ele>
        <time>2011-08-19T09:13:46Z</time>
      </trkpt>
      <trkpt lat="44.37892" lon="5.29805">
        <ele>835.52</ele>
        <time>2011-08-19T09:13:48Z</time>
      </trkpt>
      <trkpt lat="44.37881" lon="5.29801">
        <ele>834.08</ele>
        <time>2011-08-19T09:13:50Z</time>
      </trkpt>
      <trkpt lat="44.37875" lon="5.29799">
        <ele>834.08</ele>
        <time>2011-08-19T09:13:51Z</time>
      </trkpt>
      <trkpt lat="44.37851" lon="5.29791">
        <ele>832.16</ele>
        <time>2011-08-19T09:13:55Z</time>
      </trkpt>
      <trkpt lat="44.37833" lon="5.29789">
        <ele>830.72</ele>
        <time>2011-08-19T09:14:03Z</time>
      </trkpt>
      <trkpt lat="44.37832" lon="5.2979">
        <ele>830.72</ele>
        <time>2011-08-19T09:14:25Z</time>
      </trkpt>
      <trkpt lat="44.37831" lon="5.29794">
        <ele>829.76</ele>
        <time>2011-08-19T09:14:27Z</time>
      </trkpt>
      <trkpt lat="44.37827" lon="5.29819">
        <ele>827.35</ele>
        <time>2011-08-19T09:14:33Z</time>
      </trkpt>
      <trkpt lat="44.37827" lon="5.29825">
        <ele>827.35</ele>
        <time>2011-08-19T09:14:34Z</time>
      </trkpt>
      <trkpt lat="44.37827" lon="5.29831">
        <ele>826.39</ele>
        <time>2011-08-19T09:14:35Z</time>
      </trkpt>
      <trkpt lat="44.37827" lon="5.29836">
        <ele>825.91</ele>
        <time>2011-08-19T09:14:36Z</time>
      </trkpt>
      <trkpt lat="44.37826" lon="5.29842">
        <ele>825.43</ele>
        <time>2011-08-19T09:14:37Z</time>
      </trkpt>
      <trkpt lat="44.37826" lon="5.29848">
        <ele>824.95</ele>
        <time>2011-08-19T09:14:38Z</time>
      </trkpt>
      <trkpt lat="44.37826" lon="5.29854">
        <ele>824.95</ele>
        <time>2011-08-19T09:14:39Z</time>
      </trkpt>
      <trkpt lat="44.37825" lon="5.29879">
        <ele>822.06</ele>
        <time>2011-08-19T09:14:45Z</time>
      </trkpt>
      <trkpt lat="44.37825" lon="5.29881">
        <ele>822.06</ele>
        <time>2011-08-19T09:14:46Z</time>
      </trkpt>
      <trkpt lat="44.37825" lon="5.29883">
        <ele>822.06</ele>
        <time>2011-08-19T09:14:47Z</time>
      </trkpt>
      <trkpt lat="44.37825" lon="5.29886">
        <ele>821.58</ele>
        <time>2011-08-19T09:14:48Z</time>
      </trkpt>
      <trkpt lat="44.37825" lon="5.29888">
        <ele>821.58</ele>
        <time>2011-08-19T09:14:49Z</time>
      </trkpt>
      <trkpt lat="44.37825" lon="5.2989">
        <ele>821.1</ele>
        <time>2011-08-19T09:14:50Z</time>
      </trkpt>
      <trkpt lat="44.37825" lon="5.29891">
        <ele>820.62</ele>
        <time>2011-08-19T09:14:51Z</time>
      </trkpt>
      <trkpt lat="44.37824" lon="5.29893">
        <ele>819.66</ele>
        <time>2011-08-19T09:14:52Z</time>
      </trkpt>
      <trkpt lat="44.37824" lon="5.29895">
        <ele>819.66</ele>
        <time>2011-08-19T09:14:53Z</time>
      </trkpt>
      <trkpt lat="44.37823" lon="5.29897">
        <ele>819.18</ele>
        <time>2011-08-19T09:14:54Z</time>
      </trkpt>
      <trkpt lat="44.37823" lon="5.299">
        <ele>818.7</ele>
        <time>2011-08-19T09:14:55Z</time>
      </trkpt>
      <trkpt lat="44.37822" lon="5.29903">
        <ele>818.22</ele>
        <time>2011-08-19T09:14:56Z</time>
      </trkpt>
      <trkpt lat="44.37821" lon="5.29906">
        <ele>818.22</ele>
        <time>2011-08-19T09:14:57Z</time>
      </trkpt>
      <trkpt lat="44.3782" lon="5.29909">
        <ele>818.22</ele>
        <time>2011-08-19T09:14:58Z</time>
      </trkpt>
      <trkpt lat="44.3782" lon="5.29912">
        <ele>818.22</ele>
        <time>2011-08-19T09:14:59Z</time>
      </trkpt>
      <trkpt lat="44.37813" lon="5.29959">
        <ele>819.66</ele>
        <time>2011-08-19T09:15:09Z</time>
      </trkpt>
      <trkpt lat="44.37811" lon="5.29971">
        <ele>818.22</ele>
        <time>2011-08-19T09:15:13Z</time>
      </trkpt>
      <trkpt lat="44.37811" lon="5.29973">
        <ele>818.22</ele>
        <time>2011-08-19T09:15:14Z</time>
      </trkpt>
      <trkpt lat="44.37811" lon="5.29976">
        <ele>818.7</ele>
        <time>2011-08-19T09:15:15Z</time>
      </trkpt>
      <trkpt lat="44.37805" lon="5.3">
        <ele>819.66</ele>
        <time>2011-08-19T09:15:23Z</time>
      </trkpt>
      <trkpt lat="44.37803" lon="5.30002">
        <ele>819.18</ele>
        <time>2011-08-19T09:15:24Z</time>
      </trkpt>
      <trkpt lat="44.378" lon="5.30003">
        <ele>818.7</ele>
        <time>2011-08-19T09:15:25Z</time>
      </trkpt>
      <trkpt lat="44.37796" lon="5.30008">
        <ele>817.74</ele>
        <time>2011-08-19T09:15:27Z</time>
      </trkpt>
      <trkpt lat="44.37793" lon="5.30012">
        <ele>817.74</ele>
        <time>2011-08-19T09:15:28Z</time>
      </trkpt>
      <trkpt lat="44.37783" lon="5.30027">
        <ele>816.3</ele>
        <time>2011-08-19T09:15:31Z</time>
      </trkpt>
      <trkpt lat="44.3778" lon="5.30032">
        <ele>816.3</ele>
        <time>2011-08-19T09:15:32Z</time>
      </trkpt>
      <trkpt lat="44.37778" lon="5.30037">
        <ele>815.82</ele>
        <time>2011-08-19T09:15:33Z</time>
      </trkpt>
      <trkpt lat="44.37777" lon="5.30042">
        <ele>815.82</ele>
        <time>2011-08-19T09:15:34Z</time>
      </trkpt>
      <trkpt lat="44.37775" lon="5.30047">
        <ele>815.34</ele>
        <time>2011-08-19T09:15:35Z</time>
      </trkpt>
      <trkpt lat="44.37773" lon="5.30051">
        <ele>815.82</ele>
        <time>2011-08-19T09:15:36Z</time>
      </trkpt>
      <trkpt lat="44.37764" lon="5.30061">
        <ele>814.85</ele>
        <time>2011-08-19T09:15:39Z</time>
      </trkpt>
      <trkpt lat="44.37761" lon="5.30064">
        <ele>814.85</ele>
        <time>2011-08-19T09:15:40Z</time>
      </trkpt>
      <trkpt lat="44.37745" lon="5.30088">
        <ele>812.45</ele>
        <time>2011-08-19T09:15:46Z</time>
      </trkpt>
      <trkpt lat="44.37742" lon="5.30092">
        <ele>811.49</ele>
        <time>2011-08-19T09:15:47Z</time>
      </trkpt>
      <trkpt lat="44.3774" lon="5.30098">
        <ele>811.49</ele>
        <time>2011-08-19T09:15:48Z</time>
      </trkpt>
      <trkpt lat="44.37738" lon="5.30102">
        <ele>811.97</ele>
        <time>2011-08-19T09:15:49Z</time>
      </trkpt>
      <trkpt lat="44.37735" lon="5.30106">
        <ele>811.97</ele>
        <time>2011-08-19T09:15:50Z</time>
      </trkpt>
      <trkpt lat="44.37732" lon="5.30109">
        <ele>811.49</ele>
        <time>2011-08-19T09:15:51Z</time>
      </trkpt>
      <trkpt lat="44.37729" lon="5.30113">
        <ele>811.01</ele>
        <time>2011-08-19T09:15:52Z</time>
      </trkpt>
      <trkpt lat="44.37721" lon="5.3012">
        <ele>810.53</ele>
        <time>2011-08-19T09:15:54Z</time>
      </trkpt>
      <trkpt lat="44.37718" lon="5.30124">
        <ele>810.05</ele>
        <time>2011-08-19T09:15:55Z</time>
      </trkpt>
      <trkpt lat="44.37711" lon="5.30132">
        <ele>810.05</ele>
        <time>2011-08-19T09:15:57Z</time>
      </trkpt>
      <trkpt lat="44.37709" lon="5.30137">
        <ele>809.09</ele>
        <time>2011-08-19T09:15:58Z</time>
      </trkpt>
      <trkpt lat="44.37707" lon="5.30143">
        <ele>809.09</ele>
        <time>2011-08-19T09:15:59Z</time>
      </trkpt>
      <trkpt lat="44.37704" lon="5.3018">
        <ele>806.2</ele>
        <time>2011-08-19T09:16:07Z</time>
      </trkpt>
      <trkpt lat="44.37705" lon="5.30197">
        <ele>804.76</ele>
        <time>2011-08-19T09:16:15Z</time>
      </trkpt>
      <trkpt lat="44.37706" lon="5.302">
        <ele>803.8</ele>
        <time>2011-08-19T09:16:17Z</time>
      </trkpt>
      <trkpt lat="44.37705" lon="5.30201">
        <ele>804.28</ele>
        <time>2011-08-19T09:16:18Z</time>
      </trkpt>
      <trkpt lat="44.37705" lon="5.30218">
        <ele>803.8</ele>
        <time>2011-08-19T09:16:31Z</time>
      </trkpt>
      <trkpt lat="44.37709" lon="5.30222">
        <ele>803.8</ele>
        <time>2011-08-19T09:16:39Z</time>
      </trkpt>
      <trkpt lat="44.37711" lon="5.30223">
        <ele>804.28</ele>
        <time>2011-08-19T09:16:40Z</time>
      </trkpt>
      <trkpt lat="44.37713" lon="5.30225">
        <ele>804.28</ele>
        <time>2011-08-19T09:16:41Z</time>
      </trkpt>
      <trkpt lat="44.37715" lon="5.30226">
        <ele>804.28</ele>
        <time>2011-08-19T09:16:42Z</time>
      </trkpt>
      <trkpt lat="44.37717" lon="5.30228">
        <ele>804.28</ele>
        <time>2011-08-19T09:16:43Z</time>
      </trkpt>
      <trkpt lat="44.3772" lon="5.30231">
        <ele>804.28</ele>
        <time>2011-08-19T09:16:44Z</time>
      </trkpt>
      <trkpt lat="44.3774" lon="5.30255">
        <ele>805.72</ele>
        <time>2011-08-19T09:16:53Z</time>
      </trkpt>
      <trkpt lat="44.37739" lon="5.30275">
        <ele>804.76</ele>
        <time>2011-08-19T09:16:57Z</time>
      </trkpt>
      <trkpt lat="44.37737" lon="5.30288">
        <ele>805.72</ele>
        <time>2011-08-19T09:17:06Z</time>
      </trkpt>
      <trkpt lat="44.37739" lon="5.3029">
        <ele>805.72</ele>
        <time>2011-08-19T09:17:09Z</time>
      </trkpt>
      <trkpt lat="44.3774" lon="5.30293">
        <ele>805.24</ele>
        <time>2011-08-19T09:17:12Z</time>
      </trkpt>
      <trkpt lat="44.37736" lon="5.30295">
        <ele>805.24</ele>
        <time>2011-08-19T09:17:21Z</time>
      </trkpt>
      <trkpt lat="44.37718" lon="5.30304">
        <ele>803.32</ele>
        <time>2011-08-19T09:17:27Z</time>
      </trkpt>
      <trkpt lat="44.37706" lon="5.30337">
        <ele>803.32</ele>
        <time>2011-08-19T09:17:37Z</time>
      </trkpt>
      <trkpt lat="44.37705" lon="5.30339">
        <ele>803.8</ele>
        <time>2011-08-19T09:17:42Z</time>
      </trkpt>
      <trkpt lat="44.37707" lon="5.30348">
        <ele>805.24</ele>
        <time>2011-08-19T09:17:47Z</time>
      </trkpt>
      <trkpt lat="44.37708" lon="5.30359">
        <ele>806.2</ele>
        <time>2011-08-19T09:18:00Z</time>
      </trkpt>
      <trkpt lat="44.37708" lon="5.30359">
        <ele>806.2</ele>
        <time>2011-08-19T09:18:01Z</time>
      </trkpt>
      <trkpt lat="44.37699" lon="5.30382">
        <ele>803.8</ele>
        <time>2011-08-19T09:18:09Z</time>
      </trkpt>
      <trkpt lat="44.37692" lon="5.30394">
        <ele>804.28</ele>
        <time>2011-08-19T09:18:15Z</time>
      </trkpt>
      <trkpt lat="44.37693" lon="5.30398">
        <ele>804.76</ele>
        <time>2011-08-19T09:18:18Z</time>
      </trkpt>
      <trkpt lat="44.37694" lon="5.30405">
        <ele>804.76</ele>
        <time>2011-08-19T09:18:27Z</time>
      </trkpt>
      <trkpt lat="44.37694" lon="5.30421">
        <ele>805.24</ele>
        <time>2011-08-19T09:18:35Z</time>
      </trkpt>
      <trkpt lat="44.37694" lon="5.30421">
        <ele>805.24</ele>
        <time>2011-08-19T09:18:39Z</time>
      </trkpt>
      <trkpt lat="44.37683" lon="5.3043">
        <ele>804.28</ele>
        <time>2011-08-19T09:18:48Z</time>
      </trkpt>
      <trkpt lat="44.37659" lon="5.30424">
        <ele>807.16</ele>
        <time>2011-08-19T09:19:00Z</time>
      </trkpt>
      <trkpt lat="44.37654" lon="5.30426">
        <ele>806.68</ele>
        <time>2011-08-19T09:19:02Z</time>
      </trkpt>
      <trkpt lat="44.3765" lon="5.30445">
        <ele>805.72</ele>
        <time>2011-08-19T09:19:07Z</time>
      </trkpt>
      <trkpt lat="44.37646" lon="5.30455">
        <ele>801.4</ele>
        <time>2011-08-19T09:19:12Z</time>
      </trkpt>
      <trkpt lat="44.37646" lon="5.30455">
        <ele>804.28</ele>
        <time>2011-08-19T09:19:19Z</time>
      </trkpt>
      <trkpt lat="44.37646" lon="5.30455">
        <ele>803.8</ele>
        <time>2011-08-19T09:19:59Z</time>
      </trkpt>
      <trkpt lat="44.37646" lon="5.30455">
        <ele>803.8</ele>
        <time>2011-08-19T09:20:48Z</time>
      </trkpt>
      <trkpt lat="44.37646" lon="5.30455">
        <ele>803.32</ele>
        <time>2011-08-19T09:21:30Z</time>
      </trkpt>
      <trkpt lat="44.37646" lon="5.30454">
        <ele>804.76</ele>
        <time>2011-08-19T09:21:46Z</time>
      </trkpt>
      <trkpt lat="44.37647" lon="5.30454">
        <ele>799.47</ele>
        <time>2011-08-19T09:21:52Z</time>
      </trkpt>
      <trkpt lat="44.37647" lon="5.30454">
        <ele>800.44</ele>
        <time>2011-08-19T09:21:53Z</time>
      </trkpt>
      <trkpt lat="44.37647" lon="5.30454">
        <ele>805.72</ele>
        <time>2011-08-19T09:21:55Z</time>
      </trkpt>
      <trkpt lat="44.37647" lon="5.30454">
        <ele>810.05</ele>
        <time>2011-08-19T09:21:56Z</time>
      </trkpt>
      <trkpt lat="44.37647" lon="5.30454">
        <ele>808.13</ele>
        <time>2011-08-19T09:21:57Z</time>
      </trkpt>
      <trkpt lat="44.37647" lon="5.30454">
        <ele>804.76</ele>
        <time>2011-08-19T09:21:58Z</time>
      </trkpt>
      <trkpt lat="44.37647" lon="5.30454">
        <ele>799.95</ele>
        <time>2011-08-19T09:21:59Z</time>
      </trkpt>
      <trkpt lat="44.37647" lon="5.30454">
        <ele>803.8</ele>
        <time>2011-08-19T09:22:00Z</time>
      </trkpt>
      <trkpt lat="44.37647" lon="5.30454">
        <ele>807.64</ele>
        <time>2011-08-19T09:22:01Z</time>
      </trkpt>
      <trkpt lat="44.37647" lon="5.30454">
        <ele>807.16</ele>
        <time>2011-08-19T09:22:02Z</time>
      </trkpt>
      <trkpt lat="44.37647" lon="5.30454">
        <ele>798.99</ele>
        <time>2011-08-19T09:22:03Z</time>
      </trkpt>
      <trkpt lat="44.37647" lon="5.30454">
        <ele>802.36</ele>
        <time>2011-08-19T09:22:04Z</time>
      </trkpt>
      <trkpt lat="44.37647" lon="5.30454">
        <ele>810.53</ele>
        <time>2011-08-19T09:22:06Z</time>
      </trkpt>
      <trkpt lat="44.37647" lon="5.30454">
        <ele>804.76</ele>
        <time>2011-08-19T09:22:07Z</time>
      </trkpt>
      <trkpt lat="44.37644" lon="5.30453">
        <ele>805.24</ele>
        <time>2011-08-19T09:22:18Z</time>
      </trkpt>
      <trkpt lat="44.37642" lon="5.30451">
        <ele>805.72</ele>
        <time>2011-08-19T09:22:21Z</time>
      </trkpt>
      <trkpt lat="44.3763" lon="5.30439">
        <ele>809.57</ele>
        <time>2011-08-19T09:22:37Z</time>
      </trkpt>
      <trkpt lat="44.37628" lon="5.30437">
        <ele>810.05</ele>
        <time>2011-08-19T09:22:48Z</time>
      </trkpt>
      <trkpt lat="44.37601" lon="5.30417">
        <ele>811.01</ele>
        <time>2011-08-19T09:23:03Z</time>
      </trkpt>
      <trkpt lat="44.37585" lon="5.30412">
        <ele>811.49</ele>
        <time>2011-08-19T09:23:09Z</time>
      </trkpt>
      <trkpt lat="44.3756" lon="5.30402">
        <ele>809.57</ele>
        <time>2011-08-19T09:23:18Z</time>
      </trkpt>
      <trkpt lat="44.37523" lon="5.30396">
        <ele>805.72</ele>
        <time>2011-08-19T09:23:29Z</time>
      </trkpt>
      <trkpt lat="44.37512" lon="5.30407">
        <ele>803.32</ele>
        <time>2011-08-19T09:23:34Z</time>
      </trkpt>
      <trkpt lat="44.37505" lon="5.30429">
        <ele>800.92</ele>
        <time>2011-08-19T09:23:41Z</time>
      </trkpt>
      <trkpt lat="44.37498" lon="5.30431">
        <ele>799.95</ele>
        <time>2011-08-19T09:23:44Z</time>
      </trkpt>
      <trkpt lat="44.37481" lon="5.30426">
        <ele>798.03</ele>
        <time>2011-08-19T09:23:50Z</time>
      </trkpt>
      <trkpt lat="44.37452" lon="5.30427">
        <ele>796.11</ele>
        <time>2011-08-19T09:23:57Z</time>
      </trkpt>
      <trkpt lat="44.37438" lon="5.30425">
        <ele>795.63</ele>
        <time>2011-08-19T09:24:00Z</time>
      </trkpt>
      <trkpt lat="44.37432" lon="5.30425">
        <ele>795.63</ele>
        <time>2011-08-19T09:24:01Z</time>
      </trkpt>
      <trkpt lat="44.37366" lon="5.30412">
        <ele>797.55</ele>
        <time>2011-08-19T09:24:16Z</time>
      </trkpt>
      <trkpt lat="44.37354" lon="5.30409">
        <ele>797.07</ele>
        <time>2011-08-19T09:24:19Z</time>
      </trkpt>
      <trkpt lat="44.3735" lon="5.30409">
        <ele>797.07</ele>
        <time>2011-08-19T09:24:20Z</time>
      </trkpt>
      <trkpt lat="44.37346" lon="5.3041">
        <ele>796.59</ele>
        <time>2011-08-19T09:24:21Z</time>
      </trkpt>
      <trkpt lat="44.37323" lon="5.30419">
        <ele>793.71</ele>
        <time>2011-08-19T09:24:28Z</time>
      </trkpt>
      <trkpt lat="44.37321" lon="5.30421">
        <ele>793.22</ele>
        <time>2011-08-19T09:24:29Z</time>
      </trkpt>
      <trkpt lat="44.37313" lon="5.30433">
        <ele>791.78</ele>
        <time>2011-08-19T09:24:32Z</time>
      </trkpt>
      <trkpt lat="44.37311" lon="5.30437">
        <ele>791.3</ele>
        <time>2011-08-19T09:24:33Z</time>
      </trkpt>
      <trkpt lat="44.37303" lon="5.30452">
        <ele>790.34</ele>
        <time>2011-08-19T09:24:36Z</time>
      </trkpt>
      <trkpt lat="44.37299" lon="5.30455">
        <ele>789.86</ele>
        <time>2011-08-19T09:24:37Z</time>
      </trkpt>
      <trkpt lat="44.37295" lon="5.30459">
        <ele>789.38</ele>
        <time>2011-08-19T09:24:38Z</time>
      </trkpt>
      <trkpt lat="44.37287" lon="5.30467">
        <ele>788.9</ele>
        <time>2011-08-19T09:24:40Z</time>
      </trkpt>
      <trkpt lat="44.37271" lon="5.30489">
        <ele>788.42</ele>
        <time>2011-08-19T09:24:44Z</time>
      </trkpt>
      <trkpt lat="44.37268" lon="5.30495">
        <ele>787.94</ele>
        <time>2011-08-19T09:24:45Z</time>
      </trkpt>
      <trkpt lat="44.37267" lon="5.30501">
        <ele>788.42</ele>
        <time>2011-08-19T09:24:46Z</time>
      </trkpt>
      <trkpt lat="44.37265" lon="5.30507">
        <ele>787.46</ele>
        <time>2011-08-19T09:24:47Z</time>
      </trkpt>
      <trkpt lat="44.37264" lon="5.30513">
        <ele>787.46</ele>
        <time>2011-08-19T09:24:48Z</time>
      </trkpt>
      <trkpt lat="44.37257" lon="5.30539">
        <ele>786.02</ele>
        <time>2011-08-19T09:24:52Z</time>
      </trkpt>
      <trkpt lat="44.37256" lon="5.30545">
        <ele>785.53</ele>
        <time>2011-08-19T09:24:53Z</time>
      </trkpt>
      <trkpt lat="44.37255" lon="5.30553">
        <ele>785.05</ele>
        <time>2011-08-19T09:24:54Z</time>
      </trkpt>
      <trkpt lat="44.37253" lon="5.3056">
        <ele>785.05</ele>
        <time>2011-08-19T09:24:55Z</time>
      </trkpt>
      <trkpt lat="44.37252" lon="5.30568">
        <ele>784.09</ele>
        <time>2011-08-19T09:24:56Z</time>
      </trkpt>
      <trkpt lat="44.37252" lon="5.30581">
        <ele>784.57</ele>
        <time>2011-08-19T09:24:58Z</time>
      </trkpt>
      <trkpt lat="44.37252" lon="5.30587">
        <ele>784.57</ele>
        <time>2011-08-19T09:24:59Z</time>
      </trkpt>
      <trkpt lat="44.37251" lon="5.30591">
        <ele>785.05</ele>
        <time>2011-08-19T09:25:00Z</time>
      </trkpt>
      <trkpt lat="44.3725" lon="5.30596">
        <ele>785.05</ele>
        <time>2011-08-19T09:25:01Z</time>
      </trkpt>
      <trkpt lat="44.3725" lon="5.30599">
        <ele>784.57</ele>
        <time>2011-08-19T09:25:02Z</time>
      </trkpt>
      <trkpt lat="44.3725" lon="5.30601">
        <ele>784.57</ele>
        <time>2011-08-19T09:25:11Z</time>
      </trkpt>
      <trkpt lat="44.37248" lon="5.30601">
        <ele>784.57</ele>
        <time>2011-08-19T09:25:27Z</time>
      </trkpt>
      <trkpt lat="44.37246" lon="5.30601">
        <ele>785.05</ele>
        <time>2011-08-19T09:25:29Z</time>
      </trkpt>
      <trkpt lat="44.37244" lon="5.30601">
        <ele>785.05</ele>
        <time>2011-08-19T09:25:30Z</time>
      </trkpt>
      <trkpt lat="44.37243" lon="5.30601">
        <ele>785.53</ele>
        <time>2011-08-19T09:25:31Z</time>
      </trkpt>
      <trkpt lat="44.37238" lon="5.30601">
        <ele>786.02</ele>
        <time>2011-08-19T09:25:43Z</time>
      </trkpt>
      <trkpt lat="44.37231" lon="5.306">
        <ele>786.98</ele>
        <time>2011-08-19T09:25:48Z</time>
      </trkpt>
      <trkpt lat="44.37229" lon="5.306">
        <ele>786.98</ele>
        <time>2011-08-19T09:25:49Z</time>
      </trkpt>
      <trkpt lat="44.37227" lon="5.306">
        <ele>786.98</ele>
        <time>2011-08-19T09:25:50Z</time>
      </trkpt>
      <trkpt lat="44.37225" lon="5.306">
        <ele>787.94</ele>
        <time>2011-08-19T09:25:51Z</time>
      </trkpt>
      <trkpt lat="44.37224" lon="5.306">
        <ele>787.46</ele>
        <time>2011-08-19T09:25:52Z</time>
      </trkpt>
      <trkpt lat="44.37222" lon="5.30601">
        <ele>787.94</ele>
        <time>2011-08-19T09:25:53Z</time>
      </trkpt>
      <trkpt lat="44.37221" lon="5.30602">
        <ele>787.94</ele>
        <time>2011-08-19T09:25:54Z</time>
      </trkpt>
      <trkpt lat="44.37206" lon="5.30621">
        <ele>790.82</ele>
        <time>2011-08-19T09:26:07Z</time>
      </trkpt>
      <trkpt lat="44.37204" lon="5.30622">
        <ele>790.82</ele>
        <time>2011-08-19T09:26:08Z</time>
      </trkpt>
      <trkpt lat="44.37192" lon="5.30625">
        <ele>793.71</ele>
        <time>2011-08-19T09:26:18Z</time>
      </trkpt>
      <trkpt lat="44.37183" lon="5.30628">
        <ele>795.15</ele>
        <time>2011-08-19T09:26:25Z</time>
      </trkpt>
      <trkpt lat="44.37166" lon="5.30626">
        <ele>797.55</ele>
        <time>2011-08-19T09:26:39Z</time>
      </trkpt>
      <trkpt lat="44.37165" lon="5.30626">
        <ele>798.03</ele>
        <time>2011-08-19T09:26:40Z</time>
      </trkpt>
      <trkpt lat="44.37164" lon="5.30626">
        <ele>798.51</ele>
        <time>2011-08-19T09:26:41Z</time>
      </trkpt>
      <trkpt lat="44.37162" lon="5.30625">
        <ele>798.51</ele>
        <time>2011-08-19T09:26:42Z</time>
      </trkpt>
      <trkpt lat="44.37161" lon="5.30625">
        <ele>798.51</ele>
        <time>2011-08-19T09:26:43Z</time>
      </trkpt>
      <trkpt lat="44.3716" lon="5.30625">
        <ele>798.51</ele>
        <time>2011-08-19T09:26:44Z</time>
      </trkpt>
      <trkpt lat="44.37158" lon="5.30626">
        <ele>798.51</ele>
        <time>2011-08-19T09:26:45Z</time>
      </trkpt>
      <trkpt lat="44.37157" lon="5.30626">
        <ele>798.51</ele>
        <time>2011-08-19T09:26:46Z</time>
      </trkpt>
      <trkpt lat="44.37156" lon="5.30626">
        <ele>798.99</ele>
        <time>2011-08-19T09:26:47Z</time>
      </trkpt>
      <trkpt lat="44.37155" lon="5.30626">
        <ele>799.47</ele>
        <time>2011-08-19T09:26:48Z</time>
      </trkpt>
      <trkpt lat="44.37134" lon="5.30635">
        <ele>800.44</ele>
        <time>2011-08-19T09:27:02Z</time>
      </trkpt>
      <trkpt lat="44.37127" lon="5.30663">
        <ele>802.36</ele>
        <time>2011-08-19T09:27:16Z</time>
      </trkpt>
      <trkpt lat="44.37126" lon="5.30708">
        <ele>802.84</ele>
        <time>2011-08-19T09:27:32Z</time>
      </trkpt>
      <trkpt lat="44.37125" lon="5.3075">
        <ele>798.51</ele>
        <time>2011-08-19T09:27:40Z</time>
      </trkpt>
      <trkpt lat="44.37124" lon="5.30757">
        <ele>798.03</ele>
        <time>2011-08-19T09:27:41Z</time>
      </trkpt>
      <trkpt lat="44.37122" lon="5.30763">
        <ele>797.55</ele>
        <time>2011-08-19T09:27:42Z</time>
      </trkpt>
      <trkpt lat="44.37109" lon="5.30791">
        <ele>794.19</ele>
        <time>2011-08-19T09:27:46Z</time>
      </trkpt>
      <trkpt lat="44.37104" lon="5.30806">
        <ele>791.78</ele>
        <time>2011-08-19T09:27:48Z</time>
      </trkpt>
      <trkpt lat="44.37103" lon="5.30814">
        <ele>790.82</ele>
        <time>2011-08-19T09:27:49Z</time>
      </trkpt>
      <trkpt lat="44.37103" lon="5.30822">
        <ele>790.34</ele>
        <time>2011-08-19T09:27:50Z</time>
      </trkpt>
      <trkpt lat="44.37102" lon="5.30839">
        <ele>789.38</ele>
        <time>2011-08-19T09:27:52Z</time>
      </trkpt>
      <trkpt lat="44.37102" lon="5.30847">
        <ele>788.9</ele>
        <time>2011-08-19T09:27:53Z</time>
      </trkpt>
      <trkpt lat="44.37099" lon="5.30883">
        <ele>786.02</ele>
        <time>2011-08-19T09:27:58Z</time>
      </trkpt>
      <trkpt lat="44.37098" lon="5.30899">
        <ele>783.13</ele>
        <time>2011-08-19T09:28:00Z</time>
      </trkpt>
      <trkpt lat="44.37097" lon="5.30905">
        <ele>782.17</ele>
        <time>2011-08-19T09:28:01Z</time>
      </trkpt>
      <trkpt lat="44.37094" lon="5.30911">
        <ele>781.69</ele>
        <time>2011-08-19T09:28:02Z</time>
      </trkpt>
      <trkpt lat="44.37091" lon="5.30916">
        <ele>781.21</ele>
        <time>2011-08-19T09:28:03Z</time>
      </trkpt>
      <trkpt lat="44.37087" lon="5.3092">
        <ele>780.25</ele>
        <time>2011-08-19T09:28:04Z</time>
      </trkpt>
      <trkpt lat="44.3708" lon="5.30929">
        <ele>779.29</ele>
        <time>2011-08-19T09:28:06Z</time>
      </trkpt>
      <trkpt lat="44.37069" lon="5.30946">
        <ele>775.44</ele>
        <time>2011-08-19T09:28:09Z</time>
      </trkpt>
      <trkpt lat="44.3706" lon="5.30965">
        <ele>772.56</ele>
        <time>2011-08-19T09:28:12Z</time>
      </trkpt>
      <trkpt lat="44.37058" lon="5.30971">
        <ele>772.08</ele>
        <time>2011-08-19T09:28:13Z</time>
      </trkpt>
      <trkpt lat="44.37055" lon="5.30977">
        <ele>771.6</ele>
        <time>2011-08-19T09:28:14Z</time>
      </trkpt>
      <trkpt lat="44.37053" lon="5.30982">
        <ele>770.63</ele>
        <time>2011-08-19T09:28:15Z</time>
      </trkpt>
      <trkpt lat="44.3705" lon="5.30986">
        <ele>769.19</ele>
        <time>2011-08-19T09:28:16Z</time>
      </trkpt>
      <trkpt lat="44.37046" lon="5.30989">
        <ele>768.23</ele>
        <time>2011-08-19T09:28:17Z</time>
      </trkpt>
      <trkpt lat="44.37043" lon="5.30993">
        <ele>767.27</ele>
        <time>2011-08-19T09:28:18Z</time>
      </trkpt>
      <trkpt lat="44.37041" lon="5.30997">
        <ele>766.31</ele>
        <time>2011-08-19T09:28:19Z</time>
      </trkpt>
      <trkpt lat="44.37039" lon="5.31003">
        <ele>765.35</ele>
        <time>2011-08-19T09:28:20Z</time>
      </trkpt>
      <trkpt lat="44.37038" lon="5.31009">
        <ele>764.39</ele>
        <time>2011-08-19T09:28:21Z</time>
      </trkpt>
      <trkpt lat="44.37039" lon="5.31016">
        <ele>763.42</ele>
        <time>2011-08-19T09:28:22Z</time>
      </trkpt>
      <trkpt lat="44.37005" lon="5.3098">
        <ele>758.14</ele>
        <time>2011-08-19T09:33:18Z</time>
      </trkpt>
      <trkpt lat="44.37" lon="5.30983">
        <ele>757.66</ele>
        <time>2011-08-19T09:33:19Z</time>
      </trkpt>
      <trkpt lat="44.36995" lon="5.30986">
        <ele>757.66</ele>
        <time>2011-08-19T09:33:20Z</time>
      </trkpt>
      <trkpt lat="44.36991" lon="5.3099">
        <ele>757.66</ele>
        <time>2011-08-19T09:33:21Z</time>
      </trkpt>
      <trkpt lat="44.36986" lon="5.30992">
        <ele>757.18</ele>
        <time>2011-08-19T09:33:22Z</time>
      </trkpt>
      <trkpt lat="44.36981" lon="5.30992">
        <ele>756.69</ele>
        <time>2011-08-19T09:33:23Z</time>
      </trkpt>
      <trkpt lat="44.36976" lon="5.3099">
        <ele>756.69</ele>
        <time>2011-08-19T09:33:24Z</time>
      </trkpt>
      <trkpt lat="44.36972" lon="5.30986">
        <ele>756.69</ele>
        <time>2011-08-19T09:33:25Z</time>
      </trkpt>
      <trkpt lat="44.36969" lon="5.3098">
        <ele>755.73</ele>
        <time>2011-08-19T09:33:26Z</time>
      </trkpt>
      <trkpt lat="44.36966" lon="5.30974">
        <ele>755.25</ele>
        <time>2011-08-19T09:33:27Z</time>
      </trkpt>
      <trkpt lat="44.36962" lon="5.30968">
        <ele>755.25</ele>
        <time>2011-08-19T09:33:28Z</time>
      </trkpt>
      <trkpt lat="44.36958" lon="5.30963">
        <ele>754.77</ele>
        <time>2011-08-19T09:33:29Z</time>
      </trkpt>
      <trkpt lat="44.36953" lon="5.3096">
        <ele>754.77</ele>
        <time>2011-08-19T09:33:30Z</time>
      </trkpt>
      <trkpt lat="44.36947" lon="5.30958">
        <ele>754.77</ele>
        <time>2011-08-19T09:33:31Z</time>
      </trkpt>
      <trkpt lat="44.36941" lon="5.30958">
        <ele>754.29</ele>
        <time>2011-08-19T09:33:32Z</time>
      </trkpt>
      <trkpt lat="44.36936" lon="5.30959">
        <ele>754.77</ele>
        <time>2011-08-19T09:33:33Z</time>
      </trkpt>
      <trkpt lat="44.3693" lon="5.30961">
        <ele>754.29</ele>
        <time>2011-08-19T09:33:34Z</time>
      </trkpt>
      <trkpt lat="44.36924" lon="5.30964">
        <ele>753.81</ele>
        <time>2011-08-19T09:33:35Z</time>
      </trkpt>
      <trkpt lat="44.36913" lon="5.30967">
        <ele>754.29</ele>
        <time>2011-08-19T09:33:37Z</time>
      </trkpt>
      <trkpt lat="44.36908" lon="5.30967">
        <ele>754.29</ele>
        <time>2011-08-19T09:33:38Z</time>
      </trkpt>
      <trkpt lat="44.36897" lon="5.30964">
        <ele>753.81</ele>
        <time>2011-08-19T09:33:40Z</time>
      </trkpt>
      <trkpt lat="44.36893" lon="5.30961">
        <ele>753.81</ele>
        <time>2011-08-19T09:33:41Z</time>
      </trkpt>
      <trkpt lat="44.36888" lon="5.30957">
        <ele>753.81</ele>
        <time>2011-08-19T09:33:42Z</time>
      </trkpt>
      <trkpt lat="44.36884" lon="5.30952">
        <ele>753.81</ele>
        <time>2011-08-19T09:33:43Z</time>
      </trkpt>
      <trkpt lat="44.36879" lon="5.30946">
        <ele>753.33</ele>
        <time>2011-08-19T09:33:44Z</time>
      </trkpt>
      <trkpt lat="44.36875" lon="5.3094">
        <ele>752.37</ele>
        <time>2011-08-19T09:33:45Z</time>
      </trkpt>
      <trkpt lat="44.36845" lon="5.30895">
        <ele>755.73</ele>
        <time>2011-08-19T09:33:53Z</time>
      </trkpt>
      <trkpt lat="44.3682" lon="5.30857">
        <ele>759.1</ele>
        <time>2011-08-19T09:34:04Z</time>
      </trkpt>
      <trkpt lat="44.36794" lon="5.30803">
        <ele>761.02</ele>
        <time>2011-08-19T09:34:21Z</time>
      </trkpt>
      <trkpt lat="44.36793" lon="5.30801">
        <ele>749.97</ele>
        <time>2011-08-19T09:34:27Z</time>
      </trkpt>
      <trkpt lat="44.36793" lon="5.30801">
        <ele>756.69</ele>
        <time>2011-08-19T09:34:28Z</time>
      </trkpt>
      <trkpt lat="44.36793" lon="5.30802">
        <ele>761.5</ele>
        <time>2011-08-19T09:34:29Z</time>
      </trkpt>
      <trkpt lat="44.36793" lon="5.30802">
        <ele>766.79</ele>
        <time>2011-08-19T09:34:30Z</time>
      </trkpt>
      <trkpt lat="44.36793" lon="5.30802">
        <ele>760.54</ele>
        <time>2011-08-19T09:34:31Z</time>
      </trkpt>
      <trkpt lat="44.36793" lon="5.30802">
        <ele>763.9</ele>
        <time>2011-08-19T09:34:33Z</time>
      </trkpt>
      <trkpt lat="44.36793" lon="5.30802">
        <ele>761.02</ele>
        <time>2011-08-19T09:34:36Z</time>
      </trkpt>
      <trkpt lat="44.36791" lon="5.30798">
        <ele>761.02</ele>
        <time>2011-08-19T09:34:38Z</time>
      </trkpt>
      <trkpt lat="44.3679" lon="5.30796">
        <ele>760.54</ele>
        <time>2011-08-19T09:34:39Z</time>
      </trkpt>
      <trkpt lat="44.36774" lon="5.30761">
        <ele>759.1</ele>
        <time>2011-08-19T09:34:47Z</time>
      </trkpt>
      <trkpt lat="44.36755" lon="5.30733">
        <ele>757.66</ele>
        <time>2011-08-19T09:34:52Z</time>
      </trkpt>
      <trkpt lat="44.36737" lon="5.30704">
        <ele>755.73</ele>
        <time>2011-08-19T09:34:56Z</time>
      </trkpt>
      <trkpt lat="44.3671" lon="5.30644">
        <ele>752.85</ele>
        <time>2011-08-19T09:35:03Z</time>
      </trkpt>
      <trkpt lat="44.36703" lon="5.30617">
        <ele>752.85</ele>
        <time>2011-08-19T09:35:06Z</time>
      </trkpt>
      <trkpt lat="44.36699" lon="5.3061">
        <ele>752.37</ele>
        <time>2011-08-19T09:35:07Z</time>
      </trkpt>
      <trkpt lat="44.36694" lon="5.30605">
        <ele>752.37</ele>
        <time>2011-08-19T09:35:08Z</time>
      </trkpt>
      <trkpt lat="44.36688" lon="5.30602">
        <ele>752.37</ele>
        <time>2011-08-19T09:35:09Z</time>
      </trkpt>
      <trkpt lat="44.36682" lon="5.30602">
        <ele>752.37</ele>
        <time>2011-08-19T09:35:10Z</time>
      </trkpt>
      <trkpt lat="44.36676" lon="5.30601">
        <ele>752.85</ele>
        <time>2011-08-19T09:35:11Z</time>
      </trkpt>
      <trkpt lat="44.36671" lon="5.30599">
        <ele>753.81</ele>
        <time>2011-08-19T09:35:12Z</time>
      </trkpt>
      <trkpt lat="44.36667" lon="5.30596">
        <ele>754.29</ele>
        <time>2011-08-19T09:35:13Z</time>
      </trkpt>
      <trkpt lat="44.36663" lon="5.30593">
        <ele>754.77</ele>
        <time>2011-08-19T09:35:14Z</time>
      </trkpt>
      <trkpt lat="44.3666" lon="5.30589">
        <ele>754.29</ele>
        <time>2011-08-19T09:35:15Z</time>
      </trkpt>
      <trkpt lat="44.36657" lon="5.30584">
        <ele>754.29</ele>
        <time>2011-08-19T09:35:16Z</time>
      </trkpt>
      <trkpt lat="44.36615" lon="5.30512">
        <ele>751.41</ele>
        <time>2011-08-19T09:35:28Z</time>
      </trkpt>
      <trkpt lat="44.36559" lon="5.3042">
        <ele>750.45</ele>
        <time>2011-08-19T09:35:42Z</time>
      </trkpt>
      <trkpt lat="44.36537" lon="5.30386">
        <ele>749.97</ele>
        <time>2011-08-19T09:35:48Z</time>
      </trkpt>
      <trkpt lat="44.36532" lon="5.30382">
        <ele>750.45</ele>
        <time>2011-08-19T09:35:49Z</time>
      </trkpt>
      <trkpt lat="44.36516" lon="5.30371">
        <ele>749.97</ele>
        <time>2011-08-19T09:35:52Z</time>
      </trkpt>
      <trkpt lat="44.36512" lon="5.30366">
        <ele>749.97</ele>
        <time>2011-08-19T09:35:53Z</time>
      </trkpt>
      <trkpt lat="44.36507" lon="5.30361">
        <ele>749</ele>
        <time>2011-08-19T09:35:54Z</time>
      </trkpt>
      <trkpt lat="44.36503" lon="5.30355">
        <ele>749</ele>
        <time>2011-08-19T09:35:55Z</time>
      </trkpt>
      <trkpt lat="44.36499" lon="5.30349">
        <ele>749</ele>
        <time>2011-08-19T09:35:56Z</time>
      </trkpt>
      <trkpt lat="44.36495" lon="5.30344">
        <ele>749</ele>
        <time>2011-08-19T09:35:57Z</time>
      </trkpt>
      <trkpt lat="44.3649" lon="5.3034">
        <ele>748.04</ele>
        <time>2011-08-19T09:35:58Z</time>
      </trkpt>
      <trkpt lat="44.36485" lon="5.30335">
        <ele>748.04</ele>
        <time>2011-08-19T09:35:59Z</time>
      </trkpt>
      <trkpt lat="44.3648" lon="5.3033">
        <ele>747.08</ele>
        <time>2011-08-19T09:36:00Z</time>
      </trkpt>
      <trkpt lat="44.36476" lon="5.30324">
        <ele>746.12</ele>
        <time>2011-08-19T09:36:01Z</time>
      </trkpt>
      <trkpt lat="44.36473" lon="5.30317">
        <ele>746.12</ele>
        <time>2011-08-19T09:36:02Z</time>
      </trkpt>
      <trkpt lat="44.3647" lon="5.30309">
        <ele>745.64</ele>
        <time>2011-08-19T09:36:03Z</time>
      </trkpt>
      <trkpt lat="44.36468" lon="5.30301">
        <ele>745.16</ele>
        <time>2011-08-19T09:36:04Z</time>
      </trkpt>
      <trkpt lat="44.36466" lon="5.30293">
        <ele>744.68</ele>
        <time>2011-08-19T09:36:05Z</time>
      </trkpt>
      <trkpt lat="44.36465" lon="5.30285">
        <ele>744.2</ele>
        <time>2011-08-19T09:36:06Z</time>
      </trkpt>
      <trkpt lat="44.36465" lon="5.30276">
        <ele>744.68</ele>
        <time>2011-08-19T09:36:07Z</time>
      </trkpt>
      <trkpt lat="44.36463" lon="5.30268">
        <ele>743.24</ele>
        <time>2011-08-19T09:36:08Z</time>
      </trkpt>
      <trkpt lat="44.36461" lon="5.30261">
        <ele>742.76</ele>
        <time>2011-08-19T09:36:09Z</time>
      </trkpt>
      <trkpt lat="44.36447" lon="5.30222">
        <ele>739.87</ele>
        <time>2011-08-19T09:36:14Z</time>
      </trkpt>
      <trkpt lat="44.36445" lon="5.30215">
        <ele>739.39</ele>
        <time>2011-08-19T09:36:15Z</time>
      </trkpt>
      <trkpt lat="44.36439" lon="5.30181">
        <ele>736.99</ele>
        <time>2011-08-19T09:36:20Z</time>
      </trkpt>
      <trkpt lat="44.36428" lon="5.30157">
        <ele>733.62</ele>
        <time>2011-08-19T09:36:26Z</time>
      </trkpt>
      <trkpt lat="44.36407" lon="5.30145">
        <ele>730.26</ele>
        <time>2011-08-19T09:36:32Z</time>
      </trkpt>
      <trkpt lat="44.36402" lon="5.30141">
        <ele>730.26</ele>
        <time>2011-08-19T09:36:33Z</time>
      </trkpt>
      <trkpt lat="44.36383" lon="5.30124">
        <ele>726.89</ele>
        <time>2011-08-19T09:36:37Z</time>
      </trkpt>
      <trkpt lat="44.36379" lon="5.3012">
        <ele>725.45</ele>
        <time>2011-08-19T09:36:38Z</time>
      </trkpt>
      <trkpt lat="44.36375" lon="5.30118">
        <ele>725.45</ele>
        <time>2011-08-19T09:36:39Z</time>
      </trkpt>
      <trkpt lat="44.36352" lon="5.30106">
        <ele>722.09</ele>
        <time>2011-08-19T09:36:44Z</time>
      </trkpt>
      <trkpt lat="44.36348" lon="5.30102">
        <ele>721.61</ele>
        <time>2011-08-19T09:36:45Z</time>
      </trkpt>
      <trkpt lat="44.36343" lon="5.30097">
        <ele>720.65</ele>
        <time>2011-08-19T09:36:46Z</time>
      </trkpt>
      <trkpt lat="44.36325" lon="5.30075">
        <ele>717.28</ele>
        <time>2011-08-19T09:36:50Z</time>
      </trkpt>
      <trkpt lat="44.36321" lon="5.3007">
        <ele>716.32</ele>
        <time>2011-08-19T09:36:51Z</time>
      </trkpt>
      <trkpt lat="44.36317" lon="5.30066">
        <ele>715.84</ele>
        <time>2011-08-19T09:36:52Z</time>
      </trkpt>
      <trkpt lat="44.36314" lon="5.3006">
        <ele>715.36</ele>
        <time>2011-08-19T09:36:53Z</time>
      </trkpt>
      <trkpt lat="44.36312" lon="5.30054">
        <ele>714.88</ele>
        <time>2011-08-19T09:36:54Z</time>
      </trkpt>
      <trkpt lat="44.36311" lon="5.30047">
        <ele>714.4</ele>
        <time>2011-08-19T09:36:55Z</time>
      </trkpt>
      <trkpt lat="44.3631" lon="5.30039">
        <ele>714.4</ele>
        <time>2011-08-19T09:36:56Z</time>
      </trkpt>
      <trkpt lat="44.36309" lon="5.30032">
        <ele>713.92</ele>
        <time>2011-08-19T09:36:57Z</time>
      </trkpt>
      <trkpt lat="44.36299" lon="5.29981">
        <ele>710.07</ele>
        <time>2011-08-19T09:37:03Z</time>
      </trkpt>
      <trkpt lat="44.36298" lon="5.29973">
        <ele>709.11</ele>
        <time>2011-08-19T09:37:04Z</time>
      </trkpt>
      <trkpt lat="44.36298" lon="5.29965">
        <ele>708.63</ele>
        <time>2011-08-19T09:37:05Z</time>
      </trkpt>
      <trkpt lat="44.36298" lon="5.29957">
        <ele>708.63</ele>
        <time>2011-08-19T09:37:06Z</time>
      </trkpt>
      <trkpt lat="44.36299" lon="5.29949">
        <ele>708.15</ele>
        <time>2011-08-19T09:37:07Z</time>
      </trkpt>
      <trkpt lat="44.36299" lon="5.29943">
        <ele>707.19</ele>
        <time>2011-08-19T09:37:08Z</time>
      </trkpt>
      <trkpt lat="44.36299" lon="5.29936">
        <ele>707.19</ele>
        <time>2011-08-19T09:37:09Z</time>
      </trkpt>
      <trkpt lat="44.36298" lon="5.29929">
        <ele>705.75</ele>
        <time>2011-08-19T09:37:10Z</time>
      </trkpt>
      <trkpt lat="44.36296" lon="5.29923">
        <ele>705.75</ele>
        <time>2011-08-19T09:37:11Z</time>
      </trkpt>
      <trkpt lat="44.36293" lon="5.29916">
        <ele>705.26</ele>
        <time>2011-08-19T09:37:12Z</time>
      </trkpt>
      <trkpt lat="44.36291" lon="5.29909">
        <ele>704.78</ele>
        <time>2011-08-19T09:37:13Z</time>
      </trkpt>
      <trkpt lat="44.36289" lon="5.29902">
        <ele>703.82</ele>
        <time>2011-08-19T09:37:14Z</time>
      </trkpt>
      <trkpt lat="44.36286" lon="5.29895">
        <ele>703.82</ele>
        <time>2011-08-19T09:37:15Z</time>
      </trkpt>
      <trkpt lat="44.36284" lon="5.29889">
        <ele>702.38</ele>
        <time>2011-08-19T09:37:16Z</time>
      </trkpt>
      <trkpt lat="44.36273" lon="5.29862">
        <ele>699.02</ele>
        <time>2011-08-19T09:37:21Z</time>
      </trkpt>
      <trkpt lat="44.36256" lon="5.29844">
        <ele>696.13</ele>
        <time>2011-08-19T09:37:28Z</time>
      </trkpt>
      <trkpt lat="44.36245" lon="5.29826">
        <ele>692.77</ele>
        <time>2011-08-19T09:37:33Z</time>
      </trkpt>
      <trkpt lat="44.36241" lon="5.2981">
        <ele>690.84</ele>
        <time>2011-08-19T09:37:37Z</time>
      </trkpt>
      <trkpt lat="44.36237" lon="5.29799">
        <ele>689.4</ele>
        <time>2011-08-19T09:37:40Z</time>
      </trkpt>
      <trkpt lat="44.36238" lon="5.29787">
        <ele>687.96</ele>
        <time>2011-08-19T09:37:43Z</time>
      </trkpt>
      <trkpt lat="44.36243" lon="5.29768">
        <ele>685.56</ele>
        <time>2011-08-19T09:37:48Z</time>
      </trkpt>
      <trkpt lat="44.36242" lon="5.29765">
        <ele>685.08</ele>
        <time>2011-08-19T09:37:49Z</time>
      </trkpt>
      <trkpt lat="44.3624" lon="5.29762">
        <ele>684.6</ele>
        <time>2011-08-19T09:37:50Z</time>
      </trkpt>
      <trkpt lat="44.36238" lon="5.2976">
        <ele>683.15</ele>
        <time>2011-08-19T09:37:51Z</time>
      </trkpt>
      <trkpt lat="44.36236" lon="5.29757">
        <ele>682.67</ele>
        <time>2011-08-19T09:37:52Z</time>
      </trkpt>
      <trkpt lat="44.36234" lon="5.29756">
        <ele>682.67</ele>
        <time>2011-08-19T09:37:53Z</time>
      </trkpt>
      <trkpt lat="44.36231" lon="5.29754">
        <ele>682.19</ele>
        <time>2011-08-19T09:37:54Z</time>
      </trkpt>
      <trkpt lat="44.36228" lon="5.29752">
        <ele>681.71</ele>
        <time>2011-08-19T09:37:55Z</time>
      </trkpt>
      <trkpt lat="44.36225" lon="5.2975">
        <ele>681.23</ele>
        <time>2011-08-19T09:37:56Z</time>
      </trkpt>
      <trkpt lat="44.36222" lon="5.29749">
        <ele>680.75</ele>
        <time>2011-08-19T09:37:57Z</time>
      </trkpt>
      <trkpt lat="44.36218" lon="5.29747">
        <ele>680.27</ele>
        <time>2011-08-19T09:37:58Z</time>
      </trkpt>
      <trkpt lat="44.36199" lon="5.29738">
        <ele>676.42</ele>
        <time>2011-08-19T09:38:03Z</time>
      </trkpt>
      <trkpt lat="44.36196" lon="5.29735">
        <ele>676.42</ele>
        <time>2011-08-19T09:38:04Z</time>
      </trkpt>
      <trkpt lat="44.36192" lon="5.29732">
        <ele>675.94</ele>
        <time>2011-08-19T09:38:05Z</time>
      </trkpt>
      <trkpt lat="44.36189" lon="5.29728">
        <ele>674.98</ele>
        <time>2011-08-19T09:38:06Z</time>
      </trkpt>
      <trkpt lat="44.36187" lon="5.29725">
        <ele>674.02</ele>
        <time>2011-08-19T09:38:07Z</time>
      </trkpt>
      <trkpt lat="44.36184" lon="5.29722">
        <ele>674.02</ele>
        <time>2011-08-19T09:38:08Z</time>
      </trkpt>
      <trkpt lat="44.36182" lon="5.29718">
        <ele>673.54</ele>
        <time>2011-08-19T09:38:09Z</time>
      </trkpt>
      <trkpt lat="44.36179" lon="5.29714">
        <ele>673.06</ele>
        <time>2011-08-19T09:38:10Z</time>
      </trkpt>
      <trkpt lat="44.36177" lon="5.29709">
        <ele>672.1</ele>
        <time>2011-08-19T09:38:11Z</time>
      </trkpt>
      <trkpt lat="44.36174" lon="5.29703">
        <ele>671.62</ele>
        <time>2011-08-19T09:38:12Z</time>
      </trkpt>
      <trkpt lat="44.36171" lon="5.29698">
        <ele>670.66</ele>
        <time>2011-08-19T09:38:13Z</time>
      </trkpt>
      <trkpt lat="44.36167" lon="5.29692">
        <ele>670.18</ele>
        <time>2011-08-19T09:38:14Z</time>
      </trkpt>
      <trkpt lat="44.36164" lon="5.29687">
        <ele>669.7</ele>
        <time>2011-08-19T09:38:15Z</time>
      </trkpt>
      <trkpt lat="44.3616" lon="5.29682">
        <ele>669.7</ele>
        <time>2011-08-19T09:38:16Z</time>
      </trkpt>
      <trkpt lat="44.36153" lon="5.29673">
        <ele>668.25</ele>
        <time>2011-08-19T09:38:18Z</time>
      </trkpt>
      <trkpt lat="44.3615" lon="5.29667">
        <ele>667.77</ele>
        <time>2011-08-19T09:38:19Z</time>
      </trkpt>
      <trkpt lat="44.36148" lon="5.2966">
        <ele>666.81</ele>
        <time>2011-08-19T09:38:20Z</time>
      </trkpt>
      <trkpt lat="44.36144" lon="5.29654">
        <ele>666.81</ele>
        <time>2011-08-19T09:38:21Z</time>
      </trkpt>
      <trkpt lat="44.3614" lon="5.29649">
        <ele>665.85</ele>
        <time>2011-08-19T09:38:22Z</time>
      </trkpt>
      <trkpt lat="44.36135" lon="5.29644">
        <ele>666.33</ele>
        <time>2011-08-19T09:38:23Z</time>
      </trkpt>
      <trkpt lat="44.3613" lon="5.2964">
        <ele>665.85</ele>
        <time>2011-08-19T09:38:24Z</time>
      </trkpt>
      <trkpt lat="44.36125" lon="5.29636">
        <ele>665.37</ele>
        <time>2011-08-19T09:38:25Z</time>
      </trkpt>
      <trkpt lat="44.36121" lon="5.29631">
        <ele>665.37</ele>
        <time>2011-08-19T09:38:26Z</time>
      </trkpt>
      <trkpt lat="44.36117" lon="5.29625">
        <ele>664.41</ele>
        <time>2011-08-19T09:38:27Z</time>
      </trkpt>
      <trkpt lat="44.36114" lon="5.29619">
        <ele>663.93</ele>
        <time>2011-08-19T09:38:28Z</time>
      </trkpt>
      <trkpt lat="44.36111" lon="5.29613">
        <ele>663.93</ele>
        <time>2011-08-19T09:38:29Z</time>
      </trkpt>
      <trkpt lat="44.36108" lon="5.29606">
        <ele>663.93</ele>
        <time>2011-08-19T09:38:30Z</time>
      </trkpt>
      <trkpt lat="44.36106" lon="5.29599">
        <ele>662.97</ele>
        <time>2011-08-19T09:38:31Z</time>
      </trkpt>
      <trkpt lat="44.36103" lon="5.29592">
        <ele>662.97</ele>
        <time>2011-08-19T09:38:32Z</time>
      </trkpt>
      <trkpt lat="44.36099" lon="5.29586">
        <ele>662.97</ele>
        <time>2011-08-19T09:38:33Z</time>
      </trkpt>
      <trkpt lat="44.36095" lon="5.29582">
        <ele>662.49</ele>
        <time>2011-08-19T09:38:34Z</time>
      </trkpt>
      <trkpt lat="44.36091" lon="5.29579">
        <ele>662.97</ele>
        <time>2011-08-19T09:38:35Z</time>
      </trkpt>
      <trkpt lat="44.36084" lon="5.29574">
        <ele>662.49</ele>
        <time>2011-08-19T09:38:37Z</time>
      </trkpt>
      <trkpt lat="44.36079" lon="5.29572">
        <ele>662.49</ele>
        <time>2011-08-19T09:38:38Z</time>
      </trkpt>
      <trkpt lat="44.36063" lon="5.29565">
        <ele>660.56</ele>
        <time>2011-08-19T09:38:41Z</time>
      </trkpt>
      <trkpt lat="44.36048" lon="5.29553">
        <ele>659.6</ele>
        <time>2011-08-19T09:38:44Z</time>
      </trkpt>
      <trkpt lat="44.3604" lon="5.29543">
        <ele>658.64</ele>
        <time>2011-08-19T09:38:46Z</time>
      </trkpt>
      <trkpt lat="44.36035" lon="5.29538">
        <ele>658.16</ele>
        <time>2011-08-19T09:38:47Z</time>
      </trkpt>
      <trkpt lat="44.36016" lon="5.29517">
        <ele>655.28</ele>
        <time>2011-08-19T09:38:51Z</time>
      </trkpt>
      <trkpt lat="44.36011" lon="5.29511">
        <ele>654.8</ele>
        <time>2011-08-19T09:38:52Z</time>
      </trkpt>
      <trkpt lat="44.36006" lon="5.29505">
        <ele>654.31</ele>
        <time>2011-08-19T09:38:53Z</time>
      </trkpt>
      <trkpt lat="44.35994" lon="5.29483">
        <ele>652.39</ele>
        <time>2011-08-19T09:38:56Z</time>
      </trkpt>
      <trkpt lat="44.35983" lon="5.29462">
        <ele>650.47</ele>
        <time>2011-08-19T09:38:59Z</time>
      </trkpt>
      <trkpt lat="44.35968" lon="5.29425">
        <ele>647.59</ele>
        <time>2011-08-19T09:39:04Z</time>
      </trkpt>
      <trkpt lat="44.35951" lon="5.29378">
        <ele>643.74</ele>
        <time>2011-08-19T09:39:10Z</time>
      </trkpt>
      <trkpt lat="44.35948" lon="5.2937">
        <ele>643.74</ele>
        <time>2011-08-19T09:39:11Z</time>
      </trkpt>
      <trkpt lat="44.35935" lon="5.29338">
        <ele>641.82</ele>
        <time>2011-08-19T09:39:15Z</time>
      </trkpt>
      <trkpt lat="44.35933" lon="5.29331">
        <ele>640.86</ele>
        <time>2011-08-19T09:39:16Z</time>
      </trkpt>
      <trkpt lat="44.35932" lon="5.29324">
        <ele>640.86</ele>
        <time>2011-08-19T09:39:17Z</time>
      </trkpt>
      <trkpt lat="44.3593" lon="5.29317">
        <ele>640.38</ele>
        <time>2011-08-19T09:39:18Z</time>
      </trkpt>
      <trkpt lat="44.35927" lon="5.29311">
        <ele>639.89</ele>
        <time>2011-08-19T09:39:19Z</time>
      </trkpt>
      <trkpt lat="44.35924" lon="5.29305">
        <ele>639.41</ele>
        <time>2011-08-19T09:39:20Z</time>
      </trkpt>
      <trkpt lat="44.3592" lon="5.29299">
        <ele>639.41</ele>
        <time>2011-08-19T09:39:21Z</time>
      </trkpt>
      <trkpt lat="44.35917" lon="5.29292">
        <ele>638.93</ele>
        <time>2011-08-19T09:39:22Z</time>
      </trkpt>
      <trkpt lat="44.35915" lon="5.29285">
        <ele>638.45</ele>
        <time>2011-08-19T09:39:23Z</time>
      </trkpt>
      <trkpt lat="44.35912" lon="5.29278">
        <ele>638.45</ele>
        <time>2011-08-19T09:39:24Z</time>
      </trkpt>
      <trkpt lat="44.35906" lon="5.29264">
        <ele>637.49</ele>
        <time>2011-08-19T09:39:26Z</time>
      </trkpt>
      <trkpt lat="44.35903" lon="5.29256">
        <ele>637.49</ele>
        <time>2011-08-19T09:39:27Z</time>
      </trkpt>
      <trkpt lat="44.35901" lon="5.29249">
        <ele>636.53</ele>
        <time>2011-08-19T09:39:28Z</time>
      </trkpt>
      <trkpt lat="44.359" lon="5.29241">
        <ele>636.53</ele>
        <time>2011-08-19T09:39:29Z</time>
      </trkpt>
      <trkpt lat="44.35898" lon="5.29234">
        <ele>636.05</ele>
        <time>2011-08-19T09:39:30Z</time>
      </trkpt>
      <trkpt lat="44.35896" lon="5.29227">
        <ele>635.57</ele>
        <time>2011-08-19T09:39:31Z</time>
      </trkpt>
      <trkpt lat="44.35892" lon="5.29213">
        <ele>634.61</ele>
        <time>2011-08-19T09:39:33Z</time>
      </trkpt>
      <trkpt lat="44.35888" lon="5.29199">
        <ele>632.2</ele>
        <time>2011-08-19T09:39:40Z</time>
      </trkpt>
      <trkpt lat="44.35888" lon="5.29199">
        <ele>624.51</ele>
        <time>2011-08-19T09:39:46Z</time>
      </trkpt>
      <trkpt lat="44.35888" lon="5.29199">
        <ele>633.65</ele>
        <time>2011-08-19T09:39:47Z</time>
      </trkpt>
      <trkpt lat="44.35888" lon="5.29199">
        <ele>638.93</ele>
        <time>2011-08-19T09:39:48Z</time>
      </trkpt>
      <trkpt lat="44.35888" lon="5.29199">
        <ele>635.57</ele>
        <time>2011-08-19T09:39:49Z</time>
      </trkpt>
      <trkpt lat="44.35888" lon="5.29199">
        <ele>627.4</ele>
        <time>2011-08-19T09:39:51Z</time>
      </trkpt>
      <trkpt lat="44.35888" lon="5.29199">
        <ele>630.76</ele>
        <time>2011-08-19T09:39:52Z</time>
      </trkpt>
      <trkpt lat="44.35888" lon="5.29199">
        <ele>634.61</ele>
        <time>2011-08-19T09:39:53Z</time>
      </trkpt>
      <trkpt lat="44.35888" lon="5.29199">
        <ele>636.05</ele>
        <time>2011-08-19T09:39:55Z</time>
      </trkpt>
      <trkpt lat="44.35888" lon="5.29199">
        <ele>631.24</ele>
        <time>2011-08-19T09:39:56Z</time>
      </trkpt>
      <trkpt lat="44.35888" lon="5.29199">
        <ele>634.61</ele>
        <time>2011-08-19T09:39:57Z</time>
      </trkpt>
      <trkpt lat="44.35886" lon="5.29196">
        <ele>632.2</ele>
        <time>2011-08-19T09:40:05Z</time>
      </trkpt>
      <trkpt lat="44.35885" lon="5.29193">
        <ele>631.24</ele>
        <time>2011-08-19T09:40:06Z</time>
      </trkpt>
      <trkpt lat="44.35883" lon="5.29189">
        <ele>630.76</ele>
        <time>2011-08-19T09:40:07Z</time>
      </trkpt>
      <trkpt lat="44.35881" lon="5.29183">
        <ele>630.28</ele>
        <time>2011-08-19T09:40:08Z</time>
      </trkpt>
      <trkpt lat="44.3588" lon="5.29177">
        <ele>629.8</ele>
        <time>2011-08-19T09:40:09Z</time>
      </trkpt>
      <trkpt lat="44.35869" lon="5.29144">
        <ele>626.92</ele>
        <time>2011-08-19T09:40:15Z</time>
      </trkpt>
      <trkpt lat="44.35865" lon="5.29136">
        <ele>625.47</ele>
        <time>2011-08-19T09:40:17Z</time>
      </trkpt>
      <trkpt lat="44.35863" lon="5.29133">
        <ele>624.99</ele>
        <time>2011-08-19T09:40:18Z</time>
      </trkpt>
      <trkpt lat="44.3586" lon="5.29131">
        <ele>624.03</ele>
        <time>2011-08-19T09:40:19Z</time>
      </trkpt>
      <trkpt lat="44.35857" lon="5.2913">
        <ele>623.55</ele>
        <time>2011-08-19T09:40:20Z</time>
      </trkpt>
      <trkpt lat="44.35846" lon="5.29128">
        <ele>621.63</ele>
        <time>2011-08-19T09:40:23Z</time>
      </trkpt>
      <trkpt lat="44.35838" lon="5.29123">
        <ele>620.19</ele>
        <time>2011-08-19T09:40:25Z</time>
      </trkpt>
      <trkpt lat="44.35834" lon="5.2912">
        <ele>619.23</ele>
        <time>2011-08-19T09:40:26Z</time>
      </trkpt>
      <trkpt lat="44.35831" lon="5.29116">
        <ele>618.26</ele>
        <time>2011-08-19T09:40:27Z</time>
      </trkpt>
      <trkpt lat="44.3582" lon="5.29104">
        <ele>615.86</ele>
        <time>2011-08-19T09:40:30Z</time>
      </trkpt>
      <trkpt lat="44.35816" lon="5.29101">
        <ele>615.38</ele>
        <time>2011-08-19T09:40:31Z</time>
      </trkpt>
      <trkpt lat="44.35812" lon="5.29099">
        <ele>614.42</ele>
        <time>2011-08-19T09:40:32Z</time>
      </trkpt>
      <trkpt lat="44.35808" lon="5.29098">
        <ele>613.94</ele>
        <time>2011-08-19T09:40:33Z</time>
      </trkpt>
      <trkpt lat="44.35803" lon="5.29097">
        <ele>613.46</ele>
        <time>2011-08-19T09:40:34Z</time>
      </trkpt>
      <trkpt lat="44.35798" lon="5.29095">
        <ele>612.5</ele>
        <time>2011-08-19T09:40:35Z</time>
      </trkpt>
      <trkpt lat="44.3578" lon="5.29086">
        <ele>609.13</ele>
        <time>2011-08-19T09:40:39Z</time>
      </trkpt>
      <trkpt lat="44.3577" lon="5.29083">
        <ele>607.69</ele>
        <time>2011-08-19T09:40:41Z</time>
      </trkpt>
      <trkpt lat="44.35756" lon="5.2908">
        <ele>605.29</ele>
        <time>2011-08-19T09:40:44Z</time>
      </trkpt>
      <trkpt lat="44.35739" lon="5.29074">
        <ele>601.92</ele>
        <time>2011-08-19T09:40:48Z</time>
      </trkpt>
      <trkpt lat="44.35735" lon="5.29073">
        <ele>602.4</ele>
        <time>2011-08-19T09:40:49Z</time>
      </trkpt>
      <trkpt lat="44.35731" lon="5.29072">
        <ele>600.96</ele>
        <time>2011-08-19T09:40:50Z</time>
      </trkpt>
      <trkpt lat="44.35727" lon="5.29069">
        <ele>600</ele>
        <time>2011-08-19T09:40:51Z</time>
      </trkpt>
      <trkpt lat="44.35724" lon="5.29065">
        <ele>600</ele>
        <time>2011-08-19T09:40:52Z</time>
      </trkpt>
      <trkpt lat="44.35721" lon="5.2906">
        <ele>599.04</ele>
        <time>2011-08-19T09:40:53Z</time>
      </trkpt>
      <trkpt lat="44.35718" lon="5.29056">
        <ele>598.08</ele>
        <time>2011-08-19T09:40:54Z</time>
      </trkpt>
      <trkpt lat="44.35708" lon="5.29044">
        <ele>596.15</ele>
        <time>2011-08-19T09:40:57Z</time>
      </trkpt>
      <trkpt lat="44.35694" lon="5.29031">
        <ele>593.27</ele>
        <time>2011-08-19T09:41:01Z</time>
      </trkpt>
      <trkpt lat="44.35688" lon="5.29025">
        <ele>591.83</ele>
        <time>2011-08-19T09:41:03Z</time>
      </trkpt>
      <trkpt lat="44.35684" lon="5.29023">
        <ele>591.35</ele>
        <time>2011-08-19T09:41:04Z</time>
      </trkpt>
      <trkpt lat="44.35668" lon="5.2902">
        <ele>587.98</ele>
        <time>2011-08-19T09:41:08Z</time>
      </trkpt>
      <trkpt lat="44.35664" lon="5.29018">
        <ele>587.5</ele>
        <time>2011-08-19T09:41:09Z</time>
      </trkpt>
      <trkpt lat="44.3566" lon="5.29014">
        <ele>586.54</ele>
        <time>2011-08-19T09:41:10Z</time>
      </trkpt>
      <trkpt lat="44.35655" lon="5.29008">
        <ele>586.54</ele>
        <time>2011-08-19T09:41:11Z</time>
      </trkpt>
      <trkpt lat="44.3565" lon="5.29002">
        <ele>585.58</ele>
        <time>2011-08-19T09:41:12Z</time>
      </trkpt>
      <trkpt lat="44.35645" lon="5.28998">
        <ele>585.58</ele>
        <time>2011-08-19T09:41:13Z</time>
      </trkpt>
      <trkpt lat="44.3564" lon="5.28996">
        <ele>585.58</ele>
        <time>2011-08-19T09:41:14Z</time>
      </trkpt>
      <trkpt lat="44.35629" lon="5.28995">
        <ele>584.14</ele>
        <time>2011-08-19T09:41:16Z</time>
      </trkpt>
      <trkpt lat="44.35618" lon="5.28994">
        <ele>582.22</ele>
        <time>2011-08-19T09:41:18Z</time>
      </trkpt>
      <trkpt lat="44.35612" lon="5.28993">
        <ele>582.22</ele>
        <time>2011-08-19T09:41:19Z</time>
      </trkpt>
      <trkpt lat="44.35607" lon="5.28992">
        <ele>581.25</ele>
        <time>2011-08-19T09:41:20Z</time>
      </trkpt>
      <trkpt lat="44.35602" lon="5.28993">
        <ele>580.77</ele>
        <time>2011-08-19T09:41:21Z</time>
      </trkpt>
      <trkpt lat="44.35582" lon="5.29">
        <ele>577.89</ele>
        <time>2011-08-19T09:41:25Z</time>
      </trkpt>
      <trkpt lat="44.35567" lon="5.29002">
        <ele>574.53</ele>
        <time>2011-08-19T09:41:31Z</time>
      </trkpt>
      <trkpt lat="44.35567" lon="5.29002">
        <ele>574.04</ele>
        <time>2011-08-19T09:41:51Z</time>
      </trkpt>
      <trkpt lat="44.35566" lon="5.29002">
        <ele>573.56</ele>
        <time>2011-08-19T09:42:15Z</time>
      </trkpt>
      <trkpt lat="44.35564" lon="5.29001">
        <ele>573.56</ele>
        <time>2011-08-19T09:42:16Z</time>
      </trkpt>
      <trkpt lat="44.35561" lon="5.29001">
        <ele>573.56</ele>
        <time>2011-08-19T09:42:17Z</time>
      </trkpt>
      <trkpt lat="44.35558" lon="5.29001">
        <ele>573.08</ele>
        <time>2011-08-19T09:42:18Z</time>
      </trkpt>
      <trkpt lat="44.35554" lon="5.29002">
        <ele>572.6</ele>
        <time>2011-08-19T09:42:19Z</time>
      </trkpt>
      <trkpt lat="44.35539" lon="5.29004">
        <ele>570.2</ele>
        <time>2011-08-19T09:42:23Z</time>
      </trkpt>
      <trkpt lat="44.35529" lon="5.29002">
        <ele>568.76</ele>
        <time>2011-08-19T09:42:25Z</time>
      </trkpt>
      <trkpt lat="44.35519" lon="5.28999">
        <ele>567.32</ele>
        <time>2011-08-19T09:42:27Z</time>
      </trkpt>
      <trkpt lat="44.35494" lon="5.28993">
        <ele>564.43</ele>
        <time>2011-08-19T09:42:32Z</time>
      </trkpt>
      <trkpt lat="44.3548" lon="5.28992">
        <ele>562.51</ele>
        <time>2011-08-19T09:42:35Z</time>
      </trkpt>
      <trkpt lat="44.35462" lon="5.28989">
        <ele>558.66</ele>
        <time>2011-08-19T09:42:39Z</time>
      </trkpt>
      <trkpt lat="44.35457" lon="5.28987">
        <ele>558.66</ele>
        <time>2011-08-19T09:42:40Z</time>
      </trkpt>
      <trkpt lat="44.35452" lon="5.28984">
        <ele>558.18</ele>
        <time>2011-08-19T09:42:41Z</time>
      </trkpt>
      <trkpt lat="44.35447" lon="5.2898">
        <ele>557.7</ele>
        <time>2011-08-19T09:42:42Z</time>
      </trkpt>
      <trkpt lat="44.35431" lon="5.28966">
        <ele>556.26</ele>
        <time>2011-08-19T09:42:45Z</time>
      </trkpt>
      <trkpt lat="44.35401" lon="5.28936">
        <ele>553.38</ele>
        <time>2011-08-19T09:42:50Z</time>
      </trkpt>
      <trkpt lat="44.35368" lon="5.28907">
        <ele>549.53</ele>
        <time>2011-08-19T09:42:55Z</time>
      </trkpt>
      <trkpt lat="44.35357" lon="5.28894">
        <ele>548.57</ele>
        <time>2011-08-19T09:42:57Z</time>
      </trkpt>
      <trkpt lat="44.35351" lon="5.28886">
        <ele>547.61</ele>
        <time>2011-08-19T09:42:58Z</time>
      </trkpt>
      <trkpt lat="44.35327" lon="5.28842">
        <ele>544.24</ele>
        <time>2011-08-19T09:43:03Z</time>
      </trkpt>
      <trkpt lat="44.35306" lon="5.28792">
        <ele>541.36</ele>
        <time>2011-08-19T09:43:08Z</time>
      </trkpt>
      <trkpt lat="44.35292" lon="5.28764">
        <ele>539.92</ele>
        <time>2011-08-19T09:43:11Z</time>
      </trkpt>
      <trkpt lat="44.3527" lon="5.28729">
        <ele>536.07</ele>
        <time>2011-08-19T09:43:15Z</time>
      </trkpt>
      <trkpt lat="44.35239" lon="5.28696">
        <ele>532.23</ele>
        <time>2011-08-19T09:43:20Z</time>
      </trkpt>
      <trkpt lat="44.35216" lon="5.28677">
        <ele>528.86</ele>
        <time>2011-08-19T09:43:24Z</time>
      </trkpt>
      <trkpt lat="44.35201" lon="5.28663">
        <ele>527.42</ele>
        <time>2011-08-19T09:43:27Z</time>
      </trkpt>
      <trkpt lat="44.35195" lon="5.2866">
        <ele>526.46</ele>
        <time>2011-08-19T09:43:28Z</time>
      </trkpt>
      <trkpt lat="44.35189" lon="5.28658">
        <ele>525.02</ele>
        <time>2011-08-19T09:43:29Z</time>
      </trkpt>
      <trkpt lat="44.35183" lon="5.28657">
        <ele>524.06</ele>
        <time>2011-08-19T09:43:30Z</time>
      </trkpt>
      <trkpt lat="44.35177" lon="5.28656">
        <ele>523.09</ele>
        <time>2011-08-19T09:43:31Z</time>
      </trkpt>
      <trkpt lat="44.3517" lon="5.28654">
        <ele>522.13</ele>
        <time>2011-08-19T09:43:32Z</time>
      </trkpt>
      <trkpt lat="44.35164" lon="5.28651">
        <ele>521.17</ele>
        <time>2011-08-19T09:43:33Z</time>
      </trkpt>
      <trkpt lat="44.35158" lon="5.28647">
        <ele>520.69</ele>
        <time>2011-08-19T09:43:34Z</time>
      </trkpt>
      <trkpt lat="44.35145" lon="5.28638">
        <ele>520.21</ele>
        <time>2011-08-19T09:43:36Z</time>
      </trkpt>
      <trkpt lat="44.35126" lon="5.28625">
        <ele>516.37</ele>
        <time>2011-08-19T09:43:39Z</time>
      </trkpt>
      <trkpt lat="44.35107" lon="5.28611">
        <ele>513.96</ele>
        <time>2011-08-19T09:43:42Z</time>
      </trkpt>
      <trkpt lat="44.351" lon="5.28608">
        <ele>512.04</ele>
        <time>2011-08-19T09:43:43Z</time>
      </trkpt>
      <trkpt lat="44.35078" lon="5.286">
        <ele>509.16</ele>
        <time>2011-08-19T09:43:46Z</time>
      </trkpt>
      <trkpt lat="44.35057" lon="5.28588">
        <ele>504.83</ele>
        <time>2011-08-19T09:43:49Z</time>
      </trkpt>
      <trkpt lat="44.35035" lon="5.28575">
        <ele>501.95</ele>
        <time>2011-08-19T09:43:52Z</time>
      </trkpt>
      <trkpt lat="44.35029" lon="5.28571">
        <ele>500.98</ele>
        <time>2011-08-19T09:43:53Z</time>
      </trkpt>
      <trkpt lat="44.35001" lon="5.28551">
        <ele>496.66</ele>
        <time>2011-08-19T09:43:57Z</time>
      </trkpt>
      <trkpt lat="44.34978" lon="5.28538">
        <ele>493.29</ele>
        <time>2011-08-19T09:44:00Z</time>
      </trkpt>
      <trkpt lat="44.34964" lon="5.2853">
        <ele>491.37</ele>
        <time>2011-08-19T09:44:02Z</time>
      </trkpt>
      <trkpt lat="44.34943" lon="5.28518">
        <ele>487.53</ele>
        <time>2011-08-19T09:44:05Z</time>
      </trkpt>
      <trkpt lat="44.34924" lon="5.28508">
        <ele>484.16</ele>
        <time>2011-08-19T09:44:08Z</time>
      </trkpt>
      <trkpt lat="44.34918" lon="5.28507">
        <ele>483.2</ele>
        <time>2011-08-19T09:44:09Z</time>
      </trkpt>
      <trkpt lat="44.34894" lon="5.285">
        <ele>479.35</ele>
        <time>2011-08-19T09:44:13Z</time>
      </trkpt>
      <trkpt lat="44.34889" lon="5.28499">
        <ele>478.87</ele>
        <time>2011-08-19T09:44:14Z</time>
      </trkpt>
      <trkpt lat="44.34883" lon="5.28499">
        <ele>477.91</ele>
        <time>2011-08-19T09:44:15Z</time>
      </trkpt>
      <trkpt lat="44.34879" lon="5.285">
        <ele>477.43</ele>
        <time>2011-08-19T09:44:16Z</time>
      </trkpt>
      <trkpt lat="44.34874" lon="5.28504">
        <ele>476.47</ele>
        <time>2011-08-19T09:44:17Z</time>
      </trkpt>
      <trkpt lat="44.3487" lon="5.28509">
        <ele>475.99</ele>
        <time>2011-08-19T09:44:18Z</time>
      </trkpt>
      <trkpt lat="44.34858" lon="5.28527">
        <ele>474.07</ele>
        <time>2011-08-19T09:44:21Z</time>
      </trkpt>
      <trkpt lat="44.34855" lon="5.28534">
        <ele>472.63</ele>
        <time>2011-08-19T09:44:22Z</time>
      </trkpt>
      <trkpt lat="44.34854" lon="5.2854">
        <ele>472.14</ele>
        <time>2011-08-19T09:44:23Z</time>
      </trkpt>
      <trkpt lat="44.34854" lon="5.28547">
        <ele>472.14</ele>
        <time>2011-08-19T09:44:24Z</time>
      </trkpt>
      <trkpt lat="44.34855" lon="5.28555">
        <ele>471.66</ele>
        <time>2011-08-19T09:44:25Z</time>
      </trkpt>
      <trkpt lat="44.34857" lon="5.28565">
        <ele>470.7</ele>
        <time>2011-08-19T09:44:26Z</time>
      </trkpt>
      <trkpt lat="44.34859" lon="5.28574">
        <ele>470.7</ele>
        <time>2011-08-19T09:44:27Z</time>
      </trkpt>
      <trkpt lat="44.34862" lon="5.28584">
        <ele>470.7</ele>
        <time>2011-08-19T09:44:28Z</time>
      </trkpt>
    </trkseg>
  </trk>
</gpx>